GFSGBSN_250_rhum_003.txt.gz
RH
46 83 79 57 62 28 24 34 66 94 100 100 100 100 100 100 99 100 100 93 68 53 57 51 50 55 48 41 43 49 41 39 37 36 38 35 31 28 26 23 22 24 21 20 18 17 19
45 88 90 68 72 88 34 28 37 88 100 100 100 100 100 100 100 92 100 73 69 64 60 69 61 55 53 53 47 44 53 48 47 43 38 40 34 31 31 28 26 26 23 20 21 19 18
44 73 95 90 86 83 98 51 34 54 89 100 100 100 100 100 100 100 84 89 95 77 74 70 77 89 99 57 51 49 48 56 48 50 50 45 36 39 45 40 42 36 27 24 24 23 21
45 72 85 91 93 88 90 96 90 37 38 96 100 100 100 100 100 100 100 98 97 70 60 66 68 89 100 86 63 53 48 56 55 54 58 45 35 40 48 54 57 59 37 28 36 30 25
41 55 80 96 86 93 94 95 90 98 58 43 45 100 100 100 100 100 100 90 92 100 100 71 64 78 97 93 70 59 53 62 64 63 63 51 43 48 62 80 91 92 69 44 35 36 25
33 47 61 84 95 90 100 98 88 92 92 86 64 59 83 100 100 100 100 100 100 100 100 100 80 87 80 92 82 70 64 69 69 74 72 65 65 68 77 71 65 64 58 57 55 42 28
35 45 55 66 73 89 85 100 100 97 95 96 83 97 72 65 96 100 100 100 100 100 100 100 91 99 83 98 84 70 66 72 76 86 84 58 58 68 79 83 73 68 54 43 47 42 27
45 48 58 67 76 78 95 99 95 98 99 98 92 92 82 90 83 73 82 87 100 100 100 100 91 99 83 98 88 70 65 72 81 93 76 68 77 86 74 70 70 65 52 48 48 43 29
49 53 59 68 75 76 78 93 97 94 96 92 92 99 100 87 87 94 87 79 71 81 94 100 100 73 87 86 80 73 62 75 87 77 69 66 79 79 72 68 64 62 47 53 52 48 30
82 80 70 52 53 60 69 76 84 78 74 83 83 82 84 88 93 100 92 95 77 58 52 100 100 89 91 91 79 55 64 74 78 60 58 62 74 77 72 65 67 64 91 81 48 48 34
68 67 59 64 67 63 50 53 65 80 88 78 84 74 69 87 94 90 91 90 71 42 35 76 72 83 100 100 80 64 71 76 63 62 57 63 78 66 46 70 56 86 64 59 54 44 32
40 36 28 24 25 33 49 50 42 55 62 74 81 77 71 88 92 90 91 71 64 43 43 57 69 99 98 76 58 66 75 55 50 40 32 39 35 32 30 32 26 40 32 36 40 40 31
16 10 7 6 6 10 15 25 28 37 50 53 70 78 64 80 83 90 82 55 48 46 57 69 89 88 65 59 67 69 47 32 27 23 17 12 15 14 15 17 17 18 23 25 28 43 56
5 4 4 4 5 5 7 9 14 18 31 44 50 56 48 60 80 80 62 46 41 53 73 96 81 69 68 76 72 39 30 20 13 11 9 9 8 5 7 8 12 16 20 25 58 70 82
4 4 3 3 3 4 5 7 9 10 16 26 29 35 32 54 68 70 43 41 52 68 98 100 98 80 92 66 36 30 11 8 8 7 6 4 3 3 3 5 8 13 18 62 100 100 95
3 3 2 2 3 3 4 5 7 8 10 17 20 24 29 52 53 47 42 50 69 96 100 100 92 96 69 50 30 10 8 6 6 5 3 3 2 2 2 3 5 13 58 95 100 100 97
3 2 2 2 3 3 4 5 6 8 12 15 19 24 32 42 39 40 52 65 94 100 99 100 100 84 64 31 17 6 6 6 4 4 4 4 4 3 6 6 11 12 93 100 100 100 99
2 2 2 2 2 3 4 5 7 10 13 19 19 24 32 32 39 52 60 92 100 100 100 100 89 73 37 23 18 15 9 6 10 15 18 12 6 10 17 47 57 100 100 100 100 100 80
2 2 2 2 3 4 4 6 8 11 18 23 22 25 24 36 44 66 79 100 100 100 100 80 89 70 48 70 49 24 17 34 73 91 100 100 100 100 100 100 100 100 100 100 100 100 75
2 2 2 2 3 4 5 7 10 11 13 15 15 19 27 34 70 70 100 100 100 100 91 100 72 100 91 81 71 33 61 60 100 100 100 100 100 100 100 100 100 100 100 100 100 100 52
2 2 2 3 4 4 6 8 8 9 11 16 18 26 33 73 62 98 100 100 100 100 80 100 76 100 100 99 70 59 71 98 100 100 100 100 100 100 100 100 100 100 100 100 100 92 36
2 2 2 4 4 4 6 8 8 9 13 18 28 30 57 58 90 100 100 100 100 85 92 100 82 100 100 95 92 70 72 100 100 97 100 100 100 100 100 100 100 100 100 100 70 28 23
3 2 3 4 5 6 7 8 10 11 15 27 30 36 63 68 96 100 87 100 100 78 95 100 98 97 100 100 100 88 64 95 85 76 98 91 100 100 100 99 96 83 57 52 22 21 20
3 2 4 4 5 6 7 8 9 13 23 30 25 48 58 92 96 90 99 100 84 89 96 100 100 97 100 100 100 100 78 60 79 63 54 73 75 75 76 81 66 67 48 29 23 18 23
3 3 3 4 5 6 5 6 13 24 30 26 38 52 78 99 98 92 99 100 80 92 100 99 100 100 88 90 100 100 100 96 66 68 66 54 56 52 63 56 44 41 26 24 20 18 31
3 3 3 5 6 5 4 9 19 26 25 26 51 60 98 94 100 93 99 99 86 92 100 100 99 92 76 74 66 84 92 99 96 92 64 56 52 74 54 36 43 46 40 31 24 28 38
3 3 3 4 5 4 4 15 23 25 20 36 53 76 100 96 87 99 100 100 87 83 100 100 98 90 76 59 58 54 51 59 61 62 61 57 52 45 46 59 63 48 31 26 25 40 47
3 3 4 4 5 3 8 18 25 24 25 42 59 91 99 93 87 99 100 100 92 90 100 100 98 89 77 56 48 43 45 43 40 43 50 50 51 49 40 31 32 30 35 28 30 37 46
3 3 4 4 6 3 11 17 27 23 36 47 68 98 99 89 92 100 100 100 93 84 87 97 100 99 90 64 56 43 36 34 33 37 43 43 40 37 41 33 31 29 27 25 25 29 37

GFSGBSN_250_rhum_006.txt.gz
RH
10 12 15 22 32 43 76 86 68 42 16 16 23 59 100 100 100 100 100 100 100 100 100 100 100 93 57 50 53 60 64 47 47 47 44 53 41 34 30 27 30 29 31 32 33 23 23
10 12 15 21 33 45 74 92 68 58 23 21 30 56 100 100 100 100 100 100 100 100 100 100 100 81 69 55 53 57 72 66 49 52 46 41 46 40 38 36 33 31 28 25 29 30 23
10 12 14 20 34 50 66 95 76 71 34 24 45 56 87 100 100 100 100 100 100 100 100 100 100 98 80 64 82 82 82 75 81 62 62 44 39 40 42 41 38 35 28 25 24 28 28
10 13 16 21 31 54 80 97 89 71 83 35 30 62 85 89 100 100 100 100 100 100 100 100 100 100 96 95 78 63 82 79 69 74 71 47 43 40 48 48 41 35 27 29 33 30 30
14 16 18 22 33 47 75 86 100 83 81 95 58 37 65 98 100 96 100 100 100 100 100 100 100 100 100 88 67 67 69 75 65 64 63 63 53 48 47 45 43 40 33 38 46 46 40
14 17 25 30 35 50 62 77 90 96 85 97 93 89 39 60 83 100 100 100 100 100 100 100 100 97 97 100 100 63 64 80 84 74 84 73 51 50 53 62 76 50 39 50 59 81 47
17 24 39 45 47 48 56 67 81 85 95 86 91 94 98 71 43 58 100 100 100 100 100 100 100 100 100 100 100 100 98 98 83 80 78 62 57 69 71 63 62 58 37 47 63 74 68
25 30 33 40 45 50 57 65 69 76 86 85 91 91 90 92 98 91 66 59 66 98 100 100 100 100 100 100 100 100 97 97 84 75 84 73 51 64 60 59 73 78 47 56 72 78 76
41 47 46 41 40 56 47 55 64 76 71 72 88 91 91 78 84 90 84 90 86 73 62 77 84 100 100 100 99 100 80 70 80 70 66 54 64 83 65 63 75 82 59 67 74 75 64
47 49 45 44 43 35 38 47 48 56 68 73 73 82 91 91 89 87 90 84 72 76 70 98 99 95 89 72 93 92 85 68 72 76 59 51 96 89 64 58 73 81 69 82 94 92 54
32 32 31 33 35 38 36 38 38 41 50 73 61 72 78 97 93 90 83 82 86 87 70 96 100 96 91 79 70 81 69 65 75 63 49 53 70 60 53 75 75 74 66 68 70 72 62
25 20 17 13 13 13 18 26 35 45 44 51 57 68 79 88 98 74 70 77 77 69 79 100 98 92 86 77 72 62 59 62 62 50 45 50 52 53 51 68 60 53 57 48 53 59 48
15 11 7 6 5 5 5 7 12 29 49 58 50 68 70 75 81 78 89 80 74 79 96 96 88 80 75 67 66 71 67 65 59 52 42 40 41 41 38 40 36 39 54 51 51 47 32
9 6 4 4 4 4 4 6 7 10 28 35 52 60 68 75 73 79 74 90 87 99 93 88 84 68 57 57 76 64 57 50 42 34 27 23 23 21 20 20 21 27 35 29 25 28 44
6 4 3 3 3 3 3 3 5 8 10 14 29 30 71 83 75 73 68 81 89 95 78 97 65 50 72 77 70 53 40 35 28 25 17 9 8 8 8 7 7 9 8 19 19 22 32
4 4 3 2 2 2 2 2 4 5 9 10 18 31 32 72 73 71 67 91 92 81 89 76 59 80 74 72 52 36 30 30 20 12 9 8 8 6 5 5 6 8 11 9 16 23 35
4 3 2 2 2 2 2 2 3 5 5 7 10 23 26 40 56 51 74 76 82 77 81 74 78 71 90 52 40 36 23 14 8 6 7 6 5 4 3 3 4 6 11 19 27 43 79
4 3 2 2 2 2 2 3 3 4 5 10 13 13 9 22 48 57 72 69 68 81 98 87 82 100 67 54 46 19 11 10 9 6 5 8 8 10 8 8 11 12 17 46 75 95 100
4 3 2 2 2 2 3 3 4 6 9 13 11 15 18 22 38 58 48 61 75 97 96 94 100 82 61 67 80 55 36 20 17 27 36 25 34 36 38 40 44 35 48 73 99 100 100
4 3 2 2 2 3 3 3 5 5 8 9 12 12 20 27 37 37 49 74 94 86 100 100 98 83 93 90 82 100 97 100 94 74 68 82 97 98 75 100 100 100 100 100 100 100 100
4 3 2 2 2 4 4 5 6 8 8 11 9 21 28 45 48 43 73 90 80 94 100 100 100 100 100 100 86 70 100 100 100 100 100 100 100 100 100 98 100 100 100 100 100 100 100
4 3 2 2 3 4 4 5 7 7 8 10 17 24 35 28 32 73 93 73 88 100 100 98 100 91 100 100 88 92 82 100 100 100 100 100 100 100 100 100 100 100 100 100 100 100 100
4 3 3 2 4 4 5 6 6 7 7 12 24 24 22 33 62 85 69 97 100 100 100 100 92 85 100 100 92 86 89 100 100 100 100 100 100 100 100 100 100 100 100 100 100 86 84
4 3 3 3 4 4 5 7 8 9 14 18 24 24 27 47 73 61 90 100 100 100 97 100 97 78 100 100 94 94 98 86 100 100 100 100 100 100 100 100 100 100 100 100 100 100 67
4 3 3 3 5 5 5 6 10 12 14 17 21 27 48 79 55 79 98 100 99 100 100 100 98 81 98 100 100 100 82 82 76 100 100 100 100 100 100 100 100 100 100 100 100 92 55
4 3 3 3 4 6 6 8 9 11 13 16 26 36 60 64 71 95 100 100 99 100 100 100 100 79 87 99 100 100 99 79 83 75 87 93 93 100 100 94 99 93 73 62 47 51 54
4 3 3 4 3 6 7 8 10 15 14 21 30 54 74 76 90 92 100 100 99 100 100 100 100 100 100 85 84 100 100 94 92 81 78 72 66 89 88 74 54 64 55 44 43 36 38
4 3 4 4 3 6 8 10 11 14 16 24 34 61 53 77 80 93 100 100 100 100 100 100 100 100 97 99 98 88 72 70 65 84 72 84 77 81 90 68 59 45 46 50 52 50 44
4 3 3 4 4 5 7 9 12 15 22 27 48 58 58 79 76 99 100 100 100 100 100 99 92 100 95 77 80 87 74 59 59 76 83 91 94 82 67 72 71 61 54 51 48 42 37

GFSGBSN_250_rhum_009.txt.gz
RH
8 8 8 9 10 11 11 14 18 29 42 67 97 76 63 56 36 26 23 65 100 100 100 100 100 100 100 99 100 100 90 50 48 46 45 39 37 41 45 40 39 34 30 26 25 24 24
8 9 9 9 10 11 12 15 18 31 49 80 97 80 60 31 17 11 37 100 100 100 100 100 100 100 100 100 100 100 100 76 56 53 56 52 51 41 49 48 39 38 36 31 29 31 29
8 9 8 10 11 12 15 16 19 34 59 84 100 84 55 23 14 16 58 100 100 100 100 100 100 100 100 100 100 100 100 100 74 67 62 76 57 51 40 47 46 37 36 36 31 33 30
8 8 9 10 12 15 17 19 26 33 63 89 100 96 61 24 19 41 85 100 100 100 100 100 100 100 100 100 100 100 100 100 98 77 80 63 57 50 46 40 38 36 35 37 42 36 31
9 12 13 16 16 19 24 26 29 45 48 78 100 100 75 40 26 46 83 100 100 100 100 100 100 100 99 97 100 100 100 100 81 100 100 66 67 51 55 50 36 46 46 41 40 34 31
9 17 26 30 33 32 37 42 40 42 68 67 97 100 100 71 31 46 74 86 100 100 100 100 100 100 100 100 100 100 100 100 100 100 98 64 55 59 63 76 58 42 39 43 43 45 39
13 25 27 30 44 45 46 51 58 51 52 73 84 100 100 100 80 36 65 86 96 97 98 100 100 100 100 100 99 89 92 100 100 100 98 73 58 71 67 53 52 42 47 46 50 52 45
16 29 37 42 31 34 44 41 51 60 63 70 71 91 100 100 100 83 52 66 91 93 100 94 98 100 100 99 100 92 82 91 86 100 100 87 92 86 77 67 69 56 57 49 52 56 52
16 31 39 46 50 47 37 36 42 43 57 74 63 70 90 100 100 100 95 77 48 58 84 84 86 89 95 86 84 100 100 99 95 97 99 86 98 96 90 80 49 58 54 56 54 64 48
12 21 25 30 31 36 38 40 33 37 41 54 71 70 77 88 93 100 100 87 82 86 68 63 55 59 68 85 74 98 90 81 83 88 78 78 100 85 66 74 61 65 53 51 47 57 48
9 22 22 22 18 15 14 17 24 29 32 38 44 69 81 79 93 100 95 90 93 97 76 92 99 99 96 83 79 82 81 81 78 72 65 61 64 56 62 93 62 60 69 52 53 53 49
9 17 15 8 7 6 6 7 9 14 21 31 37 49 70 73 95 100 84 93 100 85 81 94 100 95 91 89 91 91 86 77 75 66 60 61 62 63 59 56 47 52 66 55 52 54 32
10 12 7 5 4 4 4 5 6 7 10 20 30 39 49 78 98 99 90 96 97 95 99 94 92 92 97 90 83 86 92 90 75 50 45 34 34 36 36 41 46 48 56 50 44 41 28
10 9 4 4 4 3 3 3 4 5 6 10 17 37 44 69 78 86 100 100 99 100 100 98 91 96 95 97 96 100 94 83 46 30 24 26 34 35 40 36 35 34 37 32 32 30 34
10 6 4 3 2 2 2 2 2 3 5 6 11 19 51 59 52 82 86 100 100 100 100 96 98 100 94 92 100 93 70 44 30 40 45 39 36 37 34 32 34 34 29 41 35 27 28
9 4 3 3 2 2 2 2 2 2 4 6 8 14 29 27 54 92 95 93 100 90 94 99 100 96 89 100 95 68 53 46 40 30 28 25 21 18 16 14 13 11 11 9 9 11 11
9 4 3 2 2 2 2 2 2 2 3 4 6 8 8 30 43 78 95 100 95 88 92 99 100 100 100 91 73 66 49 35 29 23 14 10 8 6 6 4 4 5 6 7 8 8 8
9 4 3 2 2 2 2 2 2 3 3 4 7 9 11 8 22 82 100 100 79 81 92 100 100 100 94 80 68 47 44 43 35 18 20 15 9 8 8 6 4 3 3 6 8 9 11
8 4 3 2 2 2 2 3 3 3 4 6 8 11 13 11 15 66 99 78 78 92 92 100 100 98 86 73 59 54 68 44 44 51 38 31 22 18 17 8 9 6 5 4 8 9 14
8 4 3 2 2 2 3 3 3 4 5 8 9 9 7 12 22 25 30 51 66 77 97 100 100 84 79 64 72 82 100 99 100 94 86 77 35 34 43 58 63 24 11 12 21 24 37
7 5 3 2 2 2 3 4 4 5 6 7 9 12 19 36 38 34 34 47 52 79 100 100 86 100 91 82 97 100 99 100 100 100 100 100 100 100 100 100 100 97 59 26 41 63 100
7 5 3 2 2 2 4 5 5 5 5 7 14 20 19 17 16 22 36 49 69 98 100 89 81 100 97 88 90 96 99 100 100 100 100 100 100 100 100 100 100 100 100 100 100 100 100
7 5 4 3 3 2 4 4 5 5 7 10 18 18 16 17 27 34 44 56 78 92 95 83 93 99 100 97 93 88 74 98 100 100 100 100 100 100 100 100 99 100 100 100 100 100 100
7 5 5 3 3 3 4 5 6 8 9 11 13 14 19 23 36 37 56 79 87 90 69 98 100 100 100 96 95 86 72 77 100 100 100 100 100 100 100 100 100 100 100 100 100 100 100
7 6 4 4 3 3 5 5 8 10 16 15 14 16 21 33 39 60 86 91 87 72 85 95 100 99 100 93 100 100 80 75 100 100 100 100 100 100 100 100 100 100 99 100 100 97 100
7 6 4 3 4 3 5 6 8 11 18 15 17 22 31 47 61 84 95 86 74 82 78 92 99 83 86 100 100 100 93 78 88 98 100 100 100 100 100 100 100 100 100 100 100 100 87
6 6 4 3 3 3 5 6 9 12 15 17 17 24 36 52 84 99 94 72 90 94 76 73 99 95 79 100 100 100 100 93 82 73 85 97 92 86 100 100 100 100 100 99 100 95 78
6 6 4 3 4 4 5 7 10 11 14 16 20 26 37 64 95 93 79 90 96 95 94 85 91 100 98 88 100 100 100 100 100 92 78 76 87 86 83 93 88 98 100 97 85 67 56
6 6 4 3 4 4 5 7 11 12 13 16 20 24 41 77 84 79 87 94 99 88 93 95 100 100 100 95 98 88 70 73 94 99 92 94 79 89 86 82 83 78 78 69 58 66 57

GFSGBSN_250_rhum_012.txt.gz
RH
7 8 8 8 9 10 10 11 12 13 13 12 12 14 18 31 37 42 61 100 100 100 99 85 81 81 91 100 100 100 100 85 83 82 84 84 69 40 38 40 42 37 32 31 38 36 27
8 7 8 7 8 9 11 12 12 14 14 13 13 16 22 32 41 51 78 100 98 99 91 78 76 78 90 100 100 100 100 100 75 78 89 97 82 60 46 43 38 39 40 41 34 41 37
10 9 7 7 8 12 13 14 15 15 17 16 17 19 29 41 72 86 96 100 99 89 75 76 86 100 100 100 100 100 100 100 94 71 100 100 100 75 54 52 50 42 41 42 46 42 35
9 9 9 11 13 18 21 18 22 22 22 23 22 25 38 61 95 100 94 86 76 71 72 72 81 99 100 100 100 100 100 100 100 79 100 100 100 99 70 70 64 55 42 40 45 41 38
10 10 9 16 24 31 28 31 30 34 33 32 31 34 46 72 100 100 86 77 39 22 20 28 70 98 100 100 100 100 100 100 100 90 94 94 100 100 98 87 80 64 46 39 36 39 38
11 11 11 13 22 28 40 34 36 41 48 56 46 40 55 74 100 100 88 73 29 16 17 46 98 100 100 100 100 100 100 100 100 100 98 100 100 100 99 93 94 84 54 47 46 47 43
11 11 14 28 41 49 36 37 45 38 53 59 67 58 53 79 98 100 100 77 31 20 33 73 100 100 100 100 100 100 100 100 100 100 99 100 100 100 100 100 85 68 67 61 57 53 51
10 11 12 24 35 38 45 50 34 40 39 58 63 76 72 64 77 100 100 99 54 30 52 72 100 100 100 100 100 100 100 100 100 100 100 100 100 100 99 99 92 83 67 53 52 53 49
10 10 10 13 26 30 28 28 33 37 31 36 53 73 80 77 73 95 100 100 82 43 46 82 100 100 100 100 100 100 100 100 100 100 100 82 86 91 84 89 70 87 87 78 64 56 48
8 9 9 12 18 18 10 8 9 17 24 28 34 49 82 81 75 84 100 100 96 86 44 56 87 93 91 88 85 77 76 87 84 86 85 72 81 72 59 52 76 80 84 79 85 72 58
8 8 7 10 13 7 6 5 5 6 8 16 24 32 50 71 66 98 96 99 100 99 82 57 53 83 92 96 99 95 86 87 79 79 86 83 78 66 52 73 63 64 77 84 87 70 67
7 8 6 10 8 5 4 4 4 4 6 7 10 26 33 46 68 89 83 80 100 93 91 97 84 76 76 75 78 86 82 78 85 79 75 75 64 62 69 75 62 58 61 56 55 55 39
7 7 6 8 5 4 3 2 2 2 3 4 7 13 27 38 50 96 89 95 92 89 100 100 100 100 97 97 98 98 99 98 95 94 96 93 94 81 76 73 60 51 43 34 30 28 19
6 7 5 8 4 3 2 2 2 2 2 3 5 8 16 34 45 78 92 79 86 100 100 100 100 100 100 100 100 100 100 100 100 95 93 77 67 60 51 40 24 19 20 18 19 18 17
6 7 6 8 4 2 2 2 2 2 2 3 4 6 12 30 41 73 86 88 96 100 100 100 100 100 100 100 100 100 100 100 94 87 68 48 38 28 30 31 30 26 24 33 20 20 17
6 7 6 8 4 2 2 1 2 2 3 3 4 6 9 19 42 53 77 93 100 100 100 100 100 100 100 100 100 100 99 91 80 62 51 38 22 25 21 20 19 17 16 16 15 13 13
6 7 6 7 4 2 2 2 2 2 3 3 4 6 9 18 40 45 76 100 100 100 100 100 100 100 100 100 100 100 98 80 59 50 45 41 26 17 11 8 7 6 5 5 6 4 6
6 6 7 8 4 2 2 2 2 3 3 3 4 6 8 12 24 37 96 96 93 100 95 100 100 100 100 100 100 100 70 53 56 61 65 85 73 44 26 13 7 4 2 2 3 3 4
7 6 6 8 4 2 2 3 3 3 4 3 4 6 9 11 26 43 64 81 94 98 100 100 100 100 100 100 100 72 58 62 80 100 100 100 100 80 53 36 24 13 5 4 3 3 5
8 6 6 8 4 2 2 3 3 3 4 4 4 6 8 10 13 22 49 83 83 97 100 99 100 100 100 100 85 65 63 95 100 100 99 100 98 91 74 58 29 12 9 8 7 6 6
9 7 6 8 4 2 2 3 3 3 4 4 6 8 12 14 14 20 42 71 82 97 98 100 100 100 100 96 72 62 83 100 100 100 100 100 100 96 100 100 92 50 56 39 18 12 11
10 8 6 8 4 3 2 3 4 5 4 4 6 10 16 18 21 36 45 58 72 100 95 100 100 100 100 74 78 75 100 100 100 100 100 100 100 100 100 100 100 100 100 87 41 28 22
11 9 6 8 4 3 3 4 5 6 7 6 7 10 10 14 19 25 34 46 72 91 97 100 100 100 83 67 76 78 100 96 91 87 100 100 98 100 100 100 100 100 100 95 96 83 97
11 9 9 8 4 3 3 4 7 8 9 9 9 11 14 22 20 17 20 26 33 46 73 95 100 92 75 88 80 86 88 75 98 100 100 100 100 100 100 100 100 100 100 100 100 97 98
12 10 11 10 5 3 4 4 7 10 11 10 9 13 18 17 16 25 34 33 35 51 79 88 89 87 76 92 87 84 81 77 92 100 100 100 100 100 84 96 100 100 100 100 100 100 100
12 10 12 11 5 3 4 4 6 9 11 13 14 16 17 26 25 31 35 43 45 57 66 78 89 82 87 97 87 96 86 72 83 100 100 100 100 99 100 99 100 100 100 83 85 96 92
12 10 12 12 6 4 4 5 7 10 13 14 18 23 28 31 32 37 43 50 56 69 80 76 68 83 93 97 100 98 100 87 80 78 100 100 100 99 100 100 97 100 100 100 86 94 100
12 10 12 12 6 4 5 5 6 9 13 16 20 23 24 31 33 44 45 58 77 78 77 72 80 96 100 100 99 97 100 99 88 75 75 73 86 100 100 100 100 96 100 96 100 97 98
12 9 14 10 6 4 5 5 6 9 12 18 18 26 26 32 39 49 61 71 73 77 95 92 96 99 99 90 82 83 85 100 100 92 91 79 74 82 91 93 100 100 100 100 98 100 94

GFSGBSN_250_rhum_015.txt.gz
RH
7 7 6 7 7 7 9 11 14 16 16 16 16 19 27 39 47 34 29 27 22 31 43 71 99 85 97 98 97 99 100 100 100 100 88 73 54 59 60 53 57 49 45 42 46 40 32
7 8 9 9 8 7 10 14 18 22 20 20 17 16 17 21 20 25 21 20 18 25 32 54 99 100 100 100 90 87 92 100 100 100 100 99 99 85 71 73 66 74 44 43 44 44 40
7 8 10 10 10 13 14 21 23 28 28 28 23 19 17 16 15 14 16 19 20 33 40 55 100 100 100 99 99 100 97 93 96 100 100 97 86 92 83 66 71 75 78 55 46 44 45
7 9 10 11 11 16 25 27 30 33 35 41 32 26 21 18 16 15 16 18 26 39 47 65 100 100 100 100 100 100 97 94 100 100 100 99 96 88 94 74 72 97 100 79 57 48 39
8 9 11 11 10 13 20 30 37 37 38 43 49 44 30 22 22 19 19 23 40 47 55 79 100 100 100 100 100 100 100 100 100 100 100 100 100 89 80 78 64 100 100 83 74 64 53
7 10 11 12 11 14 20 30 40 44 42 37 46 56 52 40 27 24 24 36 52 73 94 100 100 100 100 100 100 100 100 100 100 100 100 100 98 96 96 98 73 100 100 100 100 86 75
7 8 11 13 12 15 22 29 30 29 35 36 36 46 51 55 39 35 34 53 85 100 100 100 99 91 94 100 100 100 100 100 100 100 100 100 100 100 97 98 92 85 100 100 100 98 90
8 7 10 12 9 11 19 20 11 8 10 16 24 35 45 53 50 39 49 71 98 96 100 91 99 88 57 68 95 100 100 100 100 100 100 100 100 100 100 99 95 87 76 99 100 98 73
6 7 9 10 8 11 12 8 6 5 6 6 9 24 35 40 47 42 82 83 87 99 95 93 80 31 20 24 40 71 94 100 100 100 100 100 100 100 97 97 99 96 79 78 78 93 85
6 6 7 9 7 10 8 5 4 4 4 4 6 8 30 34 44 47 67 93 94 91 91 88 60 27 21 24 40 71 100 100 100 100 100 100 100 100 100 100 100 98 90 68 65 68 69
6 5 6 8 6 8 5 4 3 2 2 3 4 6 16 37 38 45 74 98 92 100 87 81 62 46 42 37 91 86 94 100 100 100 100 100 99 90 92 99 76 57 54 52 49 48 48
6 5 6 7 5 6 4 3 2 2 2 2 3 4 8 31 36 44 74 78 84 76 92 87 71 55 54 67 100 89 91 82 86 96 92 82 72 84 84 72 60 58 55 50 51 45 30
6 5 6 6 5 5 3 2 2 2 2 2 2 4 8 19 37 48 71 58 59 77 100 100 98 92 66 75 96 94 90 96 97 93 91 93 97 89 82 76 71 62 60 54 47 41 34
6 5 6 6 6 4 3 2 2 2 2 2 2 3 7 14 34 43 54 51 55 100 100 100 100 96 91 81 82 89 100 100 100 97 93 100 100 88 83 74 70 69 58 57 42 36 30
6 5 6 6 6 4 3 2 2 2 2 2 2 3 6 10 29 38 44 53 86 100 100 100 100 100 93 100 100 100 100 100 100 100 98 100 100 100 94 74 56 46 40 32 23 17 15
7 5 5 7 6 4 3 2 2 3 2 2 2 3 6 10 19 35 45 62 100 100 100 100 100 100 100 100 100 100 100 100 100 100 100 100 84 71 56 46 35 28 20 10 10 9 8
7 5 5 7 7 4 3 2 2 3 3 2 3 3 7 10 16 29 46 76 99 99 99 100 100 100 100 100 100 100 100 100 100 100 95 79 61 54 48 35 36 20 11 5 4 5 4
6 5 5 7 7 4 3 2 3 3 3 3 3 3 6 9 12 31 49 98 88 100 98 100 100 100 100 100 100 100 100 100 100 91 74 65 60 56 60 77 60 46 19 5 4 3 2
6 6 4 7 7 5 3 2 3 3 3 3 3 4 6 9 10 29 58 80 96 100 100 100 100 100 100 100 100 100 100 100 94 74 67 73 77 81 70 51 50 42 22 14 7 6 2
7 6 4 7 7 7 3 3 3 4 3 3 4 5 7 10 15 35 58 77 93 100 100 100 100 100 100 100 100 100 100 94 74 88 90 93 80 62 45 52 60 34 18 13 9 5 4
8 6 5 7 7 9 4 3 3 3 4 3 4 6 8 12 15 27 43 63 93 100 100 100 100 100 100 100 100 100 97 74 84 89 88 85 67 79 66 78 92 84 69 40 14 12 8
8 7 5 8 8 10 5 3 4 4 4 4 4 6 9 10 14 24 41 65 99 100 100 100 100 100 100 100 100 95 82 79 92 95 85 82 100 89 100 92 100 100 86 73 52 34 16
9 8 6 7 9 11 6 3 4 4 5 6 6 8 11 13 16 24 35 60 91 100 100 100 100 100 100 100 99 88 75 85 94 90 66 85 98 95 91 100 100 100 100 97 84 69 61
9 10 7 7 10 12 6 4 4 5 6 7 7 8 11 12 18 25 35 51 82 99 99 100 100 100 100 100 93 83 76 80 80 87 70 94 93 100 100 100 100 100 100 100 88 93 84
10 10 9 8 10 14 6 4 4 6 7 9 9 8 10 12 15 20 28 40 64 90 94 99 100 100 100 98 87 69 70 86 88 72 73 98 99 100 100 100 100 100 100 100 100 100 100
10 11 11 9 10 15 6 5 5 5 8 9 11 12 12 14 16 20 26 32 44 67 84 86 98 100 96 87 76 75 76 81 85 72 68 99 100 100 94 100 100 93 90 95 100 100 100
11 12 11 10 11 18 7 5 6 6 8 10 12 14 15 17 18 20 20 26 37 47 59 79 100 100 91 77 69 71 81 91 85 75 81 84 84 95 100 100 100 100 100 100 100 98 100
12 14 12 10 10 20 8 6 6 6 7 10 13 15 16 16 18 21 24 27 29 35 52 74 92 87 79 71 82 70 84 84 99 79 81 78 91 91 95 100 100 100 99 100 100 100 100
12 15 14 12 10 20 10 6 7 7 8 11 14 17 19 19 21 26 35 43 39 44 54 64 70 63 67 79 82 76 98 94 100 93 87 93 91 82 82 88 100 100 100 100 100 100 100

GFSGBSN_250_rhum_018.txt.gz
RH
8 9 8 8 9 11 8 8 9 9 10 12 14 16 15 14 18 21 24 42 58 79 100 88 84 71 78 96 93 86 76 97 100 100 100 95 98 87 67 61 58 66 63 53 52 61 50
9 8 8 8 10 11 11 11 11 13 19 21 21 20 23 20 19 20 30 45 50 80 83 78 86 79 85 99 99 95 90 90 93 100 100 100 100 98 87 83 71 63 56 61 60 66 78
9 8 8 8 9 12 12 13 16 20 21 24 35 42 36 33 24 22 27 42 58 62 59 87 100 96 92 82 100 100 96 99 92 99 100 100 100 100 100 96 84 67 70 58 58 66 83
8 8 8 8 9 10 11 13 17 24 26 28 32 37 50 47 42 28 20 25 33 48 56 61 59 59 59 57 81 100 100 96 100 96 99 100 100 100 100 100 99 82 81 85 82 65 62
8 9 8 8 10 10 11 12 14 22 29 30 32 36 46 46 45 33 26 21 21 27 36 59 57 58 37 30 61 90 100 100 100 100 100 100 96 100 100 100 100 93 69 59 81 83 63
10 8 8 8 8 11 11 13 20 26 25 28 28 25 32 46 46 38 33 24 20 19 20 29 42 41 30 32 58 83 100 100 100 100 100 100 98 96 98 91 90 86 79 74 66 92 90
10 8 8 8 7 9 10 11 14 15 14 10 8 10 13 30 42 42 36 23 23 20 26 29 20 23 28 41 62 87 100 100 100 100 100 100 100 100 98 91 88 90 91 84 87 77 79
10 8 8 7 7 8 8 9 10 6 5 5 5 5 7 10 30 36 31 31 30 22 23 20 20 28 52 61 75 96 100 100 100 100 100 100 100 100 100 100 95 92 94 82 85 88 68
9 8 8 7 6 7 6 7 4 4 3 3 3 3 4 6 16 30 33 68 42 31 31 35 45 58 69 77 89 100 100 100 100 100 100 94 100 100 100 100 100 94 94 89 72 77 81
9 8 7 7 6 6 6 5 3 2 2 2 2 2 3 6 10 23 39 86 59 36 39 57 69 81 94 100 99 100 100 100 100 100 100 100 100 100 100 100 100 94 79 81 85 83 86
9 8 7 6 5 5 6 4 2 2 1 1 2 2 2 5 8 23 43 79 60 39 47 63 83 99 97 94 100 100 100 100 100 100 100 100 100 100 100 100 83 84 98 100 93 92 76
8 8 7 6 5 6 5 2 2 1 2 1 1 2 2 5 8 25 49 66 57 35 53 75 94 96 100 99 91 80 69 61 71 89 97 98 100 100 100 93 94 88 86 84 84 72 45
8 7 7 6 5 5 5 2 2 2 2 2 2 2 3 5 8 23 43 56 38 38 63 88 100 100 100 88 58 35 29 41 40 41 57 58 80 87 88 84 78 69 66 54 51 55 55
8 7 6 6 5 5 5 2 1 2 2 2 2 2 3 5 10 19 34 36 33 66 75 100 100 100 99 72 43 43 51 54 72 65 63 58 65 76 90 81 76 73 69 68 53 50 49
8 7 5 6 6 6 5 2 2 2 2 2 2 2 3 5 10 23 33 27 61 79 93 100 100 100 94 62 46 51 80 78 71 80 90 100 100 96 93 90 81 85 78 61 48 44 33
9 8 5 5 6 6 4 2 2 3 2 2 2 2 3 5 10 22 31 42 87 83 91 99 97 91 85 69 62 62 76 91 93 94 97 99 97 100 85 87 95 73 58 53 43 30 22
9 8 5 5 5 6 4 2 2 3 2 3 2 3 3 6 9 26 40 47 86 82 88 97 100 94 80 90 99 99 100 98 100 100 100 100 99 100 87 67 66 59 48 45 33 18 10
10 8 6 5 5 6 4 2 2 3 3 3 2 3 4 6 9 26 48 57 79 87 94 100 99 95 87 100 100 96 89 100 94 100 100 100 90 72 66 55 57 58 67 55 31 16 8
10 8 6 5 5 6 5 2 2 3 3 3 3 3 5 8 11 35 54 64 89 91 100 96 91 99 100 100 100 99 98 98 100 100 98 80 76 63 74 73 69 63 49 26 20 15 8
10 8 6 6 6 7 6 2 2 3 4 3 3 5 7 11 18 40 62 64 90 97 100 100 100 100 100 100 100 100 100 100 100 99 86 74 61 83 69 60 69 74 71 65 25 16 12
10 9 6 6 6 8 7 3 3 4 4 4 4 5 8 11 18 43 61 90 94 94 99 100 98 100 100 100 100 100 100 100 99 90 70 78 84 76 58 69 78 85 91 88 62 24 14
10 9 6 6 7 8 9 4 3 4 5 5 5 6 9 12 19 39 64 94 89 98 100 100 100 100 100 100 100 100 100 100 85 77 89 92 78 66 100 85 81 100 100 95 85 73 26
10 10 7 6 7 7 10 5 4 5 7 6 7 7 9 11 20 33 58 80 90 100 100 100 100 100 100 100 100 100 100 88 72 82 99 86 72 69 99 94 87 92 100 100 100 94 79
9 10 9 7 7 8 9 6 4 4 7 8 8 9 11 12 18 31 52 70 84 100 100 100 100 100 100 100 100 98 94 69 70 80 90 79 68 100 100 100 100 85 100 100 98 100 96
10 10 11 10 8 9 9 11 5 5 6 10 10 12 11 13 17 26 46 61 76 100 100 100 100 100 100 100 98 95 82 69 64 80 91 80 76 100 90 95 85 100 100 100 100 98 93
10 11 12 13 10 10 10 16 6 6 6 7 11 12 14 13 16 21 31 48 68 94 100 100 100 100 100 100 100 84 73 64 65 87 95 64 60 94 100 90 100 100 100 100 100 100 100
10 12 12 17 13 10 11 16 10 7 7 7 13 14 15 16 15 16 24 42 58 82 99 100 100 100 100 100 96 88 73 65 61 85 90 68 66 68 100 100 97 100 100 100 100 100 100
10 14 11 20 15 14 13 19 20 8 8 8 11 14 16 17 17 18 20 29 45 61 91 100 100 100 100 100 85 84 74 71 69 89 100 75 76 76 88 98 100 96 99 84 99 100 100
10 14 12 20 16 13 14 16 29 10 8 9 10 16 16 18 23 20 22 26 34 53 85 99 100 100 100 91 83 80 75 70 70 89 98 85 82 82 81 99 100 99 98 100 100 81 100

GFSGBSN_250_rhum_021.txt.gz
RH
11 10 9 8 9 8 8 9 10 10 9 8 9 10 13 15 18 19 28 77 93 91 85 87 100 98 97 97 86 86 74 84 96 100 100 100 100 100 100 100 100 82 71 85 77 75 70
11 12 9 8 9 8 9 10 11 11 12 11 10 13 14 17 20 19 19 20 41 48 78 80 98 100 100 99 96 99 95 84 83 97 100 100 100 100 100 100 100 94 76 72 76 80 73
11 12 11 9 9 8 8 9 11 12 12 18 18 18 20 23 22 22 20 19 19 27 49 52 81 100 100 100 100 100 100 99 91 76 78 89 100 100 100 100 100 95 82 66 69 65 69
10 12 11 9 10 9 9 9 11 12 13 14 21 27 25 24 28 28 30 24 19 17 22 29 40 89 100 100 100 100 100 100 99 92 94 84 85 100 100 100 100 94 82 77 75 68 65
10 12 11 9 9 8 8 8 11 12 16 18 18 21 29 30 29 34 38 39 29 24 21 21 35 74 99 100 100 100 94 98 98 100 97 100 98 89 100 100 100 100 98 86 87 92 67
10 12 11 8 9 8 7 7 9 10 12 14 16 10 13 26 36 35 42 52 49 31 23 20 27 51 77 100 100 100 100 96 91 99 100 100 100 99 96 100 100 100 100 100 100 100 98
10 12 11 9 9 7 5 6 6 7 6 4 4 4 4 9 17 36 47 50 44 28 32 28 36 49 84 97 100 100 85 88 98 96 100 100 100 100 96 94 99 100 100 100 100 100 96
11 12 10 9 8 6 5 5 5 6 4 2 2 2 3 4 6 14 36 57 49 75 75 32 27 26 64 70 84 95 83 77 84 94 92 100 100 100 100 100 100 100 96 91 90 89 80
11 12 10 8 8 6 5 4 5 5 2 2 2 2 2 3 4 6 17 44 61 74 68 62 28 20 25 38 64 74 77 81 75 72 58 79 100 100 100 100 100 98 91 90 84 83 85
13 12 10 9 8 6 5 4 5 3 2 2 2 2 2 2 3 5 9 29 56 66 73 62 39 24 22 24 33 35 42 49 50 50 46 84 100 100 100 100 100 100 100 96 87 84 86
14 11 9 9 7 6 4 5 5 2 2 2 2 2 2 2 3 5 8 19 49 64 69 64 31 25 21 20 24 24 28 34 40 52 71 100 100 100 100 100 100 100 96 92 89 85 80
14 11 9 8 7 5 4 5 4 2 2 2 2 2 2 2 3 5 8 16 41 51 48 55 34 30 33 38 36 53 64 71 81 86 90 100 100 100 100 100 100 100 98 100 93 92 85
14 11 8 8 6 5 4 5 3 2 2 2 2 2 2 2 3 5 9 19 40 32 52 48 39 49 64 85 91 96 100 100 91 95 97 97 100 100 100 100 100 100 100 99 92 88 87
13 10 8 8 6 4 4 4 2 2 2 2 2 2 2 2 3 5 10 19 28 38 60 57 52 64 89 97 99 100 100 100 100 100 100 95 99 97 100 100 100 100 100 100 78 82 76
13 10 8 7 6 4 4 5 2 2 2 2 2 2 2 3 4 7 9 19 29 70 83 71 63 87 98 100 100 100 100 95 93 90 85 87 93 99 99 99 98 96 81 53 41 46 43
12 10 8 7 6 4 4 4 2 2 2 2 2 2 3 3 5 8 9 16 52 79 72 71 86 96 100 100 99 100 94 79 59 46 35 41 51 58 60 57 46 51 68 75 85 70 54
12 10 8 8 6 5 4 5 2 2 2 2 2 2 3 4 7 9 21 52 78 75 68 80 97 100 95 93 87 90 62 46 54 60 69 71 79 88 61 69 89 94 83 73 72 64 54
11 8 8 8 6 5 5 5 2 2 3 2 2 2 4 5 8 16 38 53 72 82 82 88 98 100 99 99 96 64 50 65 75 79 85 89 89 87 90 97 76 79 67 56 52 62 56
10 9 9 8 6 6 6 7 3 2 3 3 3 3 5 6 9 24 44 65 81 77 74 90 99 98 100 100 96 81 77 72 78 92 97 94 93 98 94 82 72 70 72 78 69 64 51
10 9 9 8 7 6 7 9 3 3 4 4 4 4 8 9 18 35 64 64 72 81 88 96 94 99 100 100 96 88 74 79 87 91 99 96 90 87 77 73 71 88 97 100 79 77 72
10 9 10 8 7 7 8 10 4 3 5 5 5 6 7 12 27 49 56 61 75 96 94 94 94 100 100 100 94 84 79 85 83 96 95 85 89 85 75 66 74 100 98 100 100 100 74
11 10 10 8 7 7 10 11 5 4 5 6 6 9 10 13 28 52 62 58 95 96 97 98 93 91 96 93 92 86 91 90 88 92 79 77 92 77 67 67 69 100 100 100 100 100 99
12 11 10 9 6 6 11 11 8 5 6 9 10 8 12 15 28 51 61 78 90 97 97 96 97 96 97 100 100 100 95 87 94 82 73 83 82 81 81 82 66 88 100 100 98 100 97
14 12 10 10 7 6 8 12 16 6 7 10 11 12 13 15 25 50 70 92 96 100 100 98 98 100 100 100 100 96 88 92 87 81 75 87 94 63 89 100 81 100 100 99 100 86 96
14 13 11 10 10 7 8 11 18 10 8 9 12 15 15 17 27 47 72 82 89 100 100 100 97 99 100 97 94 92 92 89 88 81 83 94 98 81 75 68 98 100 100 100 100 100 100
15 14 12 11 10 10 10 11 12 25 8 10 13 14 17 17 21 43 61 75 83 100 100 100 92 100 98 96 94 89 89 87 83 78 78 98 86 75 90 88 100 99 100 100 100 100 100
15 14 12 12 12 14 12 14 13 18 19 10 11 16 16 19 19 27 49 58 84 99 99 99 96 100 89 98 90 86 85 85 70 80 80 88 72 65 69 75 75 76 94 100 100 100 100
15 14 13 13 13 19 16 16 15 14 28 12 12 12 17 20 21 20 33 58 73 90 100 100 100 100 96 92 90 87 83 82 76 86 74 88 79 71 69 84 78 92 85 81 100 97 100
15 13 12 14 13 20 21 20 17 15 22 26 11 13 15 18 21 22 22 31 60 74 95 100 100 100 97 93 98 89 80 83 81 88 92 92 95 83 72 85 99 100 100 99 100 99 94

GFSGBSN_250_rhum_024.txt.gz
RH
10 11 11 10 11 12 10 8 8 8 9 10 11 11 10 8 11 11 13 18 24 97 96 90 96 80 61 49 69 59 56 67 98 100 100 100 100 100 100 100 100 100 100 100 100 92 96
11 12 12 11 12 13 11 10 9 8 8 8 10 11 12 11 9 12 13 16 19 54 95 100 99 88 93 82 76 84 68 65 71 87 100 100 100 100 100 100 100 100 100 100 100 100 94
12 12 13 12 13 12 10 9 8 9 10 10 10 11 13 15 12 11 14 16 18 26 42 100 92 100 96 99 100 97 84 79 72 65 67 96 100 100 100 100 100 100 100 100 100 100 86
12 12 13 12 14 12 10 8 7 6 8 9 10 11 12 16 17 14 12 20 23 24 38 62 59 93 100 93 99 100 93 98 92 88 71 66 81 100 100 100 100 100 100 100 100 100 100
12 13 13 13 14 12 9 7 6 5 5 6 8 10 10 9 13 17 15 15 27 29 30 39 62 75 91 89 100 100 100 100 100 98 86 76 78 87 99 100 100 100 100 100 100 100 100
13 13 12 12 14 13 8 6 5 4 4 5 5 5 4 4 4 14 16 17 24 27 28 24 21 26 56 100 97 100 100 98 100 100 100 98 88 86 84 92 100 100 100 100 100 100 100
14 13 12 13 14 12 7 6 4 4 4 4 2 2 2 2 2 3 15 21 18 21 22 30 40 24 25 83 100 90 100 100 94 100 100 100 100 100 92 86 87 88 83 80 91 97 99
14 14 12 13 14 10 7 5 4 4 4 2 2 2 2 2 2 2 5 18 24 30 38 42 45 34 26 29 58 92 81 100 100 100 100 100 100 98 92 98 95 87 86 86 78 82 81
14 14 12 12 12 9 6 4 3 3 4 2 1 2 2 3 3 3 4 11 26 33 40 46 47 43 38 27 35 46 62 87 100 100 100 99 98 90 95 98 97 98 99 94 87 81 82
14 14 12 12 12 8 6 4 3 3 2 1 2 2 2 2 3 3 4 7 28 35 57 61 46 63 54 46 42 39 44 72 98 100 100 100 100 100 95 99 98 100 100 100 96 88 79
15 14 13 12 10 7 6 4 3 4 2 1 2 2 2 2 3 2 3 5 17 44 61 69 58 68 50 55 40 42 52 66 94 100 100 100 100 90 92 90 88 96 93 96 97 90 88
16 15 13 12 9 6 5 4 4 4 1 2 2 2 2 2 2 2 3 4 9 44 68 67 67 80 62 64 44 40 44 67 91 90 92 100 100 99 90 88 73 68 74 86 86 90 86
16 15 14 12 8 6 5 4 4 3 1 2 2 2 2 2 2 2 3 4 8 24 35 83 72 65 67 62 38 31 43 57 68 77 78 87 93 88 79 65 46 41 53 78 80 85 94
16 16 14 11 8 6 5 4 3 2 2 2 2 2 2 2 2 2 3 5 8 12 57 75 68 56 69 56 31 26 29 36 54 62 57 60 48 50 49 54 61 74 92 93 83 95 100
17 16 14 10 7 7 5 4 4 2 2 2 2 2 2 2 3 3 4 8 9 33 70 72 62 71 80 36 34 33 32 28 41 53 52 58 80 77 86 92 92 99 93 99 97 84 71
16 17 14 9 7 7 6 4 4 2 2 2 2 2 2 2 3 4 6 10 18 41 67 67 77 97 73 47 63 79 82 88 93 92 95 100 100 96 97 89 89 99 100 94 96 98 100
16 17 12 9 8 7 6 4 4 2 2 3 3 2 2 3 5 6 9 12 30 51 61 78 93 82 59 84 90 91 99 100 100 100 100 98 100 100 99 99 99 94 87 80 75 71 72
17 16 12 9 8 8 8 5 5 3 3 3 4 3 4 5 7 10 13 19 41 54 74 92 91 87 99 98 95 100 100 95 90 85 84 74 67 61 52 57 83 94 95 100 80 59 52
17 14 11 9 9 9 9 5 5 4 3 4 6 4 5 7 10 12 22 44 66 87 96 82 81 92 99 98 100 100 94 81 70 53 49 52 49 76 87 92 100 90 67 65 64 62 88
16 13 11 9 8 9 9 6 6 5 4 4 8 6 6 9 12 24 38 55 78 84 79 74 94 100 100 97 96 86 81 52 50 57 68 81 92 89 94 96 81 74 69 67 71 90 98
16 13 10 10 9 9 9 8 6 7 4 5 8 8 9 15 20 34 43 58 69 76 86 94 98 100 100 100 97 90 76 69 71 76 79 81 90 95 94 82 76 77 86 77 82 95 100
14 13 12 10 10 9 8 10 7 9 5 8 9 13 12 22 32 40 52 71 89 90 97 99 100 100 100 100 99 96 78 74 70 69 75 94 86 95 79 68 68 99 96 99 100 100 100
13 12 13 12 11 10 9 8 11 12 8 11 11 17 16 23 45 54 68 95 94 87 94 100 100 100 100 99 98 90 82 76 73 68 80 94 80 76 72 65 73 100 100 100 88 91 100
12 13 13 12 13 11 11 8 10 14 18 8 16 15 21 27 55 68 84 94 91 94 99 100 100 100 100 100 99 92 79 75 76 75 75 90 95 71 81 66 85 100 100 100 78 99 99
13 13 14 13 16 13 12 11 8 11 22 20 12 19 20 27 37 60 84 93 89 95 100 100 100 100 100 100 94 92 76 77 75 72 83 97 75 67 99 71 84 100 100 100 100 82 79
13 14 15 13 17 16 14 12 10 10 13 28 16 15 21 22 36 50 72 88 92 92 100 100 100 100 100 98 90 86 80 79 74 74 91 89 93 76 73 54 88 100 100 100 100 100 88
14 14 16 15 16 17 15 14 13 12 12 14 29 16 20 23 26 34 62 89 91 97 87 95 100 100 100 98 96 93 90 83 77 90 80 98 94 94 94 81 98 69 80 94 100 100 98
14 14 15 17 14 18 18 17 14 14 13 14 18 39 18 20 25 27 32 52 76 87 91 92 94 98 100 96 95 91 91 79 84 90 82 83 72 95 100 90 69 69 80 93 96 100 91
13 14 15 17 14 16 18 18 14 16 14 14 15 19 37 16 20 26 24 32 50 79 89 98 94 96 96 90 93 92 83 79 85 87 89 75 73 80 76 68 77 91 100 100 99 99 87

GFSGBSN_250_rhum_027.txt.gz
RH
13 13 11 14 12 12 12 11 10 10 9 8 7 6 6 9 8 8 8 9 10 12 14 19 37 44 56 85 75 80 48 65 100 100 100 100 100 100 100 100 100 100 100 100 100 100 100
16 13 12 13 11 11 11 10 8 8 7 7 7 7 6 7 9 8 9 9 10 10 13 15 31 48 51 72 76 85 81 55 55 86 100 100 100 100 100 100 100 100 100 100 100 100 100
14 14 14 12 10 11 10 10 6 7 6 5 5 7 8 7 7 9 9 9 10 11 12 15 23 42 66 96 98 100 100 89 68 46 82 100 100 100 100 100 100 100 100 100 100 100 100
14 14 14 11 10 10 9 8 5 6 5 4 4 5 5 5 4 5 8 10 12 12 12 13 19 41 100 82 100 97 100 88 88 85 60 76 99 100 100 100 100 100 100 100 100 100 100
13 14 16 11 10 10 8 8 5 5 4 3 4 4 2 2 2 2 4 8 12 14 13 14 15 22 65 100 100 100 99 100 91 91 88 64 53 83 100 100 100 100 100 100 100 100 100
12 15 16 12 11 9 7 6 4 4 3 3 3 2 2 2 2 2 2 5 10 15 15 14 13 18 44 100 100 100 100 98 97 98 94 91 72 60 69 100 100 100 100 100 100 100 100
14 14 15 11 10 8 7 6 4 4 3 3 2 2 2 2 2 3 3 4 8 14 16 17 21 21 33 61 100 100 100 100 100 100 100 86 90 89 78 70 85 99 100 100 100 100 100
14 16 13 11 10 8 6 5 4 4 2 3 2 2 2 2 2 3 3 3 5 8 16 19 28 19 24 27 76 85 100 100 100 100 100 100 90 100 90 83 66 65 73 85 91 99 100
16 14 13 11 10 8 6 4 4 4 3 2 2 2 2 2 2 2 3 3 5 6 18 27 36 33 31 26 71 97 100 100 100 96 96 100 99 90 92 96 94 87 81 69 69 81 94
16 14 12 12 9 8 6 4 4 3 3 2 2 2 2 2 2 2 3 4 4 6 20 25 38 42 34 33 35 69 79 91 100 98 98 100 100 100 100 96 97 93 92 86 79 72 74
16 14 13 12 9 8 6 5 4 3 3 2 2 2 1 1 2 2 3 3 4 8 18 27 49 42 48 50 40 36 50 73 100 100 100 100 100 100 100 96 94 100 100 93 74 69 74
16 15 13 12 9 8 6 5 4 3 4 2 2 2 1 1 2 2 3 3 4 7 13 22 47 52 58 71 61 45 37 32 36 57 100 100 100 100 100 100 97 100 85 66 61 63 77
18 16 13 13 9 9 6 5 4 3 4 2 2 2 2 2 2 2 3 3 4 4 13 49 66 73 77 73 76 79 60 35 40 49 81 98 98 92 100 100 100 96 87 76 66 69 68
19 17 14 14 9 9 6 5 5 3 4 2 2 2 2 2 2 2 3 4 4 6 26 60 75 77 73 64 77 80 61 41 39 49 73 90 94 84 100 91 100 100 94 80 70 69 70
19 18 16 14 10 9 6 6 5 4 5 2 2 2 2 2 2 2 3 3 6 19 45 69 75 73 69 77 76 73 68 48 38 55 63 58 70 90 94 95 87 83 72 68 70 73 56
20 18 17 14 11 10 7 6 6 4 5 2 2 3 3 3 3 3 4 6 8 32 56 77 93 87 79 74 82 69 48 37 43 40 49 64 62 66 65 64 69 77 79 71 68 76 91
20 19 18 15 12 10 8 7 6 4 5 2 3 3 4 4 5 5 7 9 14 50 84 89 91 75 66 78 65 40 31 29 30 37 55 67 67 55 46 54 69 81 91 86 97 100 87
20 20 18 15 12 10 8 7 6 5 5 3 3 4 5 6 6 6 8 11 18 48 70 80 76 70 87 80 46 34 37 45 51 61 76 91 89 75 87 96 100 100 100 100 99 92 88
20 19 18 15 13 10 9 8 8 6 5 4 4 5 7 9 7 8 9 14 24 41 59 64 72 91 80 98 95 99 96 96 100 100 94 95 98 100 100 99 94 95 99 93 81 66 59
20 18 17 15 13 10 9 9 9 8 6 6 4 7 10 16 13 15 18 28 40 46 56 74 97 99 97 96 98 99 100 100 100 96 95 87 80 80 85 97 97 94 84 75 73 73 76
19 17 16 15 14 12 9 10 10 10 8 8 5 10 19 24 29 32 35 40 59 72 95 100 100 100 100 100 100 97 97 89 80 68 54 72 95 93 100 94 89 81 86 68 68 70 94
19 17 16 14 14 12 10 9 12 12 11 14 9 12 25 33 37 49 71 93 96 97 95 98 100 100 97 94 93 90 78 54 50 68 87 91 80 94 92 84 76 86 69 82 72 100 100
18 16 15 14 14 13 12 10 12 13 14 13 13 10 20 43 44 56 82 95 100 98 96 100 100 95 93 97 93 83 70 70 73 74 73 73 84 83 77 72 87 79 98 79 96 93 100
17 16 14 15 14 13 14 12 12 11 15 17 17 13 13 32 53 63 71 73 88 92 96 98 98 98 100 98 97 92 83 80 76 71 76 84 94 74 71 69 86 100 99 90 94 100 97
16 15 14 15 14 13 14 14 13 11 12 18 21 20 13 15 32 69 96 76 74 95 94 100 100 93 98 100 100 99 87 84 85 77 86 83 77 67 69 68 94 100 100 100 100 100 100
15 14 15 15 14 14 15 15 15 12 12 12 18 23 23 14 18 37 71 100 92 83 92 92 94 95 97 100 100 97 91 88 82 76 88 94 66 64 70 68 80 100 100 77 97 100 100
14 15 15 16 14 15 16 15 15 14 13 13 12 17 23 24 18 20 41 84 88 85 80 93 89 92 96 99 100 100 88 86 80 81 82 97 78 76 73 83 84 94 100 76 94 100 100
14 14 16 16 14 16 15 14 14 14 15 15 14 15 17 25 28 18 20 40 94 94 79 72 79 81 88 97 99 100 95 84 84 84 87 98 85 78 83 84 95 100 81 80 99 100 87
13 14 16 16 14 16 17 15 14 14 14 16 16 16 15 16 25 31 16 20 35 86 100 96 79 75 81 85 89 94 98 94 90 86 90 98 79 64 79 99 95 100 82 74 72 72 68

GFSGBSN_250_rhum_030.txt.gz
RH
14 13 14 13 13 12 10 8 8 6 6 7 7 6 6 6 5 7 7 7 9 10 11 10 13 13 16 18 35 64 65 98 100 100 100 100 100 100 100 100 100 100 100 100 94 85 83
13 14 14 13 13 10 9 8 8 6 6 6 5 4 4 4 4 4 6 7 8 9 11 11 12 13 15 24 29 58 70 66 94 100 100 100 100 100 100 100 100 100 100 99 100 100 100
14 15 13 14 12 10 8 8 7 6 6 5 4 4 3 2 2 2 3 4 7 10 11 11 11 13 15 26 37 63 60 77 64 93 100 100 100 100 100 100 100 100 100 100 100 100 100
14 14 13 12 12 9 8 7 5 5 5 4 4 3 2 2 2 2 2 2 6 9 12 12 11 13 18 18 49 76 70 73 82 66 73 99 100 100 100 100 100 100 100 100 100 99 100
14 13 13 11 10 9 7 6 5 5 5 3 3 2 2 2 2 2 2 2 3 8 12 12 13 12 18 25 55 71 80 91 95 95 74 55 86 100 100 100 100 100 100 100 100 100 100
14 15 13 10 9 8 7 6 5 4 5 3 2 2 2 2 2 2 2 3 2 6 12 13 13 15 17 32 40 79 80 96 100 100 100 88 63 78 100 100 100 100 100 100 100 100 100
13 14 12 10 8 8 6 6 4 4 4 3 2 2 2 2 1 2 2 3 2 3 9 13 14 19 16 24 26 68 86 94 100 100 100 98 86 63 60 92 100 100 100 100 100 100 100
14 14 11 8 8 7 6 6 5 4 4 3 2 2 2 2 1 2 2 3 3 3 7 17 18 22 20 24 24 60 90 93 91 96 100 100 100 100 92 59 61 80 100 100 100 100 100
14 13 9 9 9 7 6 6 5 5 4 3 2 2 2 2 1 2 3 4 3 4 9 19 23 28 22 23 25 45 100 100 89 92 100 100 100 100 96 99 86 60 64 90 98 100 100
14 13 9 9 8 7 5 6 5 5 4 3 2 2 2 2 1 2 3 3 4 4 9 19 28 26 23 24 26 42 77 100 83 94 99 96 100 100 92 88 100 96 93 77 60 72 94
14 13 9 10 9 8 6 5 6 5 4 3 2 3 2 2 1 2 3 3 4 4 6 21 29 33 34 39 38 37 76 100 100 100 100 98 96 100 98 99 92 84 94 90 83 64 59
14 15 10 10 8 8 6 6 6 5 4 2 2 3 2 2 1 2 3 3 4 5 7 16 39 35 38 46 50 44 44 48 78 100 100 100 94 96 100 100 100 100 84 76 81 84 80
15 16 11 11 8 8 7 6 6 5 4 3 2 3 3 2 2 2 2 3 3 4 8 26 39 50 55 78 88 78 51 48 78 100 100 100 100 100 100 99 97 100 84 90 84 88 92
15 17 13 11 9 8 7 6 6 6 4 3 2 3 3 3 2 2 2 3 4 7 24 36 45 63 71 83 83 54 44 44 33 48 86 82 94 91 99 98 89 100 98 100 100 93 91
16 17 14 12 9 9 8 7 6 6 5 4 2 3 3 4 3 3 3 5 6 10 23 35 55 73 86 94 90 92 86 56 44 40 51 77 94 99 90 86 85 88 89 98 100 100 96
17 18 14 12 11 10 9 7 6 6 5 4 3 3 4 4 4 4 4 8 13 20 32 60 87 95 95 90 86 92 90 80 54 41 30 30 39 57 70 84 92 92 89 92 98 99 98
17 16 15 13 12 10 10 9 7 7 6 4 5 3 6 7 6 6 5 7 21 37 59 68 70 81 85 80 81 86 84 80 72 66 52 44 45 50 56 71 83 100 97 85 78 78 91
16 17 15 14 13 10 10 9 8 7 7 6 6 5 9 9 8 7 7 14 29 51 67 77 87 94 76 73 83 87 74 62 57 52 46 57 53 62 78 72 85 85 91 94 89 91 70
16 15 15 14 15 12 11 8 10 9 8 7 7 8 13 15 12 11 13 23 36 54 72 84 95 86 77 93 84 50 44 42 40 44 49 49 63 83 95 99 96 89 85 76 84 88 84
15 15 14 13 13 13 15 10 10 10 10 9 9 10 16 20 22 20 20 27 48 70 80 86 86 84 95 68 75 87 71 60 51 57 60 60 66 82 98 100 93 96 93 93 94 95 75
14 13 13 12 13 14 15 14 11 11 11 11 11 12 15 32 35 34 34 39 58 83 83 83 81 94 82 88 97 100 96 95 93 96 94 100 100 98 94 95 92 95 100 97 72 72 75
12 11 11 12 13 16 15 14 13 13 12 12 13 14 16 28 44 50 51 54 59 70 81 96 99 90 88 96 98 96 92 90 97 97 100 100 100 98 90 91 100 96 81 77 77 80 99
11 11 11 11 13 15 15 14 14 14 14 12 13 15 17 21 30 50 67 70 75 77 85 82 81 86 89 96 97 100 98 96 90 78 77 82 90 87 94 89 90 88 93 76 73 98 100
11 11 11 11 13 15 16 14 13 13 15 16 14 14 16 20 29 43 54 65 77 77 65 70 81 84 88 98 100 100 83 61 59 78 91 98 92 81 83 83 82 92 88 74 100 100 99
11 11 10 10 14 14 16 15 14 13 13 15 18 17 16 17 21 28 54 62 72 83 82 74 82 86 93 93 93 79 75 89 98 90 81 78 77 80 74 75 98 100 88 92 92 92 91
11 10 10 10 14 15 16 15 14 13 13 13 14 18 19 17 19 22 28 49 64 77 84 79 83 87 90 82 86 85 89 93 92 82 81 86 81 75 70 70 100 100 87 92 67 66 90
10 10 9 11 13 15 16 15 14 13 14 13 13 14 17 22 20 19 23 26 43 56 76 76 78 82 89 90 94 94 95 97 96 93 88 85 80 68 66 70 98 95 87 95 61 86 99
9 9 9 11 14 15 15 16 14 13 14 13 14 15 15 15 23 22 19 27 24 40 71 78 86 84 89 93 89 90 96 96 96 94 91 100 97 76 66 66 73 75 89 71 71 99 94
8 9 9 12 13 14 15 14 13 13 13 14 14 16 16 14 16 20 23 22 32 22 34 79 85 91 89 90 97 100 97 99 97 96 96 99 94 87 77 77 86 89 94 82 83 84 80

GFSGBSN_250_rhum_033.txt.gz
RH
27 18 9 10 9 7 6 7 8 8 7 6 6 5 4 4 3 3 2 4 5 7 7 7 8 10 10 13 22 46 53 47 62 100 100 100 100 100 100 100 100 100 100 100 100 100 100
26 16 9 9 9 7 6 6 7 8 6 6 5 4 3 3 2 3 2 2 4 6 7 7 8 10 11 14 13 37 53 57 53 100 100 100 100 100 100 100 100 100 100 100 100 100 100
23 13 9 9 8 7 5 5 6 7 6 5 5 4 3 2 2 2 2 3 3 4 7 7 8 9 12 14 15 27 43 70 65 71 100 100 100 100 100 100 100 100 100 100 100 100 100
21 11 8 8 8 8 5 5 6 7 5 4 4 3 2 2 2 2 2 2 2 3 6 8 8 9 13 14 18 37 36 61 82 75 81 100 100 100 100 100 100 100 100 100 100 100 100
14 9 8 9 8 8 6 5 6 6 5 4 3 3 2 2 2 2 2 2 3 3 5 8 9 10 14 15 19 34 40 61 74 89 82 77 100 100 100 100 100 100 100 100 100 100 100
10 8 10 10 9 8 6 5 6 6 4 4 3 2 2 2 2 1 1 2 2 3 3 9 10 11 16 14 18 22 49 75 56 85 86 85 98 100 100 100 100 100 100 100 100 100 100
11 10 10 10 9 8 7 5 5 5 4 3 3 2 2 2 2 1 1 2 2 3 4 9 13 16 15 15 17 20 46 77 57 63 88 91 80 90 100 100 100 100 100 100 100 100 100
11 11 11 11 9 8 7 5 6 5 4 3 3 1 2 2 2 1 1 2 2 4 4 10 14 16 15 16 19 22 28 75 92 67 75 90 97 93 93 100 100 100 100 100 100 100 100
12 13 13 12 9 8 6 5 6 5 4 4 3 1 2 2 2 1 2 2 3 4 4 10 17 17 16 16 21 22 25 52 84 69 95 93 100 100 96 78 91 100 100 100 100 100 99
14 15 15 12 9 8 6 5 6 5 5 4 3 2 2 2 2 1 2 2 3 4 5 10 18 17 18 18 27 21 25 36 95 73 92 100 95 98 97 92 79 69 78 89 100 100 100
15 16 15 11 9 8 7 5 5 5 6 4 2 2 3 2 2 2 2 3 4 4 4 13 21 21 20 22 38 35 30 29 52 68 96 100 99 91 98 88 92 87 83 74 69 89 100
16 15 15 10 10 8 7 6 5 5 5 4 3 3 3 2 2 2 3 3 4 4 6 10 17 23 25 26 36 45 40 37 45 68 88 90 88 99 100 91 86 93 92 88 83 73 64
17 15 15 11 10 8 8 6 5 5 5 4 3 4 4 3 2 2 2 3 4 6 11 19 27 31 34 50 59 65 58 40 40 67 89 96 99 100 100 98 94 91 86 79 78 92 100
16 15 14 11 10 9 8 6 5 5 6 5 4 4 4 3 3 2 3 4 4 8 19 28 37 46 42 64 58 60 70 59 52 50 76 100 93 85 90 98 100 99 91 99 93 94 92
17 15 14 12 11 9 8 7 6 6 7 6 4 4 6 4 4 4 4 5 8 21 30 45 47 62 75 74 82 84 62 59 54 45 42 57 80 86 81 88 98 95 96 98 94 96 90
17 16 14 11 11 10 9 8 6 7 8 7 5 5 7 6 5 5 4 8 13 20 36 59 93 100 93 99 99 94 91 77 56 38 38 44 60 71 76 75 88 82 83 87 84 77 79
18 15 13 12 11 10 9 9 7 7 9 10 7 5 10 10 7 8 7 11 29 38 59 84 82 78 98 92 90 94 90 88 71 59 51 50 59 74 88 94 91 99 88 81 85 92 90
17 14 12 11 12 11 10 9 7 9 11 10 8 7 10 16 11 12 15 24 29 42 56 72 80 87 84 87 95 100 100 100 91 74 52 51 69 90 100 100 100 100 93 89 86 97 99
16 13 12 11 12 12 11 10 8 10 12 12 10 9 12 20 18 16 25 31 44 60 77 88 89 95 99 100 94 94 96 98 87 82 75 68 56 72 82 95 93 92 94 95 96 90 82
14 13 12 12 13 12 12 10 9 10 12 13 12 11 13 21 32 22 23 33 46 59 66 71 80 92 91 86 91 84 71 69 71 75 83 86 92 87 85 74 65 68 81 82 84 93 91
12 12 12 13 14 13 12 11 10 11 13 13 13 12 14 22 39 40 32 33 40 52 63 74 86 85 87 96 71 52 49 50 50 50 58 77 82 81 75 74 78 100 100 100 100 93 99
12 12 12 12 13 13 12 12 10 11 13 15 14 14 15 21 38 59 53 44 48 54 61 72 80 79 96 93 65 64 68 68 66 59 64 65 68 78 72 70 94 90 100 100 100 100 99
12 11 12 11 12 11 11 12 12 12 13 15 14 14 15 18 27 53 72 73 64 66 75 81 80 86 83 79 74 82 90 94 87 93 96 96 97 93 87 96 100 100 100 100 99 86 81
10 11 10 10 11 10 11 12 13 13 14 15 16 14 14 17 21 27 45 79 90 85 83 83 79 81 74 78 81 88 96 100 100 99 94 91 90 87 93 100 98 100 100 97 87 79 91
10 9 10 10 10 9 10 11 13 13 14 14 16 16 15 15 17 22 25 31 55 74 71 70 64 67 76 84 80 84 96 98 100 98 87 71 56 60 70 91 98 100 96 86 88 96 100
9 9 8 9 8 9 10 10 11 12 13 12 14 16 16 18 16 17 22 27 33 52 70 76 74 73 78 79 94 100 90 70 57 52 57 63 74 83 98 100 100 100 100 91 95 100 100
8 8 8 8 8 9 9 10 10 11 11 11 12 14 15 17 22 20 18 21 26 32 50 66 83 81 82 84 87 89 69 63 68 75 81 81 80 94 90 94 92 100 99 97 99 91 73
7 8 8 8 8 8 9 9 10 10 10 10 12 11 14 14 18 22 22 20 23 26 33 45 72 87 86 85 81 86 77 79 80 86 88 88 88 82 76 81 89 97 100 100 93 67 71
7 7 8 8 8 8 8 8 9 9 10 11 12 10 13 14 14 17 20 24 21 22 26 33 48 80 89 88 88 92 88 93 97 96 96 87 86 85 77 72 69 90 99 100 90 96 80

GFSGBSN_250_rhum_039.txt.gz
RH
28 23 13 10 8 7 6 7 8 7 7 6 4 4 4 3 2 2 2 2 2 2 2 2 3 4 5 5 7 6 6 7 7 12 16 77 100 100 100 100 100 100 100 99 100 91 96
26 19 11 12 9 7 6 6 7 6 6 4 4 4 3 2 2 2 2 2 2 2 2 2 2 3 4 5 7 7 7 7 8 11 14 44 100 100 100 100 100 100 100 100 100 100 100
26 13 11 12 7 6 5 6 7 5 5 4 3 3 2 2 2 2 2 2 2 2 2 2 3 3 3 7 7 7 7 8 9 9 14 24 100 100 100 100 100 100 100 100 100 100 100
17 14 14 12 7 6 5 6 6 5 4 4 3 3 2 2 2 2 2 2 2 2 2 2 2 3 4 7 8 9 7 9 10 10 13 21 51 100 100 100 100 100 100 100 100 100 100
14 13 13 11 7 6 6 6 5 5 4 4 3 2 2 2 2 2 1 1 1 1 2 2 2 4 4 8 8 8 8 11 12 12 12 21 29 96 100 100 100 100 100 100 100 100 100
14 14 14 8 6 6 5 6 5 5 4 3 3 2 2 2 2 1 1 1 1 1 1 2 3 4 5 8 9 10 11 13 14 13 13 15 23 46 100 100 100 100 100 100 100 100 100
15 14 14 7 7 6 5 5 5 5 4 4 3 2 2 2 2 1 1 1 1 1 2 2 3 5 6 8 11 12 13 15 15 13 13 14 21 39 100 100 100 100 100 99 97 100 100
15 15 11 8 7 6 5 5 5 5 4 3 3 2 2 2 2 1 1 2 2 2 2 3 4 4 6 11 12 14 16 17 16 15 14 15 19 33 70 100 100 100 100 100 100 98 100
16 11 9 8 8 7 5 6 5 5 4 3 3 2 2 2 2 1 2 2 2 2 2 3 4 6 8 15 16 18 19 20 27 19 16 18 19 28 40 100 100 100 100 100 100 97 90
11 9 9 9 8 7 6 6 5 5 4 4 3 2 2 2 2 2 2 2 2 3 3 4 5 8 13 19 18 22 18 21 37 32 25 21 22 24 41 100 100 100 100 100 100 100 100
11 10 9 9 9 7 6 6 6 6 5 4 3 3 3 3 3 2 2 2 3 4 4 5 6 11 16 14 18 20 19 20 28 48 22 19 17 22 25 59 100 100 100 100 100 100 100
11 10 9 9 9 8 7 6 6 7 5 5 4 4 3 4 3 3 2 2 4 6 6 6 8 11 14 18 20 19 18 20 31 43 27 20 25 24 24 37 64 100 100 100 100 100 100
11 10 10 9 9 9 8 7 7 7 6 6 6 6 4 4 5 4 3 3 6 9 10 9 13 17 21 24 22 21 24 24 33 33 29 21 22 21 21 34 62 82 100 100 100 100 100
11 10 10 9 9 10 9 7 7 6 8 7 8 7 6 6 7 8 6 5 9 13 23 23 24 25 26 26 20 24 26 28 40 41 36 35 20 19 26 42 62 94 92 93 100 100 100
10 10 11 10 9 10 10 8 8 6 7 8 8 9 8 7 9 12 11 9 13 13 17 24 26 24 27 26 22 24 28 30 40 31 38 50 40 35 37 55 78 89 94 96 98 94 93
11 11 11 11 10 11 10 8 8 7 7 8 9 9 9 9 12 16 16 16 19 20 22 24 20 25 25 24 22 22 22 29 38 52 48 47 56 45 49 57 68 83 90 95 99 100 99
12 10 10 11 11 11 9 9 8 8 7 8 8 10 10 10 13 17 21 19 21 24 30 29 40 38 38 45 41 30 49 45 46 53 58 59 73 69 67 59 64 74 84 98 100 100 100
11 10 10 10 10 10 8 8 7 7 6 9 9 9 10 11 15 19 27 29 28 30 36 44 54 63 75 81 80 72 54 50 59 65 71 69 65 76 83 87 80 80 74 89 99 96 95
11 10 9 10 10 9 8 8 7 7 7 9 10 10 10 12 13 18 31 40 40 36 42 50 59 66 72 80 86 86 82 76 67 70 85 82 94 90 82 78 74 72 70 72 76 88 100
11 10 10 9 9 9 7 7 7 7 8 7 9 11 11 11 13 13 28 46 52 52 55 51 56 62 67 72 72 72 70 74 75 81 77 76 72 70 80 80 87 83 78 95 97 96 100
11 10 10 9 9 8 7 7 7 7 8 8 9 10 11 11 12 14 14 32 53 62 61 61 65 70 73 81 83 87 93 89 82 82 82 78 72 61 52 64 74 86 98 98 92 92 95
12 11 10 10 9 7 7 7 8 7 8 8 9 10 10 11 12 14 15 16 26 49 69 74 74 69 69 73 87 84 62 55 62 65 77 86 85 75 56 52 51 64 76 75 81 86 92
13 11 10 9 9 8 7 8 8 8 8 8 8 9 10 11 11 12 15 16 16 26 43 66 89 94 91 90 90 82 76 61 46 44 52 70 78 86 83 69 72 81 78 74 78 87 96
12 11 10 9 8 7 7 8 8 8 8 8 8 8 9 10 12 13 13 15 17 17 22 41 52 77 98 98 96 81 87 81 62 53 48 42 46 62 79 86 90 76 82 88 95 95 97
12 10 9 9 8 7 7 7 8 8 8 8 9 8 9 10 11 13 16 17 16 17 19 21 33 52 91 97 83 78 91 100 97 92 81 66 53 56 63 70 79 85 80 82 94 100 100
12 11 9 8 7 7 7 7 7 8 8 9 9 8 9 9 10 13 15 18 18 18 19 19 22 28 47 86 79 75 87 100 100 100 100 95 100 86 65 67 72 75 77 92 99 98 100
12 10 8 8 7 6 6 6 7 7 7 8 8 8 8 9 10 13 16 18 19 20 20 24 22 20 27 56 84 75 85 99 100 97 100 96 99 99 100 89 87 86 83 87 96 94 92
10 9 7 7 6 5 5 5 6 6 6 7 8 9 8 9 9 11 13 19 20 24 22 21 24 23 22 29 69 80 79 90 99 97 98 97 99 95 100 89 100 98 86 81 87 84 89
8 7 6 6 6 5 4 5 5 5 5 6 7 9 9 9 9 10 12 18 19 27 25 25 22 23 25 23 30 74 79 84 88 94 98 82 65 64 60 60 76 76 72 78 91 97 100

GFSGBSN_250_rhum_045.txt.gz
RH
18 15 10 7 5 5 4 3 4 4 3 3 2 2 2 2 2 2 2 2 1 2 2 2 3 4 4 7 8 9 9 7 8 8 8 11 21 99 100 92 70 74 69 70 69 100 95
20 15 10 6 5 6 4 4 3 3 3 2 2 2 2 2 2 2 1 1 1 1 1 2 2 3 4 6 7 9 8 6 8 9 9 9 12 90 100 97 72 99 96 70 90 100 100
17 17 11 7 6 6 4 4 4 3 2 2 2 3 2 2 2 2 1 1 1 1 1 1 2 3 4 5 6 7 8 7 8 9 9 9 10 23 100 100 91 98 78 97 93 100 100
18 17 10 7 6 6 4 4 3 3 2 2 2 3 2 2 2 2 1 1 1 1 1 1 2 3 4 5 6 7 8 8 9 9 9 9 9 11 91 100 100 100 94 93 92 100 100
20 16 12 9 6 6 5 4 4 3 2 2 3 3 2 2 2 2 1 1 1 1 1 1 2 2 3 5 9 8 9 9 10 9 8 8 9 10 17 100 100 100 100 95 96 100 100
20 17 13 10 7 7 5 4 4 3 3 3 3 3 2 2 2 2 1 1 1 1 1 1 2 3 4 6 9 11 9 10 11 9 9 9 9 9 11 52 100 100 100 100 97 100 100
24 14 15 11 8 6 6 4 3 3 3 3 3 3 3 3 3 2 1 1 1 1 1 1 2 3 4 5 8 13 10 11 11 10 10 10 10 9 11 15 94 100 100 100 100 100 99
20 22 17 10 8 7 7 5 4 4 3 3 3 3 3 3 3 3 2 2 2 2 2 2 2 3 4 5 7 12 13 13 13 13 11 11 11 10 9 11 15 96 100 100 100 100 100
24 25 24 14 9 6 6 6 4 4 4 4 3 4 3 3 3 4 2 2 2 2 2 3 3 4 6 7 11 13 16 17 16 16 14 13 12 10 10 10 12 30 100 100 100 100 100
22 24 32 15 11 7 7 5 5 4 5 5 4 4 4 3 4 4 3 2 2 3 3 3 4 4 6 9 13 17 19 21 19 18 17 14 12 11 11 11 12 16 68 100 100 100 100
30 29 24 21 13 9 7 6 5 5 5 5 5 4 5 4 4 5 6 3 2 4 5 4 5 7 8 10 13 17 19 18 16 18 16 14 13 12 12 12 11 17 20 87 100 100 100
29 32 31 33 17 10 6 7 6 6 6 6 7 6 6 5 5 4 8 4 5 6 7 6 7 8 9 12 13 14 21 22 18 17 16 15 14 12 12 12 11 14 22 25 69 100 100
34 31 38 37 19 11 7 7 7 7 6 7 8 8 7 6 6 5 8 7 8 13 10 10 10 10 10 12 12 11 16 19 17 16 15 14 12 13 13 12 13 13 17 26 28 68 100
23 32 29 35 28 11 7 7 7 7 7 8 8 9 8 7 6 7 9 11 11 15 15 14 16 17 19 20 20 20 20 19 16 14 15 14 13 12 12 13 14 15 14 17 27 35 66
21 31 36 24 26 18 8 6 7 8 8 8 8 8 10 9 7 8 11 10 17 15 18 19 21 20 24 31 33 29 27 26 23 19 18 16 15 15 14 13 14 15 15 17 23 43 56
25 36 36 26 22 18 11 7 7 8 7 8 8 9 11 10 8 7 9 12 20 23 20 19 19 24 27 30 26 27 29 26 24 24 21 19 20 17 16 17 18 18 19 19 20 39 72
31 34 39 40 31 24 14 8 8 7 7 7 8 8 11 12 10 8 9 10 16 28 31 26 24 24 25 27 33 34 33 31 27 24 24 25 21 20 25 22 24 24 26 30 42 36 62
28 30 33 26 31 19 18 10 8 7 7 7 8 8 10 13 12 10 9 10 16 23 30 34 39 32 27 23 22 24 30 37 40 36 29 29 30 32 34 38 35 31 30 33 45 59 55
28 24 30 26 26 30 23 12 8 7 7 6 7 7 8 11 12 11 10 11 13 21 32 38 41 49 58 56 52 42 36 33 31 38 38 39 29 34 37 54 64 57 48 47 44 49 57
23 21 28 29 42 38 28 15 8 7 7 6 6 7 6 9 11 12 10 10 13 16 27 40 47 48 53 60 76 92 88 66 62 51 45 43 31 30 27 34 41 63 72 52 50 58 52
28 25 28 28 29 32 21 14 9 7 6 6 5 6 6 7 10 12 11 10 12 15 18 34 50 64 64 66 65 71 72 82 86 88 80 66 49 39 32 30 36 43 60 76 77 65 66
19 22 36 36 23 29 30 14 9 7 7 6 6 6 6 6 8 11 12 11 10 15 17 20 38 49 67 68 68 71 74 75 71 76 76 80 69 61 51 49 40 44 50 66 75 82 77
20 23 33 35 26 31 45 14 9 7 6 6 6 6 7 5 6 9 12 12 12 12 14 17 20 33 58 69 78 78 78 73 67 61 67 78 80 75 63 58 57 58 48 54 70 75 86
19 22 29 34 30 38 27 13 9 7 6 6 6 6 6 6 5 6 9 12 12 12 14 15 18 20 28 55 81 86 78 70 65 63 56 46 61 73 82 88 84 60 67 66 62 70 71
22 24 24 24 20 21 17 12 7 6 5 6 5 5 6 6 5 6 7 10 11 11 13 15 16 18 20 24 38 67 81 65 61 64 65 56 37 53 76 91 92 92 83 78 78 82 82
24 19 17 18 24 20 20 14 7 6 5 5 5 5 6 6 6 6 7 10 11 11 11 13 15 19 18 20 23 29 59 76 58 65 74 76 52 36 52 82 98 99 95 82 78 86 87
26 24 18 19 16 22 18 12 7 6 5 5 5 5 6 6 6 6 6 8 11 12 12 11 14 16 21 21 23 25 33 69 67 61 73 91 92 64 50 59 69 81 96 99 96 92 93
25 20 12 12 20 13 12 10 7 5 5 4 4 5 6 6 6 6 6 8 10 13 13 15 16 18 19 22 24 28 26 39 72 66 70 80 88 93 98 68 57 57 77 96 98 98 96
34 22 15 19 16 12 11 8 6 5 4 4 4 5 6 6 6 6 6 8 10 12 13 16 19 24 28 23 22 23 28 28 40 76 75 79 83 86 95 100 84 63 69 78 95 100 100

GFSGBSN_250_rhum_051.txt.gz
RH
29 32 37 32 25 15 7 5 4 4 3 2 2 2 2 2 2 2 2 1 1 1 1 1 1 1 2 4 8 7 7 8 9 12 11 11 12 13 17 98 100 100 100 100 77 49 64
35 31 36 34 27 17 9 5 4 4 3 2 2 2 2 2 2 2 2 1 1 1 1 1 1 1 2 3 6 9 7 8 10 12 13 11 12 14 14 63 100 100 100 94 75 60 53
31 37 32 40 34 17 11 6 4 4 3 2 2 2 2 2 2 2 2 1 1 1 1 1 1 2 2 2 4 9 7 10 11 13 14 13 12 12 14 39 99 100 73 100 75 80 73
31 33 36 41 36 20 13 7 5 4 3 2 2 2 2 2 2 2 2 2 1 1 1 1 1 2 2 2 3 5 8 10 11 12 15 13 12 12 12 16 82 100 92 77 76 78 90
33 33 40 38 35 21 15 9 6 5 4 2 2 2 2 2 2 2 2 2 1 1 1 1 1 2 2 2 3 4 8 12 14 13 15 13 12 12 12 14 31 100 100 90 88 87 89
34 38 42 41 38 32 16 11 7 6 4 3 3 2 2 2 2 2 2 2 2 1 1 1 2 2 2 3 4 5 9 12 13 14 12 12 12 12 12 12 17 100 100 100 98 94 75
36 44 38 46 34 30 22 14 9 8 5 4 3 3 2 3 2 2 2 2 2 2 2 2 2 2 2 2 4 8 11 14 18 18 12 13 13 13 14 12 13 31 100 99 100 93 83
39 46 36 52 38 33 28 17 13 8 6 5 4 3 3 3 3 3 3 3 3 2 2 2 2 2 2 3 4 6 12 15 18 18 10 12 15 13 12 11 11 14 95 100 78 72 74
42 47 42 50 40 38 40 21 15 10 10 5 5 4 4 3 4 3 3 3 3 3 2 2 3 3 3 3 4 8 12 15 15 10 11 13 13 13 12 11 10 11 16 100 100 83 70
41 55 51 52 49 40 43 37 18 16 12 7 5 4 4 4 4 4 3 4 4 4 3 3 3 4 4 4 4 5 13 16 16 16 12 12 13 13 12 11 10 10 12 47 100 100 79
39 53 58 52 53 40 48 42 21 23 19 11 7 5 4 4 4 4 3 4 4 4 6 3 4 5 5 5 6 8 13 21 21 15 13 13 14 14 12 12 10 10 9 12 68 100 100
38 57 58 54 53 51 42 46 39 26 24 16 8 6 4 5 5 5 5 4 4 5 7 6 4 6 7 7 7 10 16 25 21 20 21 19 14 12 13 13 12 11 11 10 13 45 100
43 56 62 53 48 44 36 46 48 29 27 18 12 8 6 4 5 6 5 5 6 6 7 8 6 6 9 11 9 10 14 27 28 26 26 19 15 13 14 16 16 15 14 13 11 12 19
54 60 65 48 47 45 32 50 48 42 31 28 13 8 6 5 5 6 6 5 7 7 7 11 10 7 8 14 17 15 16 22 24 25 24 22 21 19 18 16 18 18 16 14 14 12 13
56 58 64 44 49 40 30 45 45 45 44 31 15 8 7 5 5 6 6 6 6 7 7 9 13 13 10 12 19 29 32 30 29 29 30 29 25 21 19 17 17 18 16 16 15 13 12
55 74 64 40 51 32 29 40 39 52 43 35 20 8 7 6 5 6 7 6 6 8 8 9 11 15 14 13 15 19 28 29 37 40 34 32 30 27 23 19 17 15 15 15 15 14 13
53 72 57 41 46 29 26 30 42 47 43 31 19 10 8 6 5 5 6 7 6 7 8 9 12 17 18 16 16 17 21 23 26 30 38 43 47 34 24 24 20 18 16 14 14 14 13
55 63 54 48 39 30 26 26 40 44 40 43 18 9 6 5 5 5 6 7 7 7 8 10 11 13 22 24 18 19 22 22 25 27 26 31 31 33 33 30 24 19 16 16 15 14 13
66 55 44 45 38 29 28 26 38 42 47 47 35 10 7 6 5 5 6 6 8 7 8 9 11 14 17 28 31 25 21 21 22 24 25 25 24 25 30 26 24 23 19 16 15 15 14
69 45 38 34 28 29 27 33 30 41 48 46 50 14 7 6 5 5 5 6 8 8 7 9 10 13 18 18 29 39 32 27 24 24 24 26 27 30 30 26 25 24 21 19 18 15 13
59 39 34 26 29 28 34 34 31 32 41 49 40 17 8 6 4 4 5 5 7 8 7 8 12 13 14 19 26 36 42 45 41 36 31 28 25 25 26 29 31 28 24 22 21 17 15
48 34 30 28 31 32 27 30 37 38 32 35 39 22 9 6 4 4 4 5 6 8 8 7 8 12 14 14 20 29 51 56 59 57 54 42 41 43 32 33 36 34 24 22 21 19 18
46 34 35 33 32 37 24 25 36 36 37 34 39 30 7 8 5 4 4 4 5 7 8 8 8 10 13 17 19 24 30 40 63 69 69 63 61 50 40 39 44 41 32 29 25 20 17
39 32 35 34 30 31 30 27 33 34 28 25 44 44 10 6 6 4 4 4 5 6 8 8 8 9 12 14 17 19 24 28 41 56 74 72 67 59 56 61 50 31 34 36 36 30 27
30 36 44 39 34 30 29 29 30 35 30 24 30 38 13 6 6 4 4 4 5 5 7 8 8 9 10 14 16 18 21 22 28 42 63 80 73 58 52 52 57 54 46 46 42 36 35
35 46 41 40 36 37 27 22 27 29 30 20 35 26 13 5 5 5 4 4 4 5 6 8 9 8 9 11 16 18 20 20 21 26 39 71 82 72 58 52 40 37 66 57 48 46 42
46 45 52 39 37 37 28 22 33 28 23 20 28 22 9 5 5 5 4 3 4 5 6 9 10 9 9 10 11 15 19 21 23 22 25 34 74 82 77 65 51 35 52 70 68 52 54
44 49 50 46 38 29 21 17 26 23 22 33 52 22 11 6 5 5 4 4 4 6 7 8 10 10 11 11 12 14 20 21 22 24 26 27 42 71 87 72 70 57 44 55 71 74 68
46 51 52 41 33 25 24 18 26 23 22 29 49 30 12 7 5 4 4 4 5 6 7 9 11 12 12 11 14 14 16 22 27 28 28 30 30 40 82 90 81 93 72 51 57 76 79

GFSGBSN_250_rhum_054.txt.gz
RH
38 25 25 30 24 34 17 14 9 5 3 4 3 2 2 2 2 2 2 2 1 1 1 1 2 1 1 2 4 7 6 6 8 9 10 10 11 11 12 16 36 72 79 90 70 80 100
34 27 25 34 25 33 27 14 10 5 4 3 3 2 2 2 2 2 2 2 1 1 1 1 1 1 2 2 3 5 9 6 9 9 10 10 11 10 11 15 26 67 65 65 84 98 100
32 32 26 39 31 32 35 16 13 8 4 4 4 2 2 2 2 2 2 2 1 1 1 1 1 1 2 2 3 5 9 9 9 11 11 12 11 12 12 13 20 57 65 49 74 100 100
29 33 27 38 37 29 36 21 18 12 6 3 4 3 2 2 2 2 2 2 2 1 1 1 1 1 2 2 3 4 8 11 11 11 12 12 12 13 12 12 16 74 54 39 94 93 100
30 31 31 42 38 38 37 42 22 14 8 4 4 4 2 2 2 2 2 2 2 1 1 1 1 1 2 2 2 3 6 12 15 12 13 12 13 14 14 12 16 26 66 75 99 100 100
32 29 39 43 36 55 39 53 26 15 10 6 4 4 2 3 2 2 2 2 2 2 2 2 2 2 2 3 3 3 7 13 19 15 13 12 13 14 14 13 16 30 100 94 100 100 100
34 33 38 44 38 53 47 51 36 18 13 7 5 4 2 3 2 3 3 2 2 2 2 2 2 2 2 2 2 4 8 16 20 16 13 13 13 18 18 15 16 21 70 100 100 100 100
36 35 38 38 49 54 42 49 32 22 13 10 6 5 3 3 3 3 3 2 3 3 2 2 3 2 2 2 3 4 6 15 19 18 15 16 17 17 17 15 14 16 23 100 100 99 96
38 36 34 43 53 54 42 46 32 24 14 13 8 6 4 3 3 3 4 3 3 3 3 2 3 3 2 3 3 4 7 18 23 18 14 15 17 16 16 16 13 16 20 84 100 100 91
41 36 39 39 51 53 52 48 33 29 20 18 10 8 5 4 4 3 4 4 3 3 5 4 3 4 3 3 4 5 9 15 14 15 13 10 14 15 16 16 14 14 16 21 100 100 80
39 36 38 40 50 53 53 46 35 42 26 19 18 11 6 5 4 4 4 4 4 4 5 6 4 4 5 4 5 5 7 9 12 12 11 13 15 15 15 16 14 13 14 17 48 100 100
38 41 39 42 60 59 55 47 34 44 33 20 27 21 9 5 5 5 4 5 5 4 5 7 6 5 6 6 7 9 11 13 13 13 11 13 13 14 15 15 14 13 13 14 16 45 100
43 46 40 45 58 55 58 46 35 41 36 31 28 26 13 6 5 5 4 5 6 5 6 6 8 7 6 8 8 12 13 14 15 14 14 12 13 13 13 14 14 14 13 13 14 15 43
45 52 41 51 65 60 59 45 37 39 38 38 39 32 19 9 6 6 5 5 5 6 5 7 9 9 6 10 11 15 20 22 22 24 22 20 20 19 19 17 17 17 17 15 15 15 15
43 47 46 52 59 65 60 46 34 40 47 38 29 30 24 14 7 6 6 5 5 6 6 7 9 12 11 10 21 18 17 22 24 27 30 31 32 28 26 22 20 19 21 21 18 17 16
42 51 51 49 52 66 61 48 40 38 47 40 41 32 26 16 10 7 6 5 5 5 6 7 9 13 14 14 12 18 34 38 37 44 48 44 41 34 30 26 23 21 21 23 22 19 18
44 50 44 49 58 63 59 47 37 37 50 42 56 31 32 18 12 10 6 6 5 5 5 6 7 10 21 18 17 16 16 29 46 51 52 50 47 42 36 33 28 20 17 18 20 20 19
39 40 41 46 63 63 51 44 35 40 42 44 51 40 40 40 18 8 6 6 6 6 5 6 7 8 9 23 20 20 22 23 25 28 33 38 40 37 34 32 29 24 21 17 15 18 19
33 35 41 50 58 56 42 36 43 38 39 44 45 41 44 43 38 12 8 6 6 6 6 6 6 7 9 11 21 25 21 21 23 25 30 30 29 28 28 26 21 22 19 16 15 14 16
34 36 45 58 56 50 39 37 40 38 41 40 36 44 51 28 22 13 7 7 6 6 6 7 7 7 8 10 15 30 40 27 24 23 24 26 26 28 29 28 25 22 19 17 16 15 14
37 48 57 58 49 48 33 39 38 36 41 40 34 41 54 27 27 14 8 7 5 5 6 6 7 7 8 10 11 15 33 47 49 35 31 28 29 28 26 24 26 25 22 21 20 18 15
40 51 58 50 49 38 27 37 37 39 42 38 30 38 46 58 20 15 8 8 5 5 5 6 7 7 8 11 11 12 18 30 44 54 60 52 38 30 31 29 29 24 21 20 18 19 18
49 57 54 50 43 30 29 38 46 39 40 35 32 31 47 53 26 18 8 8 6 5 5 6 7 8 8 11 14 17 16 22 28 38 56 67 68 64 46 37 33 34 25 24 20 19 16
58 61 51 48 37 30 33 38 45 40 35 40 31 29 44 58 27 18 7 9 6 5 5 6 7 7 8 8 10 14 16 20 26 34 43 65 74 64 61 73 61 35 36 37 33 26 30
65 56 43 39 38 37 34 37 40 40 36 34 31 28 42 53 30 19 7 10 7 5 5 6 8 8 8 9 9 11 13 15 20 24 27 39 58 71 60 62 54 58 66 52 39 32 28
62 42 50 46 45 44 39 36 41 38 33 35 30 25 36 49 40 10 6 9 7 5 5 5 7 9 10 9 9 11 14 18 17 20 24 28 36 54 64 58 50 67 58 66 64 45 44
58 44 58 48 54 40 46 37 36 42 29 30 32 26 41 54 41 10 7 9 6 4 4 5 6 10 10 10 10 11 15 19 20 22 24 24 24 30 50 58 60 78 78 63 50 64 58
58 50 55 55 47 43 42 38 41 41 30 29 34 22 31 48 46 10 5 8 6 4 4 5 6 11 10 12 11 12 15 17 22 27 26 26 25 26 30 46 66 63 73 74 51 53 75
52 54 54 54 50 42 38 41 42 38 32 32 29 20 28 52 35 12 5 6 5 4 5 5 7 9 12 12 12 12 13 16 21 29 30 28 28 29 30 31 52 66 70 82 84 59 65

GFSGBSN_250_rhum_057.txt.gz
RH
88 55 34 30 26 26 23 22 18 7 8 5 3 3 2 2 2 2 2 2 2 2 1 1 1 1 1 2 3 5 6 5 6 6 7 9 14 14 12 15 15 15 30 24 41 60 100
86 66 38 30 27 28 26 23 19 10 8 6 3 3 2 2 2 2 2 2 2 2 1 1 1 1 1 2 2 3 7 7 7 8 8 10 16 16 13 16 16 17 24 24 34 48 96
98 78 44 34 25 28 26 27 22 24 11 7 4 3 3 2 2 2 2 2 2 2 1 1 1 1 1 2 3 3 6 9 8 9 10 12 16 16 15 15 17 16 24 43 25 57 87
100 86 55 33 28 30 28 30 29 33 16 9 5 3 3 2 2 2 2 2 2 2 1 1 1 1 1 2 3 3 6 11 10 9 13 14 15 16 15 14 17 15 18 31 31 39 74
100 91 79 36 33 32 29 32 28 38 29 13 6 3 2 3 2 2 2 2 2 2 1 2 1 2 1 2 3 3 5 11 14 12 14 12 13 15 13 14 17 15 17 26 59 44 96
98 100 88 44 37 32 32 35 37 42 42 22 10 4 3 2 2 2 2 3 2 3 2 2 2 2 2 2 2 3 5 11 16 10 12 9 11 14 15 15 19 18 18 23 100 68 62
84 100 88 53 41 34 32 34 45 52 48 33 14 7 5 3 3 2 2 3 3 3 2 2 2 2 2 2 3 4 4 8 16 11 12 9 12 15 19 19 20 19 18 27 100 100 88
80 99 82 57 38 41 38 38 52 58 51 34 18 12 8 4 3 3 3 2 3 3 3 2 3 2 2 3 3 4 4 8 14 15 15 11 12 16 18 20 20 19 18 21 67 100 83
73 100 84 59 41 44 36 44 66 60 54 33 26 15 12 7 5 3 3 3 3 3 3 4 3 3 2 2 3 4 5 8 16 24 17 17 14 18 19 19 18 18 19 19 36 100 90
70 100 83 58 42 41 35 47 68 59 55 34 33 19 17 10 7 6 3 4 3 3 3 4 4 3 3 3 3 3 3 7 18 25 16 18 16 17 20 19 18 18 18 18 25 96 100
73 100 88 68 42 42 48 58 71 61 57 43 36 34 18 13 9 8 6 4 4 4 4 3 5 4 4 4 5 4 4 8 14 17 16 18 19 16 19 19 21 20 19 18 20 59 99
78 96 96 82 50 36 44 70 68 62 54 45 36 38 22 20 15 10 7 4 4 5 4 5 5 6 5 5 6 6 6 10 10 15 17 17 18 20 19 19 20 20 19 19 18 20 98
76 91 100 86 60 45 42 70 76 65 54 43 35 34 41 17 15 13 9 6 4 5 5 6 6 6 6 6 7 8 9 9 11 10 10 10 14 17 19 19 20 20 20 20 18 18 29
79 84 100 87 62 51 48 70 67 75 58 49 34 41 36 33 21 17 12 7 5 5 5 6 6 7 8 7 6 10 11 13 12 17 22 20 15 14 18 19 18 19 20 20 19 17 21
81 90 94 93 76 49 51 62 68 72 55 48 35 41 37 53 22 26 12 12 7 6 5 7 6 6 9 10 9 9 11 15 20 21 23 27 28 25 20 19 16 20 20 21 20 20 20
89 88 94 86 81 49 57 69 66 71 48 43 38 37 38 59 44 25 16 14 10 5 6 6 7 7 10 12 12 10 9 16 20 27 32 35 35 42 41 38 37 35 32 28 25 25 24
91 92 90 84 80 51 62 78 67 66 44 42 41 31 39 55 63 27 28 14 10 6 6 6 8 8 9 15 15 15 13 16 20 23 32 40 55 57 58 52 53 45 38 31 28 27 26
88 96 82 92 78 60 62 68 69 56 35 38 37 25 36 45 51 55 27 21 10 6 5 7 7 8 10 20 21 19 20 19 19 23 28 30 34 35 33 39 34 34 32 28 23 22 24
92 83 87 77 78 54 66 70 65 52 37 31 33 26 36 41 61 56 33 21 12 7 5 6 6 8 10 11 26 27 22 25 26 28 29 32 33 34 30 26 23 24 22 21 20 19 20
84 88 90 78 73 52 66 70 60 48 34 32 31 22 33 41 52 56 45 24 16 9 5 5 6 7 9 11 14 39 37 28 26 25 28 33 32 30 31 30 28 24 22 20 18 18 17
86 100 94 85 75 55 72 66 60 51 34 36 33 24 37 35 42 50 39 19 16 10 5 5 5 6 8 9 12 13 35 48 43 33 31 30 31 29 29 27 25 24 22 20 20 18 19
85 100 99 86 78 61 77 70 53 50 35 33 31 30 36 34 37 46 51 16 17 11 6 5 6 6 7 9 10 12 16 36 49 60 57 46 37 31 31 30 30 28 24 23 21 20 18
87 98 93 89 70 55 79 74 51 50 37 36 28 30 34 35 36 52 56 16 14 11 5 4 6 6 7 9 10 11 15 20 33 52 67 75 75 69 54 50 42 44 28 28 29 25 21
89 87 92 84 67 60 78 71 54 50 42 40 32 28 33 36 32 58 56 25 11 7 5 4 5 6 7 8 10 10 12 15 20 27 40 63 79 86 77 82 74 51 50 50 46 37 37
90 94 92 86 65 66 75 65 55 54 49 42 36 27 28 33 38 66 62 28 10 7 4 3 4 5 6 8 9 10 11 16 16 17 22 32 41 60 80 80 71 78 77 80 69 45 52
88 90 93 90 69 69 73 58 56 46 49 46 41 34 30 36 44 59 59 32 9 6 4 4 4 5 6 8 10 11 11 15 19 19 19 25 28 31 42 74 67 62 71 71 74 72 66
89 95 99 79 66 68 63 52 58 55 46 49 49 40 36 33 40 48 54 39 9 6 4 4 4 5 7 8 9 10 11 13 18 19 21 22 23 23 24 29 62 68 57 63 70 60 64
86 100 96 77 66 66 58 60 55 50 48 50 49 38 35 34 35 38 51 59 12 6 4 4 5 6 6 9 10 11 12 12 14 19 22 24 24 25 25 24 30 52 70 58 60 68 57
93 99 84 68 72 59 57 61 60 52 52 54 51 33 35 29 31 35 48 63 21 8 4 4 5 6 7 8 10 11 13 14 15 20 24 26 26 28 29 26 29 37 63 80 76 74 60

GFSGBSN_250_rhum_060.txt.gz
RH
75 88 85 73 67 63 46 28 19 22 20 16 9 6 4 4 4 2 2 2 2 2 2 1 1 2 2 1 2 2 5 4 5 5 6 7 9 13 16 16 15 13 12 12 15 16 18
69 92 89 80 82 76 62 34 20 24 25 18 18 10 4 4 4 2 2 2 2 2 2 1 1 1 1 1 2 2 4 5 5 5 6 7 9 12 18 20 16 15 14 12 15 18 20
66 91 98 83 82 78 60 36 25 23 24 22 22 19 6 4 3 4 2 2 2 2 2 1 2 1 1 1 2 2 3 7 7 6 7 8 10 11 20 22 19 16 15 14 14 17 18
64 89 100 90 80 82 74 50 29 23 26 30 34 30 12 5 4 4 2 2 2 2 2 2 2 1 1 1 2 2 3 6 10 7 8 8 11 12 16 22 21 18 16 15 15 18 19
69 84 100 87 81 84 73 64 37 29 28 30 32 32 24 6 4 4 3 2 2 2 2 2 2 1 2 1 2 2 2 5 10 10 8 9 10 13 14 19 21 20 18 18 19 21 29
87 78 100 95 79 83 81 72 43 30 30 28 36 34 28 14 4 5 4 2 2 2 3 2 2 2 2 2 2 2 3 4 10 13 10 10 11 12 14 16 22 24 21 20 21 22 38
86 83 96 99 86 94 87 75 49 27 28 30 48 37 28 20 10 6 4 3 2 2 2 3 2 2 2 2 2 3 4 5 12 15 13 10 11 13 16 17 21 23 23 22 24 24 27
88 87 99 100 88 92 88 77 57 38 35 41 45 38 31 26 17 6 5 3 2 2 3 3 3 2 2 2 2 3 3 6 8 11 12 9 10 12 14 16 22 23 20 22 24 24 28
75 89 95 100 93 83 96 73 69 33 36 38 48 43 37 29 20 9 6 4 3 2 2 3 4 3 3 2 3 3 4 5 8 10 10 11 11 11 12 15 20 24 19 22 24 24 23
82 91 94 95 94 92 95 77 81 45 32 39 48 42 38 30 28 12 7 5 4 3 2 3 4 4 3 3 3 4 4 6 6 6 6 7 13 12 13 17 20 22 17 21 25 24 25
100 98 100 95 93 100 96 88 74 58 43 50 48 38 39 32 28 24 8 8 6 3 3 3 4 5 4 4 4 4 4 5 6 6 8 13 20 19 17 20 21 22 20 21 24 24 24
96 99 93 99 96 100 97 96 84 65 39 49 51 40 37 34 29 33 13 8 7 5 4 3 4 4 6 5 5 6 6 7 7 10 11 14 19 20 18 18 22 21 21 21 23 25 24
100 100 96 92 100 100 99 97 83 67 44 50 55 46 38 31 33 31 28 9 10 7 5 4 4 4 6 6 6 7 9 11 9 8 8 12 16 19 19 18 21 21 21 20 21 24 26
100 100 94 90 100 100 99 95 76 69 48 45 56 46 43 28 38 35 34 11 11 9 6 5 4 5 5 7 7 9 11 12 14 14 18 19 21 22 23 22 21 22 22 22 23 22 27
100 100 99 93 100 100 95 97 77 74 47 44 57 47 44 33 37 49 35 10 11 11 8 5 4 4 5 6 8 9 12 18 19 20 19 27 28 25 23 25 22 23 23 22 21 23 24
100 100 98 87 100 100 93 100 76 77 45 42 56 49 42 34 38 56 58 21 10 12 11 7 6 4 6 5 9 9 11 18 24 24 27 30 36 40 45 38 27 24 23 22 22 23 24
100 100 96 82 100 100 90 100 78 78 47 48 54 51 40 36 46 54 58 30 10 10 11 8 6 6 5 6 7 10 11 13 18 20 25 36 46 53 58 60 60 47 34 28 28 31 32
100 100 96 88 100 100 97 100 82 78 55 50 55 53 39 37 48 51 54 54 16 14 10 9 7 7 6 7 6 9 12 12 14 16 19 26 26 45 59 71 89 93 78 82 72 63 48
100 100 98 91 100 97 99 95 93 82 59 62 67 52 37 40 42 41 49 65 42 13 11 9 6 7 7 8 8 7 12 11 15 16 22 24 31 32 39 34 39 46 48 48 51 44 37
100 100 100 96 96 99 98 95 97 85 69 67 72 55 41 34 42 38 53 60 51 20 10 7 7 6 8 8 10 9 9 14 15 16 17 20 19 25 27 31 28 29 22 23 24 26 26
100 100 100 99 100 100 94 94 91 87 67 64 64 52 38 35 37 33 44 52 60 40 12 7 5 6 6 8 11 13 11 13 18 21 21 20 20 21 23 28 30 30 24 26 27 24 22
100 100 100 100 95 100 94 98 94 90 62 59 64 52 38 32 40 36 38 51 52 64 18 8 4 5 6 7 9 13 17 14 18 26 32 30 29 27 26 25 27 29 28 24 23 23 27
100 100 100 100 98 100 94 98 91 90 65 67 69 51 33 33 34 37 38 46 51 57 30 12 6 4 5 6 8 11 15 22 23 28 35 42 52 59 59 46 40 45 29 31 36 31 29
100 100 100 100 100 100 97 93 87 89 65 69 62 49 34 31 32 39 37 46 58 46 38 16 8 4 4 6 6 8 12 16 19 22 31 50 66 71 67 78 81 46 41 50 43 28 29
100 100 100 99 100 100 97 92 92 77 74 75 63 46 33 30 34 42 41 46 54 52 37 18 9 5 3 5 6 9 11 12 16 24 28 32 44 50 60 70 74 76 73 69 57 35 56
100 100 100 99 100 99 94 92 85 69 73 75 58 45 42 34 36 45 43 42 51 68 39 17 10 6 4 4 6 8 11 12 15 16 23 25 27 28 37 43 63 71 86 81 75 72 68
99 100 99 100 100 96 97 85 81 64 76 72 54 47 41 33 36 41 46 35 52 61 48 18 10 6 4 4 5 9 12 13 16 17 19 25 24 25 29 36 28 56 77 91 85 76 76
100 100 98 100 100 100 96 82 67 66 74 64 53 51 48 36 38 48 49 35 45 64 69 29 14 7 4 4 6 8 12 14 15 15 18 24 27 26 30 29 27 34 44 70 89 92 82
94 97 99 100 100 100 90 78 70 72 70 51 58 62 56 40 40 48 45 44 42 62 60 27 14 6 5 5 6 8 11 14 15 17 18 18 22 26 30 33 30 34 31 36 53 92 90

GFSGBSN_250_rhum_063.txt.gz
RH
56 59 60 77 81 86 72 57 52 40 36 27 20 14 16 12 5 6 5 4 2 2 2 2 1 1 1 2 2 2 2 4 4 4 5 6 7 10 12 13 13 13 14 15 17 18 17
56 58 63 83 79 94 85 66 65 54 46 31 23 18 15 12 12 6 4 4 3 2 2 2 1 1 1 1 1 2 2 3 4 4 6 6 8 9 13 15 16 15 16 15 17 16 18
57 56 53 74 90 86 92 72 65 54 51 31 24 16 21 20 13 8 5 4 3 2 2 2 2 1 1 1 2 2 2 2 4 4 6 7 8 9 13 17 18 17 17 17 17 18 19
57 50 45 60 97 83 91 75 70 60 48 37 32 17 22 22 13 7 6 5 3 2 2 2 2 2 1 1 1 2 2 3 5 6 7 7 8 8 11 15 18 19 19 17 17 18 21
53 54 44 48 100 88 87 85 77 68 59 47 30 20 19 23 17 13 8 5 5 2 2 2 2 2 2 1 1 2 2 3 5 7 7 8 8 9 10 12 16 19 21 20 18 19 20
60 52 51 46 95 94 84 87 79 70 62 53 39 29 18 26 17 21 9 4 5 3 2 2 2 2 2 2 1 2 2 3 5 8 9 8 8 8 10 12 14 20 22 22 20 19 20
63 56 57 55 73 100 87 91 80 77 62 48 48 36 26 32 30 22 10 5 5 3 2 2 2 2 2 2 2 2 2 2 4 8 11 8 9 10 11 14 16 24 27 26 23 20 20
69 57 60 60 74 96 91 96 86 77 72 61 53 40 26 38 40 27 12 7 4 4 3 3 2 3 3 2 2 2 2 3 5 8 10 10 10 12 13 15 19 23 25 25 23 21 20
87 72 67 61 80 98 97 96 88 76 71 71 58 48 28 46 41 33 15 8 5 4 4 3 3 3 3 3 3 3 3 4 6 7 12 14 12 13 14 16 19 24 27 30 30 24 22
91 88 83 63 87 100 98 95 89 83 79 72 64 59 38 62 49 34 20 8 5 5 3 4 3 3 3 3 3 3 4 4 5 7 8 14 12 11 13 15 19 24 24 26 29 28 24
90 100 88 66 99 100 100 94 95 87 79 69 68 58 41 67 51 35 22 13 5 5 5 4 4 3 4 4 4 4 4 4 4 5 6 8 13 13 12 14 17 20 21 24 24 30 28
94 100 94 70 97 100 100 92 98 85 81 73 78 74 41 63 54 34 26 21 9 6 5 6 5 4 4 5 5 4 4 4 6 6 6 7 12 16 14 14 15 17 19 22 23 23 26
96 100 94 73 100 100 98 93 94 85 89 75 83 77 50 68 54 36 27 28 17 7 6 5 7 6 5 5 6 6 5 7 7 9 11 14 17 25 22 20 16 16 18 22 24 24 24
93 92 94 86 100 100 100 93 96 93 92 79 78 79 53 69 55 36 28 34 29 9 7 5 5 8 6 5 7 7 7 9 12 15 17 20 24 29 28 25 22 20 20 21 22 23 27
100 97 91 93 100 100 100 96 97 96 93 85 86 75 53 75 57 37 31 33 35 21 8 6 4 6 7 6 9 9 8 10 13 18 23 25 30 30 34 31 24 23 22 21 21 22 23
100 100 87 100 99 99 100 100 98 92 90 99 88 75 62 76 60 38 29 33 41 32 12 8 6 5 6 6 7 12 10 10 12 16 17 26 33 39 36 36 36 28 23 22 22 24 25
100 100 89 100 100 97 100 100 100 93 95 98 85 78 60 70 64 38 33 40 40 40 23 9 6 4 5 6 7 8 13 11 12 16 18 21 31 42 48 54 45 46 42 32 27 27 27
100 100 99 100 100 98 96 100 100 100 99 89 84 76 56 69 65 41 32 38 36 43 31 11 6 4 5 6 7 7 10 14 15 18 21 25 28 35 48 54 56 65 56 50 47 45 34
100 100 100 100 100 94 94 100 99 98 98 85 98 84 60 69 61 41 31 34 43 52 48 21 8 6 4 5 6 7 7 12 16 16 17 24 30 32 46 59 69 72 72 61 62 60 46
100 100 100 100 100 100 100 99 95 98 91 90 92 87 61 74 59 40 31 34 43 53 56 23 9 6 5 5 6 7 7 10 14 18 16 19 19 28 31 35 44 59 67 65 54 56 48
100 100 100 100 100 100 100 93 99 94 90 94 98 87 68 73 60 37 32 34 43 56 52 30 14 9 4 5 5 6 8 8 9 16 20 20 19 20 24 28 34 34 32 31 34 37 36
100 100 100 100 100 100 100 100 100 91 86 100 98 87 66 73 50 35 35 38 46 45 54 38 16 8 5 4 5 6 7 9 9 11 14 24 24 22 21 21 25 32 32 31 34 34 33
100 100 100 100 100 100 100 100 97 90 85 100 86 74 73 69 46 34 35 40 42 51 55 58 22 11 6 4 5 6 7 10 10 11 12 14 26 28 27 26 25 26 22 24 23 25 29
100 100 100 100 100 100 100 100 99 95 88 100 80 79 72 67 40 33 32 43 45 45 57 66 31 17 9 4 7 6 7 10 12 12 15 14 17 28 21 34 42 28 30 33 30 22 26
100 100 100 100 100 100 100 100 95 92 93 100 76 86 81 63 38 36 33 44 49 43 52 58 53 24 8 6 5 8 7 10 11 14 19 22 24 27 40 38 40 41 40 56 54 49 44
100 100 100 100 100 100 100 100 94 87 91 92 83 75 78 70 41 37 37 40 44 47 50 65 68 25 15 6 4 6 9 10 14 15 17 21 23 28 34 42 50 40 56 67 66 77 70
87 100 100 100 100 100 100 100 97 86 95 92 84 73 69 66 42 46 43 39 42 43 46 60 67 31 12 8 4 5 8 9 11 14 16 20 24 32 33 42 31 42 50 51 56 69 68
88 100 100 100 100 100 100 100 100 91 96 85 78 66 68 66 43 56 48 41 45 48 46 54 75 47 19 10 5 4 7 8 10 12 16 18 18 20 24 28 25 36 37 38 50 49 54
100 100 100 100 100 100 100 100 100 98 98 76 77 70 76 54 46 56 54 47 44 43 52 48 63 66 26 14 6 4 6 8 10 11 15 18 20 19 18 21 27 38 45 43 39 35 35

GFSGBSN_250_rhum_066.txt.gz
RH
42 48 45 66 47 53 60 59 45 52 45 42 44 30 26 22 18 10 5 6 5 4 3 2 2 2 1 1 1 2 2 3 3 3 4 5 6 7 10 13 15 16 13 14 14 15 17
44 42 53 48 56 52 58 78 52 54 48 47 53 39 33 30 16 14 6 5 5 4 3 2 2 2 1 1 1 1 2 2 4 3 4 5 6 8 11 14 17 14 10 11 16 17 18
57 55 56 60 57 58 56 75 70 61 56 52 54 41 37 32 20 13 7 6 5 4 3 2 2 2 1 1 1 1 2 2 2 5 4 5 6 8 12 14 16 16 13 13 16 19 18
74 67 64 73 66 52 71 73 79 70 61 54 47 48 40 35 30 20 8 7 6 5 3 2 2 2 2 1 1 1 2 3 3 5 5 5 6 8 11 13 16 19 15 13 10 18 17
85 67 74 70 69 52 81 85 81 75 61 59 54 56 40 47 38 22 13 7 6 6 4 2 2 2 2 2 1 1 2 2 4 3 7 6 6 8 11 14 15 16 19 14 12 16 18
56 81 74 77 78 60 78 92 89 77 69 65 63 54 51 49 45 22 14 6 8 6 4 3 2 2 2 2 1 1 2 2 3 4 9 6 7 9 11 12 16 20 21 14 13 17 20
80 97 97 90 79 76 74 99 97 81 77 70 64 62 51 54 46 26 23 8 9 6 4 3 2 2 2 2 2 2 2 3 3 7 10 8 8 9 12 12 13 18 22 24 18 18 22
100 90 85 98 100 84 77 98 100 93 76 69 73 61 60 53 48 36 37 23 8 7 6 3 3 2 3 2 2 2 2 3 3 6 8 10 10 11 12 12 13 18 23 24 18 16 20
100 100 100 100 100 93 87 99 100 99 74 72 74 61 70 62 51 46 40 37 14 7 5 5 3 2 3 3 2 2 2 3 4 6 7 12 12 11 13 14 13 13 20 26 24 19 18
99 100 100 100 100 90 90 99 100 97 83 73 80 73 76 58 54 54 52 36 20 10 4 4 4 3 3 4 3 2 3 3 4 4 7 13 13 12 13 14 14 14 15 21 23 23 22
80 100 100 100 100 94 82 100 100 100 84 73 82 76 79 64 69 57 59 38 26 13 6 3 4 3 3 4 4 3 3 3 4 7 10 16 15 13 14 15 16 15 14 16 18 21 25
78 100 100 100 100 100 79 100 100 100 84 91 88 80 83 66 78 59 58 37 29 15 8 5 4 4 4 4 5 4 3 4 6 7 9 11 13 13 12 13 15 16 15 15 18 21 25
75 100 100 100 100 100 82 99 100 100 89 94 92 84 88 68 78 64 56 42 29 18 9 7 5 5 4 4 5 6 4 4 6 10 10 9 13 15 14 14 15 15 17 18 18 23 26
74 100 100 100 100 100 79 100 100 100 94 89 94 87 87 85 78 61 62 45 30 19 13 6 6 5 6 4 5 7 6 5 6 8 19 20 18 21 20 18 17 18 18 22 26 30 34
80 100 100 100 100 100 76 100 100 100 100 92 88 98 88 82 76 64 70 44 31 22 13 8 6 5 5 5 5 6 8 8 6 8 13 21 31 33 35 32 26 24 23 25 28 31 33
87 100 100 100 100 100 86 100 100 100 100 97 91 99 93 89 79 61 69 43 30 25 16 12 7 6 7 6 5 6 8 10 11 10 13 20 26 31 32 34 34 28 24 23 24 26 28
89 100 100 100 100 100 94 100 100 100 100 99 95 96 90 84 87 59 72 39 31 25 17 19 8 8 9 7 6 6 7 10 12 13 15 17 18 29 36 41 39 35 34 32 30 28 26
79 96 100 100 100 94 98 100 100 100 100 96 89 92 87 88 84 59 67 40 34 27 28 23 11 7 7 8 7 6 7 9 12 13 16 18 19 24 33 39 45 47 40 41 42 39 35
86 82 100 100 100 93 100 100 100 100 100 92 90 95 88 86 83 63 62 39 36 30 36 27 16 10 6 7 7 6 7 8 12 14 15 18 21 26 28 34 42 52 49 59 45 41 41
79 95 100 100 100 95 100 100 100 100 100 89 88 98 91 89 80 68 60 37 36 36 37 35 22 9 7 6 7 7 8 8 10 14 16 17 21 28 35 34 39 43 36 36 43 56 52
98 97 98 100 100 100 100 100 100 100 100 88 89 94 98 90 78 68 64 38 38 44 46 47 24 13 7 6 5 6 7 9 9 12 17 18 20 20 27 32 36 43 53 49 47 38 43
100 100 100 100 100 100 100 100 100 100 100 82 92 93 98 98 68 71 60 40 42 44 53 57 37 19 10 7 4 4 5 8 9 10 13 20 20 20 22 27 34 43 43 46 43 43 49
100 100 100 100 100 100 100 100 100 100 100 82 98 100 96 90 71 77 65 42 49 44 47 51 64 40 17 10 6 4 4 6 9 11 12 14 21 28 24 22 21 27 26 37 40 42 48
98 100 100 100 100 100 100 100 100 100 100 86 99 99 99 90 70 71 59 41 50 49 45 56 60 62 25 14 10 6 5 5 7 10 10 12 17 24 28 34 33 26 27 26 29 33 38
69 100 100 100 100 100 100 100 100 100 100 90 100 100 97 90 60 70 52 42 50 48 45 58 55 63 55 18 14 11 6 5 6 8 10 11 13 15 18 26 30 35 42 50 46 44 36
74 100 100 100 100 100 100 100 100 100 100 94 100 100 98 87 76 66 48 40 49 48 50 57 52 59 63 27 19 13 9 6 6 7 10 11 13 15 18 22 28 20 26 36 45 61 64
81 100 100 100 100 100 100 100 100 100 97 96 97 100 100 85 76 69 47 52 47 47 52 48 56 60 71 52 33 18 18 9 8 7 9 12 13 16 18 21 22 31 33 34 37 63 48
78 100 100 100 100 100 100 100 100 100 99 100 100 100 100 89 80 68 51 49 56 45 52 58 60 65 65 70 52 42 26 19 9 7 9 11 15 17 20 23 24 45 41 45 54 55 62
60 95 100 100 100 100 100 100 100 100 100 100 100 100 100 89 75 68 55 54 53 47 50 60 47 56 61 77 67 48 43 23 17 10 8 10 13 15 18 24 27 31 42 49 54 55 56

GFSGBSN_250_rhum_069.txt.gz
RH
51 82 83 66 58 47 65 68 80 97 78 80 61 58 43 36 39 28 23 10 5 6 4 4 2 2 2 2 1 1 1 2 2 3 3 4 5 6 8 12 18 23 18 13 12 12 18
56 88 85 76 62 51 49 55 96 95 88 88 66 62 49 42 44 34 30 12 6 7 6 4 3 2 2 2 1 1 1 2 2 3 4 4 5 6 8 10 11 18 20 16 16 17 18
46 64 83 67 73 60 53 56 99 96 97 86 67 69 56 44 43 40 30 15 6 6 6 4 3 2 2 2 1 1 1 2 2 3 4 4 5 5 8 11 12 18 22 18 20 19 19
66 53 65 55 67 53 55 43 87 97 100 93 78 74 57 47 53 46 32 17 7 6 7 6 3 2 2 2 2 1 1 2 2 3 4 4 4 6 7 11 13 17 30 23 21 20 12
77 75 75 64 57 48 41 62 86 100 100 100 84 82 61 53 57 49 36 27 8 6 8 6 3 2 2 2 2 1 1 2 3 4 5 5 5 6 8 12 16 23 28 26 20 15 16
74 89 69 50 55 48 42 84 98 100 100 100 85 84 71 55 58 52 33 24 10 6 10 8 4 2 2 2 2 2 1 2 3 4 5 7 6 7 9 12 12 14 24 26 20 20 15
78 65 50 50 62 50 47 66 100 98 100 97 90 88 79 63 64 54 38 33 13 7 10 8 4 2 2 2 2 2 1 2 3 4 5 8 6 8 11 12 14 23 32 23 28 20 16
43 41 44 42 48 62 53 64 100 96 100 98 94 91 83 75 72 55 41 36 21 7 10 7 4 3 2 3 2 2 2 2 3 4 4 8 9 8 9 10 12 13 15 21 24 22 16
40 50 59 50 68 63 56 87 100 100 100 100 98 94 87 82 73 65 46 42 32 12 9 8 6 3 3 3 2 2 2 2 4 5 8 10 11 11 12 13 13 14 22 30 27 22 19
60 66 72 77 76 60 72 98 100 100 100 100 98 96 86 80 83 68 48 51 44 16 8 9 6 4 3 3 3 2 2 3 4 5 6 9 14 13 12 13 15 17 19 21 24 21 20
66 91 82 76 77 68 84 100 100 100 100 100 100 99 92 80 80 75 57 50 50 25 9 8 6 4 4 3 4 3 3 3 3 5 6 8 15 16 15 14 15 15 17 22 28 29 25
86 86 98 79 77 71 88 100 100 100 99 100 100 100 94 79 82 78 58 52 57 36 16 9 6 5 5 4 4 4 3 4 5 6 6 10 14 16 15 15 15 15 16 17 20 22 22
77 79 70 81 75 78 95 100 100 100 100 100 100 100 91 82 88 77 61 56 61 43 19 11 7 6 6 5 5 6 4 3 5 7 7 8 13 16 17 17 19 18 16 15 15 19 26
60 79 92 90 91 78 95 100 100 100 100 100 100 100 91 84 84 78 67 58 66 53 25 13 8 5 8 7 6 7 8 5 5 8 11 9 13 17 18 17 17 16 17 17 16 16 20
55 74 78 77 100 84 91 100 100 100 100 100 100 100 96 80 88 84 72 60 73 48 27 18 8 6 6 8 6 6 9 9 5 6 13 17 17 20 22 20 18 18 18 19 22 22 21
38 70 83 74 80 89 94 100 100 100 100 100 100 100 96 78 91 90 76 74 74 46 29 19 10 7 6 8 7 6 7 11 8 7 8 17 25 24 23 23 22 21 20 22 21 24 23
73 75 74 64 73 100 100 100 100 100 100 100 100 100 98 80 90 83 84 79 74 52 39 21 11 11 6 7 8 6 7 9 12 10 12 10 14 30 39 37 33 29 25 24 27 31 31
61 48 56 70 76 97 100 99 100 100 100 100 100 99 89 91 89 80 86 84 78 51 42 28 14 10 7 6 6 6 7 7 11 12 12 14 15 17 18 27 34 36 34 31 27 27 26
52 60 55 58 93 98 100 98 100 100 100 100 100 95 85 97 89 86 81 88 79 51 43 40 19 9 10 8 7 6 6 8 9 11 13 13 16 17 20 27 34 41 42 41 35 33 33
58 64 59 62 93 100 100 100 100 100 100 100 100 95 95 93 91 85 83 97 69 49 42 36 34 12 10 8 8 8 6 7 9 10 12 15 16 19 21 26 29 33 39 42 41 44 44
47 54 52 71 100 100 100 100 100 97 97 100 100 99 92 97 94 84 89 85 64 48 43 44 43 28 14 8 9 8 7 6 8 10 11 15 17 19 20 21 27 32 37 35 45 40 47
71 53 78 80 94 100 100 100 92 100 100 100 100 99 93 96 90 91 95 81 66 47 45 45 42 34 16 14 10 9 8 6 7 9 11 13 17 19 21 27 29 30 32 35 42 41 43
63 69 75 87 100 100 100 100 100 100 100 100 100 94 98 92 100 98 88 85 70 49 37 42 49 50 44 17 15 12 12 11 8 8 9 11 12 21 22 23 26 31 31 33 35 37 35
68 70 67 73 100 100 100 100 100 100 100 100 100 95 100 94 99 98 92 84 74 49 38 41 50 57 56 28 16 12 11 11 12 9 8 10 11 13 17 21 23 26 26 32 41 52 51
61 50 41 73 100 100 100 100 100 100 100 100 99 97 100 100 96 89 88 80 72 51 39 35 50 56 67 59 30 23 17 14 12 11 9 9 11 12 12 17 23 31 30 30 30 33 36
73 78 65 65 100 100 100 100 100 100 100 100 100 100 100 100 99 92 85 80 71 52 40 40 43 54 62 80 37 34 22 21 20 14 13 11 11 13 16 14 16 31 28 42 50 54 61
58 50 83 83 100 100 100 100 100 100 100 100 100 100 99 96 100 85 85 82 73 56 42 38 40 48 57 66 76 51 35 36 23 20 16 13 11 12 13 16 19 24 25 32 33 63 55
59 58 65 87 100 100 100 100 100 100 100 100 100 96 93 99 100 90 79 82 78 60 45 40 43 46 48 56 69 74 53 38 38 26 21 14 12 11 11 13 16 22 24 22 29 40 43
52 46 60 83 100 100 100 100 100 100 100 100 100 100 99 98 100 89 79 83 84 69 55 41 42 55 44 51 61 74 81 63 51 32 21 18 18 14 12 13 15 21 25 26 27 38 50

GFSGBSN_250_rhum_075.txt.gz
RH
88 100 97 82 50 66 90 72 93 99 70 72 88 56 78 77 66 60 56 54 41 29 23 12 7 5 4 2 1 1 1 2 1 1 2 2 3 3 3 4 4 6 13 16 19 18 21
42 92 72 84 70 56 77 78 100 92 92 61 65 62 81 78 77 69 73 56 47 30 26 11 8 6 4 2 1 2 1 2 1 1 2 2 3 3 4 4 5 7 10 15 20 23 23
99 34 100 100 94 83 94 96 68 84 90 70 60 69 75 70 74 78 77 54 55 32 27 11 7 6 4 2 2 2 2 1 1 1 2 2 3 3 4 5 6 9 12 18 20 32 26
100 44 48 76 87 99 82 91 89 66 72 77 66 63 87 60 83 85 79 53 57 37 24 14 8 7 4 2 2 2 2 1 1 1 2 2 3 4 4 5 6 10 13 14 18 34 41
100 93 86 100 100 100 100 100 72 62 72 64 59 48 57 70 82 91 82 56 60 46 28 13 9 8 3 3 2 2 2 1 1 1 2 2 3 5 5 6 7 10 13 20 30 36 67
100 100 99 97 100 71 100 100 77 78 83 65 54 55 58 85 87 87 81 61 60 46 26 12 9 7 3 4 3 2 2 1 1 1 2 2 3 6 6 6 7 11 12 21 30 35 83
95 86 98 82 92 99 86 87 80 82 71 68 47 58 68 100 96 87 83 67 68 47 30 12 8 5 3 3 2 2 2 1 1 1 2 3 4 7 7 8 12 23 16 27 32 49 70
65 59 64 85 80 67 75 74 66 78 77 60 55 57 75 100 100 94 82 72 63 56 31 12 10 6 4 4 2 2 2 1 2 2 2 3 5 9 9 12 14 16 28 34 27 41 57
20 23 41 58 64 66 66 77 69 72 70 65 56 53 78 100 100 95 85 76 57 59 29 12 10 8 6 4 3 2 2 2 2 2 3 4 6 11 11 12 16 25 27 23 25 32 44
10 10 10 16 33 40 29 43 43 48 47 68 73 47 94 100 99 94 86 84 62 60 28 14 11 8 7 6 3 2 3 2 2 2 3 4 7 12 12 12 13 15 31 22 16 33 23
8 9 10 10 11 13 16 20 41 43 46 54 64 57 100 100 100 98 94 82 71 59 31 16 12 8 7 7 4 3 3 2 2 4 4 4 7 14 11 11 10 12 17 19 22 17 16
7 7 8 10 11 17 20 21 32 30 55 86 65 67 95 100 100 100 97 78 74 65 34 22 14 9 6 5 4 3 3 4 3 4 5 6 8 12 14 14 11 12 13 16 16 14 11
6 7 8 10 11 14 19 23 35 29 54 86 65 88 100 100 100 100 99 76 74 71 43 21 17 10 7 5 5 3 3 4 3 4 6 6 8 14 15 13 16 15 13 15 14 10 10
6 7 6 8 11 16 21 23 25 21 42 72 99 100 100 100 100 100 100 80 76 72 48 26 19 14 10 6 5 4 4 5 5 4 6 8 14 20 22 19 16 20 15 14 17 13 14
5 5 5 6 9 17 22 23 22 15 43 100 100 100 100 100 100 100 100 86 81 72 54 28 19 19 12 8 7 5 3 5 8 5 6 6 10 14 18 20 19 18 19 19 19 18 19
4 5 5 5 7 14 18 22 20 24 66 100 100 100 100 100 100 100 99 89 85 64 55 34 18 21 17 9 7 6 5 4 6 9 7 7 9 9 14 18 20 18 18 19 18 17 17
4 4 4 5 7 10 15 17 16 38 64 100 100 100 100 100 100 100 94 88 85 61 58 54 26 18 15 10 8 7 6 5 5 8 11 9 9 11 13 14 18 19 18 17 18 19 21
3 4 4 5 5 8 15 17 14 44 100 100 100 100 100 100 100 100 94 86 78 63 60 68 29 20 16 11 9 9 8 7 6 6 9 13 12 11 12 17 19 20 19 19 18 18 19
3 4 3 3 7 8 16 22 61 76 100 100 100 100 100 100 100 100 98 83 75 64 63 74 34 24 22 16 13 9 9 9 8 6 6 10 15 14 12 10 14 18 21 22 19 19 19
3 4 3 4 7 9 43 56 79 89 100 100 100 100 100 100 100 100 91 81 77 68 64 80 44 28 26 23 18 12 10 10 10 8 7 8 10 14 16 15 15 18 21 23 26 24 22
2 3 4 4 6 19 52 86 68 100 100 100 100 100 100 100 100 100 87 85 75 77 69 74 57 41 32 29 20 17 11 11 12 12 8 7 8 9 13 17 18 18 19 19 25 24 26
2 3 3 4 9 38 100 88 100 100 100 100 100 100 100 100 100 100 86 83 73 80 78 76 62 56 39 30 22 20 15 12 13 14 14 11 9 9 10 12 18 19 20 22 23 24 28
3 3 4 7 31 100 100 100 100 100 100 100 97 99 100 100 100 95 89 82 79 86 81 75 58 57 44 33 26 24 24 16 13 15 15 15 18 14 10 11 13 16 18 22 24 26 28
4 3 4 13 94 98 88 73 100 99 100 100 100 100 100 100 100 95 92 83 92 83 84 72 63 54 50 38 34 32 28 26 19 17 15 16 19 25 25 15 13 13 15 21 29 32 32
4 4 5 24 100 100 100 93 100 100 100 100 100 100 100 100 100 98 92 89 94 82 98 79 71 58 49 39 38 40 40 38 26 23 21 18 17 21 25 24 19 13 12 16 19 22 35
4 4 7 90 100 100 100 100 99 92 100 100 100 100 100 100 99 99 89 89 93 86 90 85 76 65 56 39 37 40 40 49 49 40 30 22 19 17 22 26 30 29 21 18 20 29 37
5 4 19 91 92 100 100 99 100 99 97 98 100 100 100 100 91 90 97 92 87 88 87 94 76 68 59 46 34 40 43 53 46 60 44 40 35 30 24 21 24 27 28 30 27 24 23
13 22 56 96 100 100 98 100 100 100 99 100 100 100 99 95 90 95 100 90 81 83 83 92 82 75 66 53 40 33 38 46 49 57 65 57 56 41 44 38 30 25 24 23 28 31 31
36 42 65 82 69 68 90 100 100 100 100 100 100 100 100 94 85 97 100 84 94 94 88 90 87 82 67 63 52 39 31 34 45 50 58 63 62 54 43 43 51 51 28 29 24 22 25

GFSGBSN_250_rhum_078.txt.gz
RH
73 92 100 100 92 100 100 94 100 100 86 52 63 95 97 93 94 94 79 66 43 52 42 24 11 7 7 8 4 3 2 1 1 1 1 1 1 2 2 3 3 6 6 6 9 11 15
100 100 100 100 99 98 100 100 100 100 94 60 68 100 99 93 100 89 79 70 49 46 44 22 13 7 9 7 4 3 2 1 1 1 1 1 1 2 3 3 3 6 6 8 9 13 15
82 72 100 100 100 100 100 100 100 97 97 92 90 100 100 88 100 100 83 69 41 46 45 21 14 8 10 8 4 2 1 1 1 1 1 1 1 2 3 4 5 7 6 7 11 14 16
100 80 66 84 100 100 100 88 52 68 88 100 100 100 98 100 100 100 80 70 49 46 51 17 14 9 10 7 4 2 1 1 1 1 1 1 2 2 3 5 5 7 6 8 10 15 19
98 100 82 69 61 76 87 67 52 88 98 100 100 100 100 95 100 84 69 72 47 51 49 18 12 9 11 7 3 2 2 2 2 1 1 1 2 2 4 5 6 6 6 8 12 20 39
52 66 73 87 76 64 62 75 69 100 100 96 92 93 100 85 86 83 80 66 50 53 46 20 11 11 10 6 3 2 2 2 1 1 1 1 2 3 5 6 6 5 7 8 11 21 18
13 17 35 54 58 66 77 92 100 90 81 97 77 64 70 77 79 78 74 58 50 70 42 26 11 10 8 5 2 2 2 2 1 1 1 2 3 3 5 5 8 7 10 14 17 28 63
12 12 13 26 26 29 25 54 81 69 68 69 60 46 59 58 58 73 60 61 52 87 43 24 12 13 9 4 2 2 2 2 1 2 2 2 3 4 6 8 6 8 10 16 34 27 38
12 11 9 8 9 9 13 16 18 24 33 34 29 37 46 51 61 78 54 76 74 74 45 30 17 14 10 4 3 3 2 2 2 2 2 2 4 6 9 11 10 9 12 17 43 31 22
8 8 9 8 8 7 10 13 15 14 15 17 22 35 43 38 63 98 92 81 95 74 46 34 19 16 10 4 4 3 2 2 2 2 3 3 4 7 9 9 11 13 14 26 24 42 44
8 7 7 8 7 7 7 11 16 14 21 24 25 20 38 68 87 100 100 97 92 71 51 32 18 18 10 7 5 4 3 3 2 3 3 3 5 9 13 13 13 17 47 44 60 65 40
7 6 5 7 6 6 6 8 16 16 19 17 16 22 74 62 100 100 100 100 88 73 62 33 17 18 9 8 7 4 3 3 3 3 4 5 6 9 12 13 16 23 32 34 46 37 42
7 6 5 5 6 7 7 6 10 13 19 17 15 27 85 100 100 100 100 100 85 72 61 33 15 18 8 7 7 5 3 3 3 4 5 6 8 12 15 15 16 22 24 36 20 25 28
6 5 4 4 5 6 6 6 8 12 14 14 19 46 100 100 100 100 100 100 84 76 66 35 17 16 8 6 6 6 5 4 4 5 5 6 10 12 16 16 14 15 15 14 16 14 26
5 4 4 4 4 6 6 7 7 11 13 12 24 84 100 100 100 100 100 100 77 77 68 36 19 15 10 7 6 6 6 4 5 5 6 6 10 16 18 15 16 14 12 12 14 13 12
3 3 3 4 4 6 5 6 7 8 10 13 32 100 100 100 100 100 100 94 76 78 69 38 24 15 12 8 8 6 6 5 5 7 7 7 7 10 19 20 19 18 16 16 16 13 13
2 2 2 3 3 4 4 4 6 4 4 16 58 100 100 100 100 100 100 89 76 81 68 50 30 19 16 11 6 8 8 7 5 6 8 10 10 11 10 16 21 22 22 19 22 16 15
2 2 2 2 4 3 3 4 5 6 8 26 100 100 100 100 100 100 100 80 74 83 68 53 37 26 18 16 10 6 7 8 7 6 6 10 12 13 16 17 20 22 22 24 20 21 20
2 2 2 3 4 4 4 4 5 6 26 84 100 100 100 100 100 100 97 78 80 82 67 64 41 28 24 16 14 9 7 8 9 7 6 7 10 14 15 15 17 22 25 24 22 21 19
2 2 3 4 4 4 4 5 6 13 42 95 100 100 100 100 100 100 95 74 89 82 63 71 44 30 24 18 16 16 11 9 10 10 8 7 8 10 15 17 19 21 25 26 29 32 32
2 2 3 4 5 5 4 5 8 29 78 100 100 100 100 100 100 100 91 74 86 88 66 72 53 38 24 20 15 18 18 14 10 12 12 11 8 8 9 12 16 17 20 23 28 27 28
2 2 4 4 5 4 5 7 19 52 94 100 100 100 100 100 100 99 80 81 84 99 70 73 61 48 37 26 20 17 17 20 17 12 12 12 14 15 9 10 10 14 18 20 23 26 27
2 3 4 5 6 6 6 11 35 89 100 100 100 100 100 100 100 96 76 83 83 99 80 83 64 57 45 40 34 28 25 20 23 18 14 12 12 14 16 17 11 11 12 15 20 22 24
2 4 4 6 6 5 5 18 56 98 100 100 100 100 100 100 100 95 77 80 83 100 88 86 71 61 44 47 40 47 43 36 26 24 24 20 16 13 16 17 21 22 21 17 14 15 19
3 5 5 6 6 5 11 37 70 100 100 100 100 100 100 100 98 90 79 82 83 100 89 92 72 63 57 48 39 36 46 47 44 39 32 27 23 22 24 20 21 24 22 22 25 28 23
5 7 6 6 6 6 20 62 100 100 100 100 100 100 100 100 98 94 85 81 80 94 86 89 74 66 57 59 50 40 34 39 45 55 48 36 30 30 35 37 34 42 28 22 20 19 22
6 6 7 7 6 8 30 56 100 100 100 100 100 100 100 100 100 93 87 81 79 90 80 82 88 77 66 62 60 46 43 39 40 44 54 51 45 38 33 34 42 47 42 41 39 34 29
6 7 12 15 10 34 50 66 100 100 100 100 100 100 98 99 100 94 95 83 73 83 82 81 90 85 69 63 62 60 53 58 47 41 41 44 52 50 41 38 41 40 38 40 46 39 34
9 14 41 26 33 50 59 100 100 100 100 100 100 100 100 97 100 98 96 80 73 79 83 76 84 94 77 68 62 58 60 58 61 51 47 42 44 49 54 49 53 56 48 40 39 37 50

GFSGBSN_250_rhum_081.txt.gz
RH
100 100 100 100 100 100 91 88 86 92 79 79 87 89 88 97 100 100 95 67 89 97 76 56 57 35 13 8 10 6 5 2 2 2 1 1 1 1 2 2 2 3 3 4 5 8 11
99 100 97 99 100 100 100 100 100 100 100 100 68 79 97 100 100 100 81 78 98 92 68 54 53 29 11 10 10 6 4 3 2 2 1 1 1 1 2 2 2 3 4 5 6 9 13
59 64 78 100 99 78 66 86 62 100 88 100 100 95 100 100 100 91 80 70 93 88 80 49 48 28 8 11 10 6 4 2 2 1 1 1 1 1 2 2 3 3 4 6 7 10 12
12 13 16 38 54 76 90 97 88 100 94 80 78 88 70 56 84 91 75 68 100 84 62 46 37 23 9 12 10 8 3 3 2 1 1 1 1 1 2 3 4 4 4 5 7 8 12
21 17 13 15 14 29 46 49 70 70 99 100 94 100 100 85 61 75 73 88 87 74 59 40 28 18 11 12 9 6 4 3 2 2 1 1 1 2 2 3 4 5 6 7 5 9 12
36 29 20 13 13 12 14 22 31 31 55 91 100 100 96 100 87 91 92 100 80 66 43 35 28 14 12 10 7 4 4 2 2 2 1 1 1 2 2 3 5 6 6 8 8 10 12
36 37 26 17 11 12 11 10 8 9 12 21 28 29 41 55 59 83 91 90 64 52 32 34 15 10 14 8 6 4 3 2 2 1 1 1 2 2 3 4 6 6 6 4 7 15 20
35 33 28 18 12 10 11 9 8 7 10 16 23 25 32 45 38 58 68 55 38 30 33 27 12 13 17 9 6 4 2 2 2 1 1 1 2 3 4 6 8 6 6 8 10 21 33
35 26 25 19 13 10 8 9 9 8 9 12 19 24 25 19 35 45 39 32 32 32 33 19 12 17 18 10 6 4 3 2 2 2 2 2 2 3 4 6 8 8 8 12 16 32 86
41 31 20 14 9 8 6 8 8 8 7 10 14 15 22 29 26 24 26 38 47 47 41 20 15 23 16 10 6 3 3 2 2 2 2 2 3 4 6 7 10 8 10 14 16 32 64
44 35 17 12 8 5 5 5 7 7 8 12 9 13 23 23 20 22 45 70 67 62 40 25 18 26 15 12 6 4 3 2 2 2 2 3 4 8 12 11 9 7 11 17 31 36 44
38 25 15 8 6 6 4 4 7 7 7 10 10 13 21 20 28 40 78 93 98 88 42 26 21 28 15 11 6 4 4 3 3 3 3 4 5 6 6 9 11 11 14 17 24 29 26
28 14 9 5 5 4 4 4 6 7 8 11 9 14 18 25 38 75 90 100 100 89 43 25 25 24 16 9 6 5 4 3 3 3 4 5 5 10 10 10 9 10 19 33 34 18 25
16 9 6 5 3 3 3 4 6 7 9 8 11 11 15 25 66 96 99 100 100 98 51 29 25 24 15 8 6 5 5 4 4 4 4 5 8 11 13 13 12 18 37 36 28 18 14
7 5 4 2 2 2 3 4 5 6 6 7 12 12 17 46 100 100 100 100 100 95 58 34 26 26 13 8 6 4 5 4 4 4 6 6 7 12 16 14 21 33 54 34 24 22 15
6 4 2 2 2 2 3 4 4 4 4 8 10 12 14 48 100 100 100 100 100 98 62 42 25 27 13 8 6 5 5 4 4 5 7 7 7 11 16 21 16 17 15 16 18 15 18
5 2 2 2 2 2 2 3 3 3 3 6 10 12 16 64 95 100 99 100 100 94 67 49 25 25 15 8 6 6 6 6 5 5 6 9 8 9 15 18 18 16 13 13 12 12 12
3 2 1 1 2 2 2 4 3 3 5 8 10 11 36 72 100 100 99 100 100 96 66 46 32 21 17 10 7 8 7 8 8 6 6 8 9 11 14 14 18 17 16 16 16 16 16
2 2 1 2 2 2 2 4 4 5 11 11 10 12 28 72 100 100 99 100 100 90 70 53 31 21 17 13 9 7 8 9 9 9 8 7 9 12 13 16 18 20 20 19 21 21 20
2 2 1 2 2 2 2 3 4 7 15 12 11 16 45 100 100 99 100 100 98 85 66 58 39 28 19 14 12 9 8 9 10 10 12 10 9 11 14 16 21 27 27 27 25 26 24
2 2 2 2 2 3 4 4 5 8 10 10 14 32 88 100 100 97 100 100 94 83 63 60 50 36 26 19 13 12 12 12 12 11 11 15 17 10 13 16 19 26 30 31 25 25 29
2 2 2 3 3 3 6 6 7 8 10 12 24 82 100 100 100 97 100 100 90 81 60 62 52 46 36 29 22 21 14 17 16 13 14 15 14 17 16 13 14 16 18 22 29 35 37
2 2 2 3 4 5 7 7 9 8 11 15 47 100 100 100 97 100 100 97 84 80 58 62 52 49 44 38 29 28 23 29 24 21 20 20 19 19 18 18 20 18 14 14 17 22 24
2 3 4 5 5 6 6 6 8 9 15 37 80 92 100 98 88 100 100 98 84 79 56 64 56 53 52 48 34 36 31 29 29 33 28 26 26 24 21 17 19 25 24 24 24 23 20
3 4 5 6 7 8 8 7 9 9 19 51 89 97 89 99 100 100 100 92 83 81 60 68 59 59 58 53 40 39 39 38 40 38 36 35 33 35 39 36 34 35 31 30 28 28 27
3 4 6 7 10 12 14 16 23 30 50 87 97 87 90 91 100 100 100 85 84 82 69 69 66 63 61 57 50 41 41 46 42 43 44 44 43 35 38 39 39 39 38 43 37 40 42
4 5 7 7 10 15 20 21 27 41 75 100 100 100 84 89 100 100 96 82 84 82 75 73 76 70 68 60 56 53 43 41 45 48 49 50 45 47 46 46 47 46 42 40 41 47 45
4 6 8 8 13 19 23 30 44 54 86 100 100 98 75 92 100 100 96 84 84 80 80 80 80 81 74 70 61 57 59 55 49 52 51 53 59 63 57 58 60 53 55 56 53 47 42
5 10 10 9 11 16 32 54 72 81 86 100 100 98 71 97 100 100 99 89 85 84 82 82 87 86 81 75 68 68 68 61 59 63 66 64 51 58 66 63 60 71 66 65 60 54 53

GFSGBSN_250_rhum_084.txt.gz
RH
15 15 15 19 30 32 34 38 51 85 85 100 84 95 88 92 93 90 100 100 96 78 98 74 69 60 40 36 12 10 11 12 7 3 2 2 1 1 1 1 1 2 2 2 2 2 3
20 20 19 21 17 16 14 14 17 34 44 49 90 100 97 94 89 93 84 81 96 86 100 86 73 46 38 23 10 10 12 11 6 3 2 2 1 1 1 2 2 2 2 2 2 2 4
31 30 29 26 29 30 26 16 10 10 9 13 27 48 82 60 93 89 97 91 100 100 90 83 74 35 24 10 7 12 13 10 5 3 2 2 1 1 2 2 2 2 2 2 2 3 5
51 51 50 42 35 39 40 19 18 13 9 10 10 12 26 45 75 92 100 84 90 99 93 91 78 33 15 8 8 10 13 8 4 2 2 2 1 2 1 1 1 2 2 2 3 4 6
74 68 58 57 52 46 45 41 22 16 14 12 11 11 14 14 24 51 65 69 70 89 88 91 58 19 12 8 8 11 9 5 3 2 2 1 1 1 1 1 2 2 3 4 4 5 5
66 75 69 66 47 38 35 43 37 19 17 14 12 9 12 13 16 23 28 35 53 58 89 55 25 17 9 8 10 10 6 4 2 2 2 2 1 1 1 1 2 3 4 4 5 5 6
88 85 78 60 41 33 19 28 38 22 13 16 9 8 10 10 8 17 20 23 25 30 29 20 18 10 9 11 11 7 4 2 2 2 2 1 1 1 1 2 3 5 4 5 5 5 12
77 76 70 58 46 34 25 20 20 22 13 11 11 8 9 8 7 13 14 19 18 23 23 23 12 8 11 12 9 6 4 3 2 2 2 1 1 1 2 2 3 4 6 6 5 4 6
92 86 76 56 40 29 20 14 10 12 9 8 9 8 8 7 7 13 15 19 19 24 19 18 12 9 13 13 8 5 4 3 2 2 2 2 2 2 2 3 4 6 7 7 6 6 9
92 88 75 55 30 26 15 9 7 6 7 7 7 8 8 8 9 15 19 17 21 22 22 15 8 12 16 10 6 5 3 3 2 2 2 2 2 2 3 4 6 7 7 6 6 7 7
99 82 54 42 32 16 9 6 5 5 6 6 6 7 7 8 12 17 21 20 21 20 22 14 13 18 16 10 7 5 3 2 2 2 2 2 3 3 4 5 7 8 8 8 7 10 14
90 68 39 28 17 8 6 4 4 4 4 5 6 6 6 9 12 17 19 22 23 35 29 20 16 23 15 10 7 5 3 2 2 3 3 3 3 4 5 6 8 8 8 9 11 26 31
66 40 24 19 9 4 3 2 2 3 4 5 6 5 6 13 14 15 18 24 41 60 48 21 24 21 16 10 7 4 3 3 3 3 3 4 4 5 7 8 11 10 11 14 24 25 23
58 35 19 11 4 2 2 1 2 2 3 5 5 4 9 15 14 16 22 50 83 86 49 20 30 23 15 9 6 4 4 3 3 4 4 5 6 9 11 11 12 11 13 24 30 22 38
40 22 15 5 2 2 1 1 1 2 3 3 2 5 10 11 12 17 35 77 100 93 37 28 31 25 14 7 5 4 4 3 4 5 5 5 6 8 12 12 13 13 14 25 28 32 52
20 15 8 2 2 1 1 1 2 2 2 2 3 7 9 8 11 21 56 100 100 78 32 40 34 22 10 6 5 4 4 4 4 5 6 6 6 8 11 13 13 14 18 21 23 20 35
20 10 3 2 2 1 1 2 2 2 2 3 5 8 11 9 13 34 86 100 99 70 44 40 35 18 9 6 4 4 4 4 4 5 6 8 8 8 10 13 13 11 11 12 13 12 11
12 6 2 2 2 1 2 2 2 2 3 5 7 7 9 12 20 57 93 100 98 83 59 36 32 17 10 7 4 4 4 5 6 6 7 7 8 10 12 12 15 15 15 15 15 15 18
10 3 2 2 2 2 2 2 2 3 5 6 11 9 9 11 30 75 100 100 96 82 58 39 34 18 12 9 6 5 5 4 6 8 8 8 8 9 10 11 13 13 19 21 22 22 23
6 2 2 2 2 2 3 3 4 5 7 8 10 12 11 12 43 84 100 93 96 77 57 48 33 22 15 10 8 6 5 6 8 9 11 10 9 10 10 10 11 14 17 17 20 25 24
3 2 2 2 3 3 3 4 5 5 7 8 16 13 14 39 70 100 81 95 90 67 67 54 39 27 19 13 11 10 9 9 11 12 13 14 15 14 12 13 14 14 14 15 20 22 27
2 2 2 3 4 4 4 4 6 7 8 11 14 13 22 67 86 75 81 92 81 67 66 56 46 34 24 19 17 14 11 11 14 17 18 21 24 24 23 25 26 24 21 20 18 17 18
2 2 2 4 4 6 5 6 7 10 13 15 12 13 42 77 80 63 84 91 78 68 68 62 55 42 31 26 24 21 19 17 16 17 20 25 23 27 29 27 32 34 31 32 30 30 26
2 2 3 5 5 6 6 7 9 12 16 16 16 31 58 76 85 76 85 86 73 70 68 64 63 50 41 37 35 32 32 32 29 27 25 25 28 35 42 41 42 41 40 40 40 50 50
2 3 4 6 6 6 8 9 12 16 17 18 18 36 54 91 84 84 84 82 74 72 70 69 66 64 57 45 40 38 39 38 36 36 37 35 32 28 32 34 36 36 33 37 37 37 38
4 4 4 8 7 7 8 9 11 13 14 15 33 54 80 86 86 82 86 82 72 63 71 72 66 64 60 59 54 51 47 44 39 40 41 43 42 38 44 44 40 43 40 44 46 41 38
5 4 7 9 8 8 8 9 12 13 20 38 61 79 92 87 84 84 86 82 71 69 66 77 74 69 62 58 58 57 51 50 48 47 45 48 52 47 43 45 55 60 56 57 50 55 54
6 6 11 10 10 8 10 10 23 29 44 59 82 96 90 100 85 88 98 86 78 75 77 79 83 77 68 61 57 60 57 52 48 49 52 55 54 60 56 55 58 59 61 63 70 72 73
7 8 14 14 12 10 16 24 37 58 65 82 88 99 98 100 91 93 93 87 78 76 84 88 86 84 80 74 68 64 67 70 67 58 56 55 59 62 64 67 61 59 63 66 71 75 67

GFSGBSN_250_rhum_087.txt.gz
RH
39 35 33 33 33 34 35 41 33 22 18 16 12 10 9 8 8 10 13 27 50 78 59 69 78 83 73 64 45 31 19 11 8 8 8 6 4 3 2 2 1 1 1 1 1 1 1
68 55 61 52 43 41 54 47 40 35 30 26 20 12 10 10 8 7 7 9 26 44 52 55 73 56 62 54 39 26 10 6 10 9 7 5 2 2 2 1 1 1 1 1 1 1 1
74 78 70 67 69 68 62 53 53 50 46 37 30 15 11 10 9 8 6 6 11 15 26 36 40 45 45 38 39 27 8 8 10 8 6 3 2 2 2 1 1 1 1 1 1 1 2
86 88 98 89 85 96 82 67 46 31 31 36 30 27 15 10 10 7 6 6 7 10 11 18 25 33 41 32 20 13 9 11 9 8 4 3 2 2 1 1 1 1 1 2 2 2 2
100 100 99 93 96 90 86 75 53 41 28 26 29 28 19 8 10 8 6 7 8 9 12 13 16 17 17 16 9 6 8 8 8 5 4 3 2 2 1 1 1 1 1 1 2 2 4
90 98 100 100 100 95 80 78 56 34 22 24 23 22 19 8 9 8 7 8 8 12 12 11 11 12 12 7 6 7 7 7 6 4 3 2 2 2 2 1 1 1 1 2 2 3 3
100 100 97 100 100 94 76 53 42 37 22 18 16 16 15 7 8 9 8 8 8 12 13 9 9 12 6 5 7 8 7 6 4 3 2 2 2 2 1 1 1 1 2 2 3 4 5
100 100 100 100 100 86 55 36 26 24 17 11 9 10 10 6 8 7 7 8 10 11 12 8 9 8 5 8 7 7 6 5 4 2 2 2 2 2 1 1 1 2 3 4 4 6 6
100 100 100 100 92 55 33 24 15 9 7 6 6 6 7 5 7 7 8 9 12 10 9 9 8 7 11 8 6 7 6 5 3 2 2 2 2 2 2 2 2 3 3 4 4 7 8
100 100 100 98 62 34 27 15 8 5 4 4 4 4 5 5 7 7 8 10 12 10 11 11 9 14 12 12 6 5 4 3 2 2 2 2 2 2 3 3 4 4 5 5 5 7 11
100 100 86 76 45 24 16 7 3 2 2 2 3 4 4 5 6 7 9 11 13 11 15 11 14 16 21 11 6 5 3 2 2 2 2 2 2 2 3 4 5 5 6 6 6 10 16
100 99 56 39 23 12 5 2 2 2 2 2 2 3 4 4 6 8 10 14 13 14 14 15 20 23 15 10 7 4 4 3 3 2 2 2 3 3 4 4 6 6 7 8 12 14 14
100 97 46 21 12 5 2 2 2 1 1 1 2 2 3 5 7 8 11 14 16 16 15 25 30 22 14 8 6 4 4 3 3 2 2 3 4 4 6 5 7 8 11 10 13 17 13
100 91 26 12 4 2 2 2 1 1 1 1 2 3 4 5 6 9 10 14 16 16 24 32 33 19 11 6 5 4 4 3 3 2 3 4 5 7 9 10 10 12 12 12 13 13 16
90 47 13 6 3 2 2 1 1 1 1 2 2 3 4 5 6 7 13 18 15 28 41 45 28 14 9 6 5 4 3 3 3 3 3 4 6 8 11 12 12 14 13 11 13 20 24
32 15 5 3 2 2 2 1 1 1 1 2 2 3 4 5 7 10 19 14 34 54 50 39 19 12 7 5 5 4 3 3 4 4 4 4 5 9 10 10 10 11 13 12 14 19 26
12 8 3 2 2 2 2 2 2 2 2 2 3 4 4 6 9 16 17 25 49 60 47 25 15 9 6 6 5 4 3 3 3 4 5 5 5 9 11 12 11 10 12 11 12 15 18
11 4 2 2 2 2 2 2 2 2 3 4 4 4 6 10 17 22 17 42 66 50 35 18 13 9 7 6 4 3 3 4 4 4 6 6 6 8 13 17 17 15 16 17 17 21 21
8 3 3 2 3 3 3 2 2 3 4 4 6 8 12 17 18 17 42 69 53 44 27 17 13 10 7 5 4 3 4 4 5 5 7 8 8 10 12 17 22 28 27 27 26 28 30
5 3 3 3 3 3 3 3 3 4 5 6 7 11 18 25 16 37 77 60 43 37 26 19 14 10 8 6 6 5 5 5 5 6 7 8 9 11 12 15 17 21 22 25 26 27 40
4 4 4 4 3 4 4 4 4 5 8 10 12 15 18 17 35 67 68 54 39 34 28 20 17 13 10 8 7 7 7 7 8 8 11 11 11 14 14 14 13 13 16 16 23 22 25
4 5 5 4 3 4 4 4 4 8 14 16 16 18 24 28 53 64 61 58 42 34 31 26 22 18 15 13 11 11 10 11 12 14 15 16 16 17 17 16 15 17 20 20 22 23 24
5 5 6 4 4 5 5 5 6 10 14 18 19 20 25 35 69 68 66 58 52 44 36 29 28 25 23 21 18 16 15 15 17 16 16 18 17 16 17 20 22 26 26 27 28 32 30
5 5 6 5 5 6 6 6 8 12 17 27 36 36 42 72 71 70 70 68 58 53 49 40 34 33 37 30 27 27 27 28 27 25 24 25 30 32 36 43 50 54 53 51 48 52 49
5 6 6 6 6 7 8 8 8 14 23 26 44 40 59 78 74 66 68 67 60 57 60 58 48 46 47 44 41 37 37 40 40 37 39 38 37 37 36 35 36 39 41 49 54 56 55
6 6 6 7 7 10 8 9 12 17 21 36 47 50 64 87 76 72 69 71 64 64 62 60 62 57 51 50 47 47 47 45 50 51 52 55 53 54 54 54 53 54 53 52 48 44 43
6 7 7 8 10 11 13 12 15 20 36 55 59 59 87 96 84 77 72 69 73 72 68 65 61 58 55 54 49 46 47 47 50 50 52 55 59 59 56 57 58 58 64 58 61 58 53
7 9 8 11 12 14 13 15 26 53 67 66 68 69 94 97 94 82 78 69 73 78 80 74 73 67 60 55 54 55 58 60 61 60 58 59 57 55 58 58 60 59 66 70 68 68 58
13 9 14 13 14 14 14 22 54 75 84 85 90 86 91 100 100 98 85 72 72 77 71 79 76 78 72 66 64 64 68 69 67 72 72 68 62 62 67 60 57 60 62 64 68 70 76

GFSGBSN_250_rhum_090.txt.gz
RH
74 82 69 74 84 67 69 71 73 76 84 77 57 38 30 26 28 19 9 8 9 7 6 6 6 10 13 15 14 17 25 25 19 15 11 12 8 9 8 7 5 4 3 2 2 2 2
76 84 71 86 100 82 76 100 96 70 64 82 87 66 43 30 28 19 14 10 9 8 6 5 6 6 9 9 9 12 16 17 14 12 12 9 12 8 7 5 3 3 2 2 2 2 1
72 75 74 85 100 100 100 100 100 100 90 74 66 54 48 43 25 17 15 11 9 9 6 6 6 6 6 7 6 6 8 9 9 8 10 11 6 6 3 3 2 2 2 1 1 1 1
81 82 86 89 87 99 100 100 100 100 100 92 70 42 30 34 24 19 13 10 7 10 6 6 6 6 5 5 5 5 6 7 6 8 8 6 5 4 3 3 2 1 1 1 1 1 1
100 100 100 99 94 100 100 100 100 100 79 69 51 36 26 20 14 18 13 7 8 10 6 7 7 6 5 4 4 4 5 5 7 6 5 4 4 3 2 2 1 1 1 1 1 1 1
100 94 83 80 92 100 100 100 100 100 63 33 24 18 16 14 11 13 8 6 7 8 7 8 8 6 4 4 4 4 5 6 5 4 4 5 4 2 2 2 1 1 1 1 1 1 1
100 100 96 67 89 97 100 89 67 35 19 15 12 12 14 11 8 9 6 5 7 8 8 8 7 7 5 4 4 5 4 4 4 4 4 3 3 2 2 2 1 1 1 1 1 1 1
100 100 89 76 69 64 44 27 18 12 10 9 9 8 7 7 6 6 5 5 8 9 9 7 8 8 6 5 4 4 6 4 5 4 3 2 2 2 1 1 1 1 1 1 1 2 2
100 100 73 61 46 38 28 14 8 5 3 2 3 3 3 4 5 4 5 6 7 9 8 7 8 7 6 4 4 6 6 6 5 4 3 2 2 2 2 2 1 1 2 2 2 3 4
100 100 60 38 38 28 12 6 3 2 2 1 2 2 2 3 4 4 5 8 7 8 7 8 8 7 7 5 4 6 8 5 3 3 2 2 2 2 2 1 1 2 2 3 4 6 6
100 98 41 25 17 9 4 2 2 2 1 1 1 1 2 3 3 4 6 5 8 7 7 8 9 11 7 7 6 6 4 3 2 2 2 2 2 2 2 2 2 2 4 5 6 7 8
100 64 28 13 7 3 2 2 2 1 1 1 1 1 2 2 3 4 4 7 8 8 7 10 13 10 12 9 7 4 3 2 2 2 2 2 2 2 2 2 3 4 5 6 8 9 9
100 45 15 6 4 3 2 2 2 1 1 1 1 1 2 3 4 4 6 7 7 8 12 14 18 16 12 7 6 3 3 3 3 3 2 2 2 2 3 4 5 7 8 7 8 12 20
100 28 6 4 4 2 2 2 1 1 1 1 1 1 2 3 4 5 6 6 8 13 20 27 17 11 10 6 4 3 3 3 3 3 3 3 3 3 5 7 8 8 10 13 16 23 23
56 18 6 4 3 3 3 2 2 1 1 1 1 2 3 4 4 5 7 10 14 18 29 18 14 11 8 4 3 3 3 3 3 3 3 3 4 4 8 8 9 11 12 17 21 26 23
49 14 5 5 4 4 3 2 2 2 1 2 2 3 4 4 5 8 10 14 20 31 26 16 12 7 5 4 3 3 3 3 3 3 4 4 5 6 8 11 13 12 17 18 27 24 34
42 12 5 6 4 4 3 2 2 2 2 2 3 4 4 6 9 13 15 26 30 24 17 12 6 5 4 4 3 3 3 3 3 4 4 4 6 7 9 11 11 16 20 23 29 44 47
30 7 6 5 4 3 3 3 2 2 3 3 4 4 8 11 15 23 33 36 28 18 11 7 5 4 4 4 3 4 2 3 3 4 4 6 7 10 11 11 13 14 17 22 30 41 40
25 6 6 5 4 4 3 4 3 3 4 4 5 10 13 18 29 44 38 24 16 11 7 6 6 5 4 4 3 3 3 3 3 4 4 6 8 12 13 16 17 21 23 31 40 41 42
14 6 6 5 4 4 4 4 4 4 6 6 10 15 21 38 51 44 26 16 12 10 8 8 7 6 5 5 4 4 4 4 4 4 5 5 5 6 7 10 16 20 22 27 35 40 35
12 7 7 5 5 5 6 5 4 6 8 12 18 26 39 64 50 30 19 15 14 12 12 11 9 7 6 5 6 7 7 7 7 7 6 6 6 7 7 8 12 16 14 18 28 29 38
12 8 8 6 7 7 7 6 5 7 10 14 29 40 53 58 39 24 19 18 18 18 17 14 11 9 7 7 9 10 10 11 12 11 12 12 13 14 11 10 11 13 15 16 19 18 21
12 8 8 7 9 9 9 8 7 9 14 25 44 67 72 48 33 24 22 23 22 20 19 18 15 12 11 10 10 11 15 16 16 16 18 20 20 21 22 19 16 19 25 25 23 24 28
13 9 10 10 11 14 12 12 12 14 21 44 66 70 60 42 35 28 26 26 28 27 25 23 20 16 15 14 15 16 16 18 20 21 20 22 21 22 24 24 26 28 28 25 28 34 39
15 9 11 13 13 15 18 16 14 15 32 62 70 65 54 45 39 32 29 28 28 31 33 32 29 25 24 24 25 27 29 31 32 34 36 36 36 40 42 46 51 55 53 51 47 47 47
48 10 11 16 14 18 21 21 18 29 49 74 76 67 60 55 50 45 41 40 41 43 42 41 38 37 35 36 39 39 42 45 47 48 47 46 48 50 49 46 46 45 40 40 43 40 38
88 56 13 20 20 19 19 30 26 58 66 79 84 76 73 65 65 62 60 60 59 58 54 48 46 45 43 42 43 44 46 47 46 46 49 49 49 48 51 54 53 54 55 52 49 51 47
100 87 41 11 22 26 24 28 32 65 88 88 91 86 77 74 74 74 72 73 73 70 68 63 55 54 54 54 54 54 58 57 60 55 52 53 55 55 55 55 55 56 57 57 60 65 66
100 96 79 17 21 29 36 24 33 51 90 96 99 90 81 78 79 81 83 84 82 81 78 75 78 68 65 63 64 64 64 64 68 67 68 66 69 73 76 80 73 69 67 64 63 64 69

GFSGBSN_250_rhum_093.txt.gz
RH
100 100 100 100 100 100 100 94 91 77 83 90 93 97 100 99 82 54 38 30 24 19 15 8 7 7 6 5 6 6 7 8 10 12 11 14 14 12 12 9 7 8 7 10 10 8 6
100 98 100 100 100 100 100 100 100 100 95 91 92 98 97 92 67 55 47 23 22 18 15 9 7 6 5 4 5 5 4 5 6 7 8 10 10 10 10 8 8 8 10 10 6 5 4
100 100 100 100 100 100 100 100 100 91 100 100 100 100 94 67 67 49 37 25 17 17 13 9 6 6 6 4 4 4 4 4 4 4 6 8 8 8 8 8 9 9 8 6 4 3 3
100 100 100 100 100 100 100 100 90 83 88 95 100 100 96 68 40 25 20 16 16 15 13 10 6 5 6 4 5 5 3 3 3 4 4 6 7 9 11 9 7 6 4 4 3 2 2
100 100 100 100 100 100 100 100 85 76 79 75 84 80 65 47 31 16 12 13 15 10 11 9 5 5 6 5 5 4 3 3 3 3 4 5 7 7 6 6 4 3 3 3 2 2 2
100 100 100 100 100 100 100 97 61 36 32 23 15 15 13 10 10 11 9 10 10 10 10 7 5 6 7 5 4 4 3 3 3 3 4 4 4 4 4 3 3 3 3 2 2 1 1
100 100 100 100 100 100 96 56 19 7 6 4 4 4 5 6 6 7 8 8 9 8 7 6 7 7 6 5 4 4 4 3 3 3 3 3 3 3 3 3 3 2 2 2 1 1 1
100 100 100 100 100 62 33 18 8 6 4 3 2 2 2 2 3 4 5 7 6 7 7 6 8 7 6 5 4 4 4 3 4 3 3 3 3 3 3 3 2 2 2 1 1 1 1
100 100 100 100 56 27 12 8 7 4 3 2 2 2 2 2 2 2 3 4 5 6 7 8 7 6 6 5 5 5 4 4 3 3 3 3 3 3 2 2 2 2 2 1 1 1 1
100 100 100 81 16 7 7 6 4 3 2 2 2 2 1 1 1 2 2 4 5 6 7 8 7 7 5 5 5 4 4 3 4 4 4 3 3 2 2 2 2 1 1 1 1 1 2
100 69 42 9 6 6 5 4 4 3 2 1 1 1 1 1 1 2 3 4 5 6 6 6 6 6 6 4 5 6 6 6 5 4 3 2 2 2 2 2 2 2 2 2 2 2 2
100 57 20 7 6 4 4 4 3 2 1 1 1 1 1 1 2 2 3 4 6 5 6 6 7 6 5 5 6 8 7 5 3 3 2 2 2 2 2 2 2 2 3 3 3 3 3
100 48 12 7 5 4 3 2 2 2 1 1 1 1 1 1 2 3 3 4 4 6 7 8 6 5 8 7 7 4 3 3 3 2 2 2 2 2 2 2 3 4 4 5 6 6 6
100 29 9 7 6 4 3 2 2 2 1 1 1 1 1 2 2 3 4 4 6 8 8 6 7 10 10 6 4 3 3 3 2 2 2 2 2 3 3 3 4 6 6 7 12 11 11
68 9 8 7 5 4 3 2 2 2 1 1 1 2 2 3 4 4 5 7 7 6 8 11 12 8 5 4 4 3 3 2 3 2 3 3 3 4 4 5 7 10 12 14 15 15 16
22 9 8 7 5 4 3 2 2 2 2 3 3 3 4 6 6 6 7 7 7 10 12 10 7 5 4 4 3 3 3 3 3 3 3 4 4 4 9 10 10 14 30 28 26 23 24
10 10 8 6 4 4 3 3 3 4 4 4 4 5 6 6 6 7 7 10 12 10 8 6 6 4 4 4 3 3 3 3 3 3 4 4 5 7 10 12 14 25 29 31 32 34 30
10 9 8 5 4 4 4 4 5 5 5 5 6 8 7 8 9 11 13 12 11 8 6 5 4 5 3 3 3 3 2 3 3 3 3 5 6 8 8 12 20 27 27 37 49 45 51
12 10 7 6 5 5 7 6 6 6 8 8 11 18 17 20 18 15 12 10 8 6 5 4 4 4 3 3 3 3 2 3 3 4 4 5 6 8 10 12 16 22 26 45 57 59 61
14 9 6 7 9 9 9 8 9 8 11 26 41 31 21 17 14 12 10 8 7 6 6 4 4 3 3 3 3 3 3 3 4 4 5 5 5 6 9 13 14 22 30 40 48 55 54
13 10 10 13 14 14 14 16 22 23 25 31 32 21 16 14 13 12 11 9 7 7 5 5 4 4 5 5 4 4 4 4 4 5 6 6 6 7 9 13 14 19 38 45 42 48 46
22 13 16 20 18 16 16 20 34 38 40 35 25 21 17 16 16 14 12 11 9 8 7 7 6 7 6 5 6 6 6 6 6 6 7 8 9 7 9 9 10 11 15 17 35 41 35
46 31 20 23 23 25 32 28 32 49 46 32 26 25 22 18 16 16 14 13 12 11 10 10 10 9 9 7 8 9 10 10 11 11 12 12 11 13 13 12 13 13 14 13 14 21 25
100 72 33 27 26 25 32 35 42 55 54 39 29 27 24 22 20 19 19 19 19 18 15 14 13 13 13 12 13 13 13 15 17 16 17 19 20 20 21 22 23 26 25 22 22 21 22
100 100 78 42 30 38 38 35 54 56 63 48 34 27 26 26 25 24 23 23 22 21 20 20 20 21 19 18 18 20 21 22 21 22 25 26 25 25 26 29 32 30 32 34 40 44 44
88 100 100 84 44 38 43 52 50 64 72 60 42 32 29 32 37 36 36 36 35 36 34 33 35 35 34 32 31 30 31 33 35 36 39 40 40 40 39 39 40 42 42 41 42 44 45
66 93 100 100 92 54 40 63 61 80 78 76 64 48 42 42 48 48 46 45 47 46 44 43 43 43 42 40 39 39 39 40 41 42 45 46 45 47 50 51 50 49 47 49 48 48 46
80 74 98 100 100 92 51 60 89 69 98 94 82 71 59 56 56 54 51 51 52 53 53 52 50 54 55 56 57 54 50 49 50 48 50 51 52 50 49 51 52 51 53 54 54 53 52
65 84 100 100 100 100 84 70 78 74 80 100 100 88 76 75 70 67 67 66 66 67 69 64 60 60 60 62 64 68 72 69 67 65 66 65 59 60 62 61 59 60 61 63 61 58 60

GFSGBSN_250_rhum_096.txt.gz
RH
88 93 98 100 100 100 100 100 100 100 100 100 100 100 95 89 70 75 73 57 54 48 35 36 25 18 12 9 7 7 6 6 5 6 7 9 10 12 18 17 13 12 15 14 12 11 9
97 96 98 100 100 100 100 100 100 100 100 100 100 100 81 74 78 59 65 67 52 55 46 34 29 17 12 8 8 6 5 6 5 4 5 6 8 7 9 10 10 9 11 12 11 10 9
100 100 100 100 100 100 100 100 100 100 100 100 100 99 88 67 50 53 35 49 53 38 39 31 18 14 17 9 8 7 5 5 4 4 4 3 4 5 6 6 6 6 8 9 10 9 10
100 100 100 100 100 100 100 100 100 100 86 43 25 16 14 14 16 17 19 19 22 31 25 24 16 14 16 11 7 6 5 5 5 4 4 4 3 4 4 4 5 6 6 6 6 6 6
100 100 100 100 100 100 100 100 76 45 16 12 10 8 7 7 6 6 6 8 8 12 12 14 11 14 14 10 6 6 6 6 4 4 4 3 3 3 3 3 4 4 5 6 6 5 5
92 100 100 100 100 100 49 25 17 10 8 8 7 6 6 5 4 4 4 4 5 6 8 10 12 13 13 7 7 7 6 5 4 3 3 3 3 3 3 2 3 3 4 4 4 4 4
96 100 100 100 83 28 12 10 9 8 7 6 5 5 4 3 3 2 2 2 3 5 6 8 11 10 9 8 8 7 6 4 4 4 4 3 3 2 2 3 3 3 4 4 4 4 4
100 100 83 33 10 6 5 5 4 4 4 4 4 3 3 2 2 2 2 2 2 4 5 8 9 8 9 8 8 7 5 4 4 4 3 3 3 2 2 3 3 3 3 3 3 3 3
95 82 23 10 8 5 4 3 4 3 2 2 2 2 2 2 2 2 2 2 2 3 6 6 7 10 10 9 6 5 5 4 4 4 3 3 3 2 2 2 3 3 3 3 3 3 2
91 28 10 8 6 6 4 4 3 2 2 2 2 1 1 1 1 1 2 2 2 4 5 6 8 10 8 7 6 7 5 5 5 4 3 2 2 3 3 3 4 3 3 2 2 2 2
37 11 9 7 6 5 4 3 2 2 2 1 1 1 1 1 1 1 2 2 3 4 5 8 9 9 6 6 8 8 7 5 4 3 3 3 4 4 3 2 2 2 2 2 2 2 1
12 8 7 7 5 4 3 2 2 1 1 1 1 1 1 1 1 2 2 3 4 4 6 7 8 7 8 8 8 7 6 5 6 4 4 4 3 3 2 2 2 2 2 2 2 2 2
11 9 8 5 4 4 3 2 2 1 1 1 1 1 1 1 2 2 3 3 4 4 5 6 8 7 8 7 7 9 8 7 5 4 3 3 3 2 2 2 2 2 2 2 3 3 3
13 10 8 5 4 4 4 3 2 2 2 2 2 2 2 2 3 3 3 3 4 5 6 6 6 7 7 11 9 8 6 4 4 3 3 3 2 2 2 2 3 3 3 3 4 5 5
11 11 9 6 4 5 4 4 3 3 3 3 2 2 3 3 3 4 4 4 4 6 6 5 7 10 11 8 5 4 3 3 3 3 3 3 3 3 4 3 4 4 5 5 8 13 9
16 18 15 12 10 9 9 6 5 5 5 4 4 3 4 4 5 5 5 5 5 6 7 11 10 9 5 4 4 3 3 3 3 3 3 3 4 4 4 5 6 6 7 13 25 17 18
20 19 19 22 27 26 25 17 9 7 7 9 11 10 7 6 7 6 7 11 12 12 10 8 5 4 4 3 3 3 3 3 3 3 4 5 5 5 6 8 8 10 13 25 34 29 28
87 25 24 34 43 51 40 31 24 19 15 13 30 37 24 26 20 16 16 14 11 8 6 5 4 4 2 2 3 3 3 3 3 4 5 5 7 7 9 10 18 20 22 29 45 46 46
99 67 28 32 52 58 59 39 23 18 16 14 14 17 14 13 11 9 8 8 6 5 4 4 3 3 3 3 3 3 3 4 4 4 5 5 7 9 10 11 20 29 32 46 58 61 56
83 100 41 31 53 56 74 42 26 19 15 12 11 11 10 9 8 7 6 5 4 4 3 2 3 3 3 3 3 3 3 4 5 5 5 6 6 8 9 12 19 38 46 50 65 71 57
93 100 82 58 58 76 70 66 41 24 17 12 10 9 8 7 7 6 6 5 4 3 3 3 3 3 3 3 3 4 4 4 5 5 6 6 6 7 7 8 13 27 37 44 60 89 68
73 85 100 74 55 66 74 84 62 35 25 19 14 11 10 8 8 8 8 7 6 5 4 4 4 3 3 4 4 4 4 6 7 7 8 8 8 6 8 8 8 13 26 37 43 71 89
62 81 100 87 84 61 87 90 78 48 33 25 22 18 15 14 13 13 12 11 9 7 6 6 5 6 5 5 6 6 5 6 7 7 10 13 14 12 13 11 11 12 12 19 24 34 29
64 84 100 100 72 75 61 94 93 75 46 36 29 26 23 19 19 19 17 16 14 13 11 10 9 9 10 10 10 9 8 9 10 11 11 12 13 14 16 15 14 15 16 18 19 19 21
58 63 84 100 81 60 68 72 100 98 80 59 42 38 32 26 27 30 28 28 26 25 21 17 15 14 13 13 14 14 15 16 17 17 18 20 22 24 25 27 29 30 31 32 30 27 26
61 65 73 100 100 100 71 69 76 83 98 86 76 54 52 50 40 34 33 34 36 34 32 28 25 23 23 25 24 25 24 25 25 26 26 28 28 27 28 29 32 34 37 37 36 35 34
68 59 62 82 100 100 100 72 70 90 88 95 92 87 73 68 59 50 45 42 42 42 42 41 39 35 33 33 32 31 31 31 33 34 35 37 36 35 36 37 38 39 39 42 42 43 45
93 52 67 74 94 100 100 100 92 80 92 97 95 89 95 87 78 70 63 53 57 56 55 55 54 54 54 53 51 46 44 44 44 44 45 45 48 50 52 51 52 51 52 51 56 59 60
96 80 49 67 75 100 100 100 100 90 80 100 100 99 80 90 96 88 82 76 69 70 68 67 64 65 64 64 64 65 68 67 66 63 59 56 53 50 49 51 54 57 58 57 56 58 58

GFSGBSN_250_rhum_099.txt.gz
RH
85 81 74 82 94 100 100 100 100 100 100 100 100 100 100 85 76 56 49 42 45 41 43 40 36 42 43 24 20 19 10 9 8 6 6 5 4 6 7 9 11 12 12 15 13 16 14
92 91 94 98 100 100 100 96 97 81 64 56 85 82 65 45 36 27 27 29 31 25 23 38 35 35 42 34 22 19 10 9 8 8 6 5 4 4 5 7 8 9 10 10 9 11 10
93 96 89 65 61 58 52 32 20 17 17 18 20 19 13 12 11 11 10 8 9 11 12 19 36 24 33 23 26 17 11 8 8 6 5 5 4 4 4 4 5 8 9 8 6 7 8
76 77 51 23 19 13 12 10 10 10 11 11 11 9 10 9 7 6 6 7 8 10 9 13 21 29 24 18 19 18 11 8 7 7 5 5 4 4 3 3 3 4 6 6 5 6 6
83 30 14 11 10 8 7 7 7 8 8 8 9 9 8 6 4 4 4 6 7 7 8 10 16 13 16 14 14 12 11 9 7 6 5 5 4 4 3 3 3 3 4 4 4 5 6
39 16 11 8 8 6 4 3 3 3 4 5 6 5 4 4 3 3 4 5 7 7 7 6 12 10 13 12 10 12 12 10 7 6 5 5 4 3 3 3 2 2 2 2 3 3 4
23 19 15 10 7 6 4 3 3 2 2 2 2 2 2 2 3 3 3 4 4 5 6 5 7 7 8 7 10 12 10 9 7 6 5 4 4 3 3 3 3 3 3 2 3 3 3
17 37 48 37 14 7 5 4 3 2 2 2 2 2 2 2 2 2 2 2 3 3 4 4 4 5 6 8 9 9 9 8 7 5 4 4 3 3 3 3 2 2 2 2 2 2 2
14 36 61 50 25 10 5 4 3 2 1 1 1 1 1 1 1 2 2 2 2 3 3 3 4 5 8 9 9 9 8 6 5 4 4 3 3 3 3 3 3 3 3 2 2 2 2
16 25 43 49 30 14 6 4 3 2 1 1 1 1 1 1 1 1 2 2 2 2 3 4 6 6 8 8 8 6 6 7 6 4 4 3 3 3 3 3 3 2 2 2 2 2 2
16 21 30 42 28 20 8 4 3 2 1 1 1 1 1 1 1 1 1 2 2 2 4 4 5 7 7 6 6 8 9 7 6 4 4 3 4 3 3 3 3 2 2 3 3 3 3
18 19 32 35 29 21 19 8 4 3 2 2 1 1 1 1 1 1 2 2 3 4 4 5 6 6 6 8 9 9 8 5 4 5 5 4 4 4 4 4 4 5 4 4 3 3 2
29 19 33 33 35 23 17 16 9 4 4 4 3 2 2 2 2 2 2 2 3 4 3 4 6 6 7 7 8 7 7 6 6 7 6 6 6 5 4 3 3 3 2 2 2 2 2
32 21 30 41 50 29 18 14 13 8 4 5 6 4 4 3 3 3 2 3 3 4 5 5 6 7 8 9 8 7 6 10 9 8 6 4 3 3 3 2 2 2 2 2 2 2 2
48 26 31 46 46 39 28 16 11 14 11 6 8 11 6 6 6 6 4 4 4 5 6 6 8 9 8 8 8 14 11 8 5 4 3 3 2 3 3 3 3 3 4 4 5 4 4
58 28 24 38 50 56 36 24 16 11 10 13 16 21 24 17 10 9 11 8 7 7 8 9 11 13 14 12 11 7 5 4 3 3 2 3 3 4 4 4 5 7 6 7 9 6 7
55 26 29 33 50 50 50 31 21 14 12 7 8 12 14 13 13 13 14 18 17 16 14 12 10 8 6 5 4 3 3 3 3 3 4 4 5 5 5 8 7 9 10 13 17 15 14
60 87 35 33 41 64 59 45 29 21 15 11 8 8 7 7 8 8 8 9 9 8 6 6 5 5 4 3 3 3 3 3 3 4 5 6 7 7 9 12 15 14 13 19 25 72 65
66 72 58 43 30 51 77 64 45 30 24 14 12 11 8 6 5 5 4 4 4 4 4 4 3 3 3 3 3 3 3 4 4 5 5 8 7 7 12 14 24 18 18 24 28 100 100
71 73 81 49 55 36 57 76 62 48 30 26 22 13 10 8 7 6 5 4 3 3 3 3 3 3 3 3 3 4 4 5 6 6 7 9 7 10 14 18 29 33 25 32 32 100 100
60 68 70 89 57 44 39 56 81 67 50 38 31 26 15 11 9 8 6 5 4 4 3 3 3 4 4 4 4 5 5 6 6 6 7 7 8 9 11 19 31 43 30 44 37 98 100
58 50 65 82 94 56 42 41 65 88 84 62 60 45 36 21 13 10 10 8 6 4 4 4 3 4 4 3 4 6 7 8 8 8 8 8 8 8 11 15 28 37 47 47 65 30 100
73 62 62 72 90 82 54 33 40 63 88 96 74 62 54 39 31 24 18 13 10 8 6 5 5 5 5 5 5 6 7 8 9 11 12 11 12 12 13 10 16 25 27 44 58 81 49
79 78 65 62 70 64 78 79 40 35 59 80 93 85 65 56 43 38 34 27 21 17 13 11 9 8 7 7 8 7 7 7 8 9 10 12 12 14 16 16 15 15 13 18 21 28 35
89 94 80 39 59 59 71 93 94 56 30 56 75 96 97 73 63 54 48 43 35 29 24 23 21 18 14 12 11 12 13 12 12 12 13 13 13 15 16 16 16 22 19 22 33 34 34
100 99 60 59 44 42 54 75 95 76 47 28 52 75 92 96 76 77 68 61 57 49 36 31 28 29 28 27 26 25 24 22 22 22 22 22 23 23 23 22 23 23 23 24 24 25 24
87 72 97 81 82 43 59 72 96 100 92 47 26 46 70 89 92 79 84 88 74 65 61 53 46 38 35 32 32 33 34 35 33 30 30 31 31 31 32 34 34 36 38 42 41 39 37
58 73 100 98 94 52 53 58 65 85 100 98 55 26 44 67 88 93 75 76 90 82 74 68 64 58 54 52 48 45 44 42 42 39 38 37 38 39 38 37 39 42 43 42 47 47 48
67 61 64 76 100 74 80 62 60 75 84 98 100 63 26 34 63 86 99 83 73 77 76 73 73 72 70 68 64 63 63 63 61 57 54 53 50 49 48 48 49 51 50 48 47 47 47

GFSGBSN_250_rhum_102.txt.gz
RH
70 55 34 40 51 65 47 32 30 21 10 8 9 10 12 18 28 35 37 41 34 41 54 64 58 60 44 37 37 34 30 22 19 14 13 10 9 8 7 6 8 9 8 11 10 14 18
44 35 29 39 64 51 33 22 20 13 8 7 6 7 8 10 11 13 15 18 17 19 24 24 41 57 43 38 35 35 26 22 18 15 14 11 10 7 6 5 4 5 7 7 9 10 12
38 30 28 51 42 27 20 17 9 6 6 6 5 5 5 6 7 8 9 9 10 11 12 13 20 32 38 28 28 29 28 23 15 15 12 13 9 7 6 5 4 4 4 6 6 7 9
27 25 57 38 24 21 18 14 5 4 4 5 5 5 4 4 4 5 6 7 8 8 8 9 10 18 25 34 27 22 21 20 16 14 14 12 9 6 6 6 4 3 3 4 4 6 7
30 23 51 27 22 18 17 11 4 3 2 2 3 2 2 3 3 4 4 4 5 5 7 8 9 11 15 20 21 13 14 16 13 12 13 9 8 7 6 4 4 3 3 3 2 3 4
19 25 40 22 17 16 13 6 4 2 2 1 2 2 2 2 2 3 4 4 4 5 6 9 10 10 12 18 9 8 13 16 10 11 9 11 9 6 5 4 4 3 3 2 2 2 3
19 23 29 19 15 15 20 5 4 2 1 1 1 1 1 2 2 2 2 3 4 6 7 9 9 10 11 10 9 9 10 10 9 10 12 8 5 4 4 4 3 3 3 2 2 2 2
23 24 27 17 14 15 17 6 4 2 1 1 1 1 1 2 2 2 2 3 4 5 6 6 6 7 6 5 7 7 9 9 10 10 8 6 5 4 4 3 3 3 3 3 2 2 2
24 22 29 14 13 16 15 9 5 3 2 1 1 1 1 1 1 1 2 3 3 4 4 5 6 5 4 5 5 9 11 11 10 8 7 6 4 3 4 4 3 3 3 2 2 2 2
25 24 29 14 17 16 12 14 6 3 2 2 2 1 1 1 2 2 2 2 2 2 3 3 4 4 4 6 8 9 9 8 7 7 5 4 4 4 4 4 3 3 3 3 2 2 2
48 25 22 20 15 20 14 9 11 6 3 3 3 2 2 1 1 2 2 2 2 2 3 3 4 5 5 6 7 8 9 9 8 6 6 6 5 4 4 3 3 3 3 2 2 2 2
49 23 26 32 14 23 31 13 9 11 8 5 4 4 4 3 2 2 2 2 2 2 3 4 4 5 6 8 8 9 9 8 6 6 6 5 4 4 4 4 3 3 3 2 2 2 3
60 43 33 29 26 18 36 21 14 11 10 10 8 7 6 6 7 6 5 5 4 5 5 5 6 7 8 8 8 8 8 7 6 6 6 5 5 8 8 8 6 5 4 4 4 4 4
64 56 30 42 34 21 24 38 18 18 16 10 10 12 8 7 6 8 9 8 8 7 7 7 6 6 6 6 7 8 8 8 7 7 9 12 10 9 6 5 4 4 4 3 3 2 2
64 83 40 34 35 41 22 31 38 24 26 20 12 8 10 12 12 8 8 10 10 7 7 6 6 6 8 8 8 7 11 13 10 9 7 5 5 4 4 3 3 3 3 3 3 3 3
73 80 54 53 33 35 41 24 39 36 32 28 18 12 8 7 8 10 11 15 12 10 10 11 9 10 12 14 13 11 10 7 5 5 4 4 4 4 4 4 4 4 4 5 9 10 13
77 71 59 48 42 37 42 41 28 40 34 35 30 19 12 8 6 6 7 8 9 10 9 8 8 10 9 8 6 5 5 4 5 5 5 5 5 5 7 6 6 5 5 8 16 25 30
63 66 56 62 39 41 36 31 38 29 37 33 38 33 19 11 8 6 5 5 4 5 5 4 4 4 4 4 4 4 4 4 5 6 6 8 7 10 10 16 15 10 10 20 27 37 61
33 60 46 71 59 38 23 29 34 38 27 35 31 40 34 23 13 9 6 4 4 3 3 3 3 3 3 4 4 4 5 5 7 8 8 10 10 15 17 19 16 14 28 58 56 59 74
94 37 46 75 60 50 58 29 39 35 36 26 36 36 38 33 29 15 10 7 5 4 3 3 3 3 4 4 4 4 6 7 8 11 14 17 20 18 18 30 28 41 55 100 100 99 100
96 59 36 48 65 64 69 67 44 33 30 35 28 32 35 40 35 29 20 12 8 6 5 4 4 3 4 4 4 6 7 8 8 10 13 14 15 17 27 35 46 43 72 100 100 100 100
73 99 67 54 68 49 69 49 43 31 25 28 39 29 33 33 35 37 28 24 16 11 8 7 5 4 4 4 6 8 9 11 12 11 11 16 16 21 30 36 50 58 94 100 100 100 100
100 83 92 77 71 78 57 85 84 58 36 23 26 37 30 38 36 34 35 38 26 22 16 11 9 7 6 5 6 6 9 12 13 14 13 13 16 15 19 20 39 53 74 78 89 71 87
100 99 100 74 68 93 77 71 79 60 46 42 27 30 39 33 44 45 41 44 48 35 27 23 18 15 12 10 9 8 8 9 10 11 12 14 19 24 26 20 21 19 45 42 48 40 51
100 98 100 100 95 96 74 100 54 56 76 73 56 32 29 43 46 45 50 48 52 52 50 36 30 30 24 20 18 17 17 16 15 14 13 12 12 15 16 20 24 38 32 42 49 38 38
100 94 100 100 97 68 62 66 84 62 63 80 70 56 32 22 39 49 54 56 55 56 59 58 50 40 36 33 31 26 24 23 23 24 25 24 23 22 21 18 16 17 25 50 72 91 71
100 100 100 100 89 97 60 96 84 79 93 77 70 76 48 32 24 41 55 64 64 62 59 62 64 57 51 47 44 40 37 35 33 31 28 30 30 29 32 31 29 30 30 31 34 38 43
98 100 100 94 100 95 73 94 96 80 68 71 60 77 80 66 40 23 31 46 66 68 68 68 66 63 60 56 51 48 48 46 45 43 41 40 39 38 39 39 40 41 37 33 34 35 39
77 100 100 91 100 56 68 83 93 71 51 62 88 68 72 61 51 44 29 27 40 64 72 71 75 73 70 66 64 60 54 52 51 51 49 49 49 51 50 49 49 50 50 50 52 51 51

GFSGBSN_250_rhum_105.txt.gz
RH
45 29 44 43 26 27 18 14 12 13 12 12 10 10 11 9 8 8 8 9 12 22 40 59 72 83 98 100 96 99 71 53 34 29 26 25 26 22 16 12 9 9 12 17 17 17 23
43 30 38 36 28 25 12 12 13 10 6 4 4 5 6 6 5 6 6 8 9 10 12 19 38 48 76 90 100 83 74 59 51 37 25 21 26 24 18 14 13 10 7 7 11 11 14
39 30 42 34 27 17 10 12 6 4 4 3 2 2 3 4 4 4 5 7 8 8 9 11 15 21 26 53 81 69 44 59 50 40 28 25 19 23 20 17 19 12 7 6 5 7 8
41 29 42 31 25 14 10 9 3 3 2 2 1 2 2 2 3 4 4 5 6 6 8 9 13 14 18 31 47 39 33 48 51 46 34 28 21 20 20 15 15 10 7 5 4 4 4
26 27 32 36 22 15 10 6 4 3 2 1 1 1 1 2 2 2 3 4 5 5 6 9 14 15 13 20 25 31 24 27 39 38 37 24 17 17 15 13 11 10 8 5 4 3 3
28 24 23 37 20 15 10 8 5 3 1 1 1 1 1 2 2 2 2 3 3 4 6 8 11 13 21 20 24 20 14 15 19 25 29 20 15 13 13 12 10 8 8 6 4 3 3
46 35 22 28 25 14 11 11 6 3 2 1 1 2 2 1 1 2 2 3 3 4 6 8 9 10 14 16 14 15 11 12 14 16 22 17 12 11 12 8 7 8 7 5 4 3 4
52 33 22 21 26 14 10 8 7 5 3 2 2 2 2 2 2 2 2 2 3 4 6 8 12 14 12 13 11 11 10 10 9 11 11 9 10 10 8 8 8 7 6 4 3 3 3
44 29 28 16 24 24 11 7 8 8 5 4 3 2 2 2 2 2 2 2 3 3 4 5 5 5 6 8 8 9 10 8 7 7 9 9 9 9 8 8 7 5 4 4 3 3 2
53 39 28 31 18 32 18 12 7 7 11 9 5 3 2 2 2 2 2 2 3 3 4 4 5 6 6 6 7 7 7 7 10 9 10 10 8 8 8 6 5 4 4 3 3 3 3
56 36 45 35 23 26 33 18 12 8 7 10 12 6 4 3 3 2 2 2 3 4 6 5 6 6 7 6 7 6 8 11 13 12 10 10 8 7 6 5 5 4 4 4 4 4 3
63 43 43 35 31 19 30 28 20 16 11 7 8 14 10 6 5 6 5 4 3 4 3 4 5 5 6 7 7 8 9 9 10 10 9 8 8 7 6 5 5 5 5 5 4 4 4
68 56 44 43 56 29 22 33 29 24 18 14 8 7 12 16 9 6 6 6 5 4 6 5 5 5 5 6 8 9 9 9 9 10 11 10 9 8 7 5 5 6 5 5 4 4 3
70 52 54 42 62 54 18 21 37 28 23 21 17 8 7 9 12 14 8 10 10 7 6 7 7 7 7 8 9 10 9 10 10 12 13 11 10 11 9 9 10 10 8 6 5 5 5
93 74 50 57 44 46 24 25 23 36 29 20 20 14 7 7 7 9 8 12 20 11 8 8 8 8 8 9 8 9 12 19 18 16 14 14 11 8 7 6 6 4 5 4 5 5 4
94 72 67 57 49 39 52 45 34 24 32 31 19 16 13 9 8 7 5 7 10 11 12 11 11 12 12 13 13 15 13 10 10 9 8 6 5 4 5 6 10 11 11 16 16 12 14
85 82 55 59 35 42 56 54 65 35 21 31 31 20 14 13 9 6 8 6 5 6 6 6 6 7 7 6 7 6 7 6 7 8 9 7 6 6 8 14 17 10 11 14 25 43 37
88 95 52 74 48 44 73 72 46 49 25 21 29 33 21 16 13 9 7 6 5 4 4 5 5 4 5 5 5 6 6 7 10 14 13 12 9 11 22 34 33 26 21 28 46 49 55
100 95 83 42 56 42 52 63 58 65 55 25 19 29 32 23 18 19 12 7 6 6 5 5 4 5 5 6 6 6 6 10 13 16 18 23 21 18 30 29 23 26 44 61 68 70 71
99 95 100 61 57 48 49 75 43 40 68 62 43 22 24 32 23 23 25 19 11 7 6 5 4 4 6 6 6 8 9 11 15 17 18 18 22 25 26 57 66 66 65 80 77 85 82
100 54 99 100 70 62 48 78 46 40 52 48 58 31 21 22 30 25 22 27 26 18 10 7 6 6 4 5 6 9 11 15 21 24 24 22 18 21 29 83 98 82 77 88 97 85 83
100 50 97 100 93 51 34 47 38 34 38 53 55 47 21 18 23 26 27 22 32 33 24 17 12 10 8 8 6 6 8 10 20 26 24 24 24 20 24 73 87 94 92 92 93 92 95
93 95 68 99 100 62 47 48 58 67 44 36 48 78 42 23 21 23 24 30 32 36 36 33 25 21 16 13 10 9 9 10 16 22 20 22 22 25 25 25 25 69 68 82 77 73 90
98 94 62 63 92 97 65 78 66 67 51 41 50 42 66 53 33 24 27 28 30 30 40 42 42 38 30 26 22 17 14 12 12 13 17 29 29 35 36 36 45 50 41 52 71 65 59
100 100 89 75 99 100 87 83 84 72 60 54 47 51 61 81 68 46 31 28 28 31 35 36 47 54 49 42 34 30 24 21 17 16 16 16 20 24 38 45 46 36 41 43 43 36 42
100 86 76 68 58 100 100 82 100 80 72 57 38 36 49 78 80 69 54 36 29 29 30 35 40 44 49 56 52 46 38 33 28 25 22 20 18 16 18 28 51 43 40 44 37 55 54
100 90 100 100 73 100 100 93 100 98 88 78 38 32 47 52 66 90 71 65 40 37 30 34 38 41 46 51 53 56 56 51 44 38 34 33 30 28 27 27 24 25 33 36 39 66 49
100 100 53 91 100 100 100 100 100 100 100 76 78 53 31 39 43 77 70 83 60 55 40 36 36 40 47 47 53 52 52 54 57 58 51 46 41 40 40 38 38 36 33 33 36 39 43
100 80 100 86 100 100 96 76 100 96 100 99 91 61 47 41 38 50 82 86 75 80 58 48 41 41 51 54 52 51 56 53 53 52 53 57 56 55 53 49 48 48 50 50 49 48 50

GFSGBSN_250_rhum_108.txt.gz
RH
33 24 25 39 43 29 13 8 6 3 3 3 4 4 4 10 20 23 23 24 32 33 37 38 37 31 52 100 100 100 100 91 77 58 59 55 48 27 20 17 13 10 10 21 40 46 35
38 31 26 37 36 23 9 8 4 2 2 1 2 2 4 6 8 13 22 27 26 27 32 32 37 42 39 86 100 100 100 100 100 94 81 66 57 50 30 22 19 16 13 10 9 10 18
41 24 24 31 32 26 7 8 4 3 2 2 1 2 2 2 3 5 6 9 17 22 26 32 40 40 28 53 100 100 100 91 95 89 85 75 60 53 42 27 20 19 17 14 9 8 7
40 20 20 22 30 28 7 7 5 5 2 2 2 2 2 2 2 2 3 4 7 11 16 25 31 33 19 37 95 97 75 81 58 65 66 72 75 80 62 37 25 18 18 16 12 9 7
42 23 21 21 27 31 14 6 9 6 5 2 2 2 2 2 2 2 2 3 5 7 9 12 16 13 13 12 28 62 60 40 39 45 56 72 74 69 59 44 32 20 15 14 13 8 7
47 29 25 23 20 29 29 7 5 10 11 5 2 2 2 2 2 2 2 3 5 7 7 8 9 9 11 12 16 35 38 33 28 26 36 51 56 53 52 42 31 20 13 12 10 7 6
50 42 25 27 20 25 41 20 6 6 9 8 4 2 2 2 2 2 2 2 3 6 9 9 9 9 8 12 14 16 20 19 23 33 35 45 51 43 42 38 25 14 12 9 7 6 5
43 49 36 23 22 23 32 38 13 6 5 9 8 5 2 2 2 2 2 2 3 3 6 7 8 10 9 9 13 19 20 19 21 24 25 26 28 24 21 18 14 10 10 9 8 6 5
33 42 44 29 23 22 23 35 32 10 6 5 7 7 4 2 2 3 3 3 2 3 4 5 7 7 8 11 12 11 13 15 17 16 16 16 15 15 14 11 10 8 9 7 6 5 4
55 32 34 41 26 23 24 29 43 23 10 6 5 6 5 4 2 2 3 4 4 3 3 3 4 3 5 9 11 9 10 11 11 10 10 10 10 12 12 12 9 7 6 6 5 5 5
80 59 37 38 34 27 28 23 31 43 20 14 7 5 6 6 4 3 3 3 3 4 6 6 5 6 7 8 8 8 7 9 10 10 12 10 9 8 8 7 7 7 7 6 6 6 5
75 73 40 33 34 38 27 24 22 29 42 18 16 6 5 6 9 5 5 5 4 4 4 5 6 7 8 8 9 12 12 8 8 9 11 11 10 9 9 9 9 8 8 7 6 6 5
78 77 53 31 35 36 37 26 20 22 31 37 21 13 5 4 5 8 8 7 6 5 5 4 4 4 5 7 8 7 9 11 12 11 12 11 11 10 10 10 9 8 8 7 6 6 5
88 89 60 50 43 44 32 34 24 19 23 32 37 20 13 6 5 4 4 9 15 10 7 7 6 6 6 7 8 8 9 9 11 13 12 10 10 11 12 10 10 9 10 10 8 8 7
72 100 67 54 56 56 46 36 30 22 22 23 29 35 21 15 7 4 3 4 6 8 13 12 10 10 9 9 10 11 12 12 11 14 14 14 18 18 16 14 12 12 12 10 10 11 8
62 59 88 46 52 49 53 41 39 27 21 21 22 27 35 20 11 5 5 6 5 4 5 7 10 15 16 15 17 18 15 14 14 16 17 15 14 12 10 10 15 22 22 23 22 13 13
72 70 77 68 56 43 48 61 47 30 29 23 24 25 32 34 18 13 9 7 8 6 4 4 4 4 5 6 6 7 7 8 8 9 10 12 11 8 11 18 36 43 41 41 35 31 25
91 54 67 85 64 61 34 37 53 37 32 31 23 23 26 30 32 17 20 12 8 9 7 6 6 6 5 6 8 7 6 7 10 12 11 16 13 19 25 38 51 46 47 40 44 62 56
100 82 77 60 73 48 36 36 70 56 39 31 34 28 24 28 32 28 25 23 21 12 8 7 7 9 8 8 8 7 9 14 17 23 21 19 17 25 38 56 68 84 63 60 48 65 70
100 100 95 62 61 82 47 48 46 56 41 34 39 32 26 25 25 29 28 32 31 22 20 14 9 8 9 9 9 9 10 15 20 25 26 27 33 47 61 80 98 94 84 89 78 65 73
100 100 97 80 65 71 65 57 50 64 64 27 28 40 31 24 26 32 34 31 30 34 30 24 23 18 12 10 9 10 16 16 20 23 25 28 34 55 67 71 79 80 73 95 94 81 84
100 100 100 98 76 86 91 61 96 60 74 52 28 39 38 38 25 28 32 32 32 32 35 34 36 33 27 22 16 12 13 17 21 26 32 31 41 56 65 75 73 75 76 81 96 75 93
100 100 100 100 78 91 93 54 91 64 87 61 33 33 39 36 35 30 24 31 33 32 32 38 42 41 45 40 31 26 20 16 17 20 28 34 43 37 40 62 80 46 56 69 73 71 66
100 100 100 100 90 100 97 56 67 87 86 79 87 30 38 36 37 37 30 27 46 34 38 38 37 46 49 46 48 45 35 31 25 19 17 18 25 33 38 42 45 47 43 46 49 45 59
100 100 100 100 77 100 74 66 88 99 90 88 83 64 35 47 36 37 37 39 29 30 36 41 38 37 38 51 53 57 56 51 43 36 32 23 17 19 22 34 34 40 46 53 48 47 52
100 100 99 100 85 99 96 91 100 97 76 100 96 50 42 55 58 47 45 32 34 34 46 48 43 43 37 40 40 53 55 56 56 54 48 41 36 32 28 23 22 29 27 32 40 47 54
100 99 98 100 96 82 100 100 74 100 91 99 96 99 59 35 56 69 50 47 35 33 35 34 53 52 54 40 32 35 38 49 53 51 51 54 54 46 42 38 34 30 31 32 34 45 40
100 100 100 100 100 96 100 100 100 98 100 100 100 100 100 91 52 62 57 59 47 35 34 36 44 52 52 59 52 42 44 36 36 43 51 51 48 54 59 55 51 47 43 42 39 38 37
100 100 100 100 100 88 100 100 70 100 94 100 100 100 100 100 98 57 61 64 57 49 33 42 51 51 68 80 82 71 53 48 40 40 42 51 60 55 49 50 59 60 58 56 54 52 51

GFSGBSN_250_rhum_114.txt.gz
RH
28 37 29 26 23 20 18 7 5 4 6 3 2 2 2 2 2 3 5 9 12 13 13 24 31 35 32 38 34 44 45 68 79 72 84 85 71 73 66 52 41 33 22 18 28 47 52
31 30 30 27 23 21 21 9 6 5 7 4 2 2 2 2 2 2 4 7 9 13 13 12 20 32 36 33 36 39 41 53 73 77 74 82 93 91 87 88 68 56 42 29 18 19 38
38 23 25 31 26 20 22 12 9 5 6 5 2 2 2 2 2 2 3 4 8 13 14 13 16 25 30 30 36 40 48 46 53 64 86 98 71 75 77 74 70 55 58 51 31 16 14
51 22 28 28 25 22 21 15 13 6 5 5 3 2 2 2 2 2 2 4 4 9 15 14 14 18 32 34 33 41 48 52 55 46 36 63 88 83 72 66 71 62 42 27 31 24 20
38 30 28 22 23 24 19 20 19 8 4 5 4 2 2 2 2 2 2 3 5 8 13 15 15 18 24 27 34 36 40 44 48 54 48 43 47 74 87 89 70 65 60 43 36 34 30
41 36 20 22 21 27 25 20 22 16 5 4 4 3 2 2 2 2 2 2 3 8 10 14 17 16 20 27 33 35 37 43 47 52 55 47 47 47 45 52 70 83 65 63 50 50 40
64 35 23 23 27 16 20 22 18 22 8 4 5 4 2 3 3 2 2 2 2 5 8 12 18 19 18 20 24 27 33 35 38 44 54 56 60 57 58 48 40 31 45 66 57 44 42
81 51 30 34 32 24 19 22 18 21 19 5 4 5 3 3 3 3 3 3 3 3 4 6 10 18 18 18 20 25 28 30 36 40 46 58 66 58 47 42 39 36 31 37 38 41 43
91 60 42 25 50 25 20 20 23 20 23 16 5 4 6 4 3 3 3 3 4 4 4 4 5 7 12 18 21 23 25 30 33 38 42 45 55 55 50 44 40 48 38 27 26 27 24
88 55 49 35 34 56 26 21 21 25 22 23 14 6 5 6 4 3 4 4 4 4 6 5 5 6 8 12 17 22 26 28 30 33 34 37 38 38 36 39 43 25 17 15 17 20 19
100 49 56 46 28 44 39 26 23 22 24 23 26 13 8 5 7 6 5 4 4 4 5 6 6 8 8 9 12 16 22 28 30 31 32 36 36 36 34 17 14 14 13 12 12 8 7
94 78 53 55 28 61 68 42 26 23 24 23 22 26 12 6 5 6 7 6 5 4 4 4 6 8 10 10 10 14 17 18 23 27 25 27 26 18 16 15 12 9 9 8 11 13 11
100 100 51 56 46 32 82 52 45 24 24 26 24 24 26 9 6 5 5 8 10 7 6 6 6 6 9 10 11 13 15 17 18 20 19 15 14 11 10 8 10 12 12 11 9 10 10
100 100 61 70 66 38 36 61 52 24 30 27 26 24 20 25 8 6 6 5 7 12 10 7 6 7 7 8 11 13 13 12 12 12 12 12 10 11 11 11 9 10 10 11 12 13 12
100 100 83 65 88 49 47 70 53 34 25 29 24 26 24 23 22 13 12 15 8 7 7 11 14 10 8 10 11 12 11 10 10 10 10 12 13 15 17 16 16 15 16 15 16 18 16
77 100 100 57 100 69 62 73 84 42 28 20 30 25 24 24 24 20 27 26 15 11 12 11 11 10 12 16 15 12 12 12 11 12 14 16 17 18 17 19 19 19 19 26 37 46 47
67 100 100 55 99 73 54 64 100 54 60 42 25 32 22 21 24 24 26 26 36 28 20 16 14 18 24 28 21 14 14 18 20 19 20 19 19 18 17 18 20 32 49 66 74 78 90
48 87 100 51 100 91 52 68 100 70 43 75 65 34 34 24 22 22 21 26 23 28 40 35 25 19 15 15 18 28 32 25 16 13 14 18 20 28 39 47 57 68 78 95 87 87 86
48 73 99 58 70 72 82 53 100 98 69 41 81 61 45 45 25 24 23 19 23 26 24 28 39 40 33 34 28 20 25 34 38 38 35 39 51 54 54 68 83 92 95 98 92 87 99
58 50 96 97 100 90 66 52 80 100 90 72 53 63 62 56 45 37 24 25 21 24 28 28 30 32 38 44 43 43 40 35 38 39 44 47 55 64 69 75 78 85 98 94 99 86 81
70 86 85 100 92 100 96 47 94 100 100 100 71 45 43 65 62 44 40 33 26 24 24 22 28 31 34 38 48 50 50 51 55 49 39 43 50 62 66 74 84 79 74 84 89 90 98
88 92 93 100 100 100 100 75 100 86 100 100 100 82 59 68 74 51 37 40 40 29 28 27 22 27 27 34 34 38 43 49 48 51 55 55 51 45 61 67 71 78 89 91 97 91 98
93 100 100 86 95 100 100 90 87 64 95 100 99 100 95 81 61 69 62 42 35 38 37 34 29 29 26 26 25 38 37 43 49 53 51 50 51 53 56 50 48 55 63 68 82 89 91
91 91 96 100 100 94 100 100 100 78 74 100 96 100 100 99 83 74 71 64 62 50 35 34 29 32 32 32 28 29 26 29 37 38 41 48 50 45 50 52 55 56 52 46 47 50 60
100 98 89 90 100 100 100 100 100 100 79 100 82 94 100 94 100 96 85 88 69 64 62 44 37 31 29 36 34 35 36 35 26 31 38 38 38 44 51 53 53 54 52 53 53 52 40
100 100 100 100 96 100 100 100 100 100 99 100 100 98 100 97 100 100 100 81 82 88 73 66 56 50 47 42 40 43 38 39 38 29 28 29 38 36 44 41 40 39 47 51 49 48 55
100 100 100 100 100 100 100 100 100 100 100 100 100 100 100 100 100 100 100 100 99 93 84 79 88 84 72 63 55 48 52 45 39 35 32 26 28 30 32 31 37 39 42 42 45 47 50
100 100 100 100 100 100 100 100 100 100 100 100 100 100 100 100 100 100 100 100 98 100 99 91 81 71 76 75 70 52 45 45 45 40 42 39 38 37 31 28 27 29 32 31 35 36 36
100 100 100 100 100 100 100 100 100 100 100 100 100 100 100 100 100 94 100 100 100 100 100 99 93 86 69 56 59 58 65 53 46 52 44 47 47 45 40 40 32 29 28 34 32 28 31

GFSGBSN_250_rhum_120.txt.gz
RH
46 29 26 51 20 17 15 9 5 3 4 2 2 2 2 2 2 2 2 2 2 3 7 13 10 12 20 38 33 37 30 33 47 46 62 66 64 48 40 41 41 36 38 48 56 64 66
37 22 23 49 21 16 18 8 6 3 4 3 2 2 2 2 2 2 2 2 2 2 4 14 13 11 13 31 31 39 33 32 43 45 44 63 71 73 64 45 33 37 39 43 48 44 52
20 22 26 46 23 22 18 11 8 3 2 4 2 2 2 2 2 2 2 2 2 2 4 12 14 11 11 24 30 41 38 32 35 36 55 65 67 80 76 66 41 35 41 44 41 44 47
19 21 27 48 37 20 19 16 12 8 4 4 3 3 2 2 2 2 2 3 3 3 4 11 14 12 13 16 32 37 43 35 35 33 53 69 62 70 77 69 67 42 38 34 44 40 29
18 24 29 38 75 20 18 18 17 15 8 5 5 3 3 2 2 2 3 4 4 4 6 11 14 13 13 13 26 36 39 31 44 47 58 62 57 58 65 72 68 71 64 45 39 33 34
21 25 31 31 80 35 24 16 18 21 16 8 7 4 4 2 2 2 4 4 5 5 7 10 13 13 11 14 24 28 37 35 50 54 49 45 42 41 49 55 51 54 67 68 48 46 38
27 28 35 40 77 46 31 16 14 18 19 18 7 7 4 4 3 3 4 5 6 7 8 11 16 17 16 14 20 28 34 34 42 48 56 51 45 44 43 51 50 59 64 53 38 46 55
34 29 51 37 79 72 38 29 16 14 15 19 16 8 7 4 4 4 4 4 10 10 13 20 23 22 19 18 18 21 32 30 34 41 50 54 48 44 44 40 41 47 48 41 41 38 44
42 36 61 51 61 90 48 38 24 20 19 16 20 18 8 7 4 5 5 5 7 12 21 22 24 21 18 16 16 16 21 28 38 48 52 57 50 49 51 47 45 46 47 50 49 51 48
49 49 49 64 51 100 63 59 44 28 21 19 16 21 20 8 7 5 6 6 6 8 15 22 23 27 19 16 16 17 18 35 49 52 47 47 48 44 46 46 46 45 40 36 34 38 37
61 62 57 80 68 73 96 55 66 36 32 38 21 17 23 22 12 8 7 6 8 8 8 15 27 35 27 20 16 16 18 23 36 43 40 45 43 43 45 46 51 54 52 51 51 49 43
64 76 78 99 83 55 100 75 88 63 38 27 35 21 18 24 20 16 10 8 6 8 10 9 12 19 29 24 20 20 20 22 29 36 39 39 38 40 45 48 47 44 42 44 45 47 47
79 78 86 98 100 87 70 100 84 79 43 41 38 31 22 18 21 22 23 13 10 8 9 11 11 12 15 22 24 22 21 21 23 27 32 32 36 40 42 42 40 38 39 40 40 38 36
62 83 71 100 100 100 74 100 100 66 81 56 40 41 33 21 17 19 24 29 21 12 10 11 11 12 13 16 21 22 23 23 24 26 27 29 34 37 38 35 33 32 33 31 30 28 22
74 80 93 87 100 100 100 76 100 100 78 74 60 52 49 33 22 15 18 24 23 29 20 17 14 14 14 12 14 16 20 24 25 26 28 30 30 31 30 29 30 26 18 15 14 14 15
76 95 100 100 100 98 100 84 100 98 78 99 92 75 46 45 35 22 20 17 21 25 28 34 26 21 16 16 18 18 16 16 14 16 15 16 16 16 15 16 16 16 17 17 18 21 23
91 95 100 100 100 90 98 100 92 100 95 93 100 95 75 45 42 35 27 22 18 21 25 25 27 35 34 27 27 24 20 24 26 25 24 23 23 24 27 30 30 34 37 40 42 48 78
100 100 100 100 100 100 91 100 80 80 100 96 100 100 90 77 56 43 37 32 24 22 21 29 31 27 26 30 39 36 30 27 34 36 42 53 61 69 80 83 92 95 97 94 91 91 93
100 100 100 100 100 100 91 100 100 100 92 97 100 99 100 78 81 75 66 47 37 31 26 21 23 27 32 30 30 33 36 42 44 40 38 41 46 50 55 68 70 71 82 92 93 90 100
86 98 100 100 95 73 76 98 100 100 100 100 100 100 100 100 80 64 82 81 62 45 34 26 25 32 28 35 35 31 29 30 33 36 36 41 46 51 51 50 53 56 61 61 57 58 71
100 100 93 100 100 97 89 74 100 100 100 100 100 100 100 100 98 98 74 71 70 67 53 44 37 27 24 35 33 39 36 37 35 31 34 38 41 40 42 45 53 60 66 66 65 69 69
98 100 94 97 100 97 94 100 91 100 100 100 100 100 99 100 100 100 100 98 84 81 71 60 59 48 41 31 31 36 44 42 41 41 41 35 32 30 32 38 40 40 41 42 43 51 57
100 100 100 94 100 93 91 90 100 82 68 100 100 100 100 100 100 100 100 100 100 99 85 78 70 70 59 55 53 48 46 44 47 50 47 40 40 39 40 40 44 45 48 49 45 40 43
100 100 100 100 94 98 98 94 98 100 97 66 96 100 100 98 100 100 100 100 100 100 99 100 93 78 82 75 72 70 66 64 56 52 52 56 56 48 43 44 48 46 48 53 53 49 49
100 100 100 100 100 100 100 100 91 92 99 100 98 83 100 100 100 100 100 100 100 100 96 89 95 98 86 91 86 86 82 78 75 70 63 66 56 58 58 49 46 52 50 46 51 52 53
100 100 100 100 100 100 100 99 100 100 98 100 100 100 100 100 100 100 100 100 100 100 100 100 96 89 88 93 95 94 92 80 75 71 65 69 66 64 52 46 44 49 51 55 67 66 61
100 100 100 100 100 100 100 100 93 93 99 99 100 100 100 100 100 100 100 100 100 100 100 100 100 100 100 100 100 100 100 97 98 89 82 69 66 60 53 52 49 46 46 49 57 66 64
84 91 100 93 93 78 98 100 100 100 100 93 82 94 98 100 100 100 100 100 100 100 100 100 100 100 100 100 100 100 100 100 100 100 100 86 91 86 73 72 68 58 57 57 53 55 54
73 64 55 51 55 59 70 86 84 98 100 100 91 73 83 82 100 100 100 100 100 97 95 100 100 100 100 97 99 100 100 100 93 89 81 73 65 72 66 93 91 82 69 75 75 68 62

GFSGBSN_250_rhum_123.txt.gz
RH
26 23 44 45 24 20 14 13 7 3 3 3 2 2 2 2 1 2 2 2 3 5 6 12 11 11 23 23 34 27 39 27 25 27 28 30 28 29 40 42 30 26 30 37 43 52 69
30 27 40 40 20 30 15 15 13 10 4 3 3 2 2 2 2 2 2 2 2 3 5 6 14 13 17 23 24 22 36 33 29 25 29 34 33 29 44 50 47 41 38 39 33 37 46
37 31 48 43 24 26 19 15 16 14 7 5 4 3 2 2 2 2 2 2 2 3 3 4 10 14 14 14 13 11 38 47 39 28 27 36 40 42 38 51 55 45 37 38 35 30 36
43 37 50 42 32 26 32 16 16 16 14 6 4 3 3 3 4 4 3 2 2 2 4 5 11 13 11 11 9 5 27 51 42 33 28 31 36 39 37 34 35 43 39 35 34 30 31
51 44 53 40 45 36 28 24 16 16 15 14 6 5 4 4 4 4 4 3 3 3 4 5 11 13 12 10 8 6 20 46 48 42 35 29 30 40 36 38 34 39 47 41 33 31 32
55 47 66 60 43 41 40 26 22 16 17 17 13 8 5 4 4 5 6 4 4 4 5 6 16 18 15 10 10 8 16 41 52 50 49 37 33 34 41 48 49 50 54 49 45 37 33
72 59 77 65 60 48 74 27 24 26 15 19 18 10 9 5 5 6 7 9 6 8 15 16 24 26 27 19 13 12 17 39 58 56 50 41 38 38 46 50 51 51 49 44 47 49 42
65 80 92 77 69 53 72 44 22 32 26 17 20 20 11 8 5 6 8 12 16 15 17 19 23 23 20 19 15 14 16 36 55 58 59 47 40 42 43 41 41 47 48 48 49 52 42
58 78 100 98 88 68 71 68 47 32 31 23 18 19 20 10 7 5 6 11 21 25 25 26 21 17 16 15 12 12 12 28 49 65 71 53 50 48 50 53 53 58 54 53 50 52 53
75 84 100 80 100 80 83 63 51 42 27 29 23 20 22 22 10 8 6 10 16 20 23 28 24 23 18 15 15 12 12 20 37 49 56 58 61 66 64 57 54 48 47 48 48 46 49
75 72 100 99 100 93 97 71 52 68 45 38 28 27 22 22 24 18 13 9 8 12 24 25 23 19 17 16 16 14 14 17 25 30 42 52 60 57 55 50 47 42 43 44 46 43 43
87 88 86 100 100 100 100 97 60 88 50 48 32 27 31 27 19 23 27 19 14 9 8 11 21 21 17 16 15 15 15 15 19 26 30 35 42 44 47 45 45 43 43 44 45 41 48
100 100 100 99 100 88 100 100 90 97 80 43 63 33 32 36 32 21 23 24 28 21 13 8 10 19 21 16 14 14 13 14 16 20 26 27 30 36 37 36 40 42 43 44 42 43 48
100 100 100 100 88 89 90 92 100 100 99 54 82 42 52 55 39 36 27 22 25 30 26 22 13 10 14 21 21 18 17 16 17 19 24 29 33 35 34 36 36 35 38 37 40 44 41
100 100 100 100 100 91 92 100 100 100 100 67 71 66 80 60 53 46 44 32 23 26 25 28 30 29 20 11 11 15 20 21 20 21 22 25 29 33 35 34 33 35 37 39 36 30 28
100 100 100 100 87 76 88 100 100 98 100 100 87 78 66 76 63 59 62 51 38 28 24 29 26 28 31 34 34 25 16 13 13 16 22 24 26 26 28 29 29 29 25 20 15 14 15
88 90 100 100 83 73 95 100 100 92 100 100 91 96 79 83 56 63 81 66 48 39 36 32 28 28 28 26 27 30 36 40 38 28 22 20 18 17 18 18 21 23 30 39 43 50 62
99 81 100 100 100 69 72 100 100 100 100 100 97 95 100 75 74 80 57 65 72 43 42 46 43 43 28 26 28 29 29 31 37 43 46 47 52 53 54 56 52 49 50 54 58 68 69
80 92 99 95 100 100 56 75 100 100 100 89 100 100 92 99 85 75 99 74 61 74 58 47 52 54 53 51 40 35 37 35 34 38 35 35 37 42 45 50 51 51 55 58 58 55 54
89 97 96 98 82 100 79 62 86 100 100 100 100 91 99 100 89 91 80 99 90 76 70 66 59 53 54 57 53 48 44 41 37 36 34 41 50 51 46 44 47 46 48 52 57 57 59
81 100 97 90 84 92 76 65 64 56 100 100 100 100 97 100 100 91 91 74 86 93 86 78 70 65 77 78 69 64 56 45 42 42 38 34 36 37 45 57 60 69 62 61 57 50 47
100 100 100 100 100 100 98 100 100 76 42 63 100 100 100 100 100 100 93 98 84 76 80 78 91 82 78 82 88 85 79 70 64 58 54 51 46 43 40 41 43 52 63 74 76 74 66
100 100 100 100 100 100 100 100 100 100 100 46 44 92 100 100 100 100 100 100 100 91 74 74 85 81 81 79 71 74 92 88 83 78 81 76 71 67 64 59 50 46 47 50 52 55 58
100 100 100 100 100 100 100 100 100 100 91 79 56 34 48 100 100 100 100 100 100 100 98 86 76 78 85 83 89 84 78 87 84 80 78 80 65 63 64 65 72 73 61 52 55 55 57
92 100 100 100 100 100 100 100 100 100 90 83 91 73 65 28 58 100 100 100 100 100 100 100 99 90 74 91 95 100 98 86 83 80 72 70 69 65 65 54 63 66 67 61 61 65 63
60 60 71 72 88 91 84 96 100 85 84 80 95 99 99 77 37 28 43 80 89 99 100 100 100 100 100 90 77 76 77 81 83 83 81 72 67 64 59 61 62 70 75 74 68 61 72
87 95 79 71 80 76 83 71 71 74 62 64 68 69 71 87 100 99 65 40 43 54 73 100 100 100 100 100 94 92 78 77 71 76 78 73 75 86 85 79 66 67 79 78 77 68 71
100 100 100 95 81 83 88 80 77 75 76 69 85 90 79 63 75 83 69 90 90 48 41 70 100 100 100 100 100 100 100 99 96 94 96 88 84 62 78 75 70 75 79 75 82 69 68
46 67 89 100 100 100 99 98 99 98 88 91 66 88 92 98 76 72 79 75 84 99 96 41 60 98 100 100 100 100 100 100 100 100 100 100 96 98 95 78 78 85 85 94 93 80 64

GFSGBSN_250_rhum_126.txt.gz
RH
50 31 43 30 18 17 16 18 16 7 4 3 3 3 3 2 2 2 2 3 3 5 7 10 9 11 23 47 41 30 31 24 26 30 29 37 26 39 49 58 65 68 70 67 75 79 84
52 41 42 36 22 19 18 18 19 12 5 4 4 4 3 3 2 2 2 3 3 5 8 14 12 13 12 28 29 32 35 33 30 32 29 32 50 30 40 53 54 58 56 54 50 49 53
54 43 39 44 24 24 17 18 21 18 9 5 4 4 4 3 3 2 2 3 3 4 10 15 14 13 17 32 22 27 37 38 37 32 30 34 38 49 37 43 47 41 45 49 47 43 39
72 44 52 53 28 24 19 18 20 26 16 6 4 5 4 4 3 3 2 2 4 3 4 10 11 11 12 13 13 9 17 38 36 36 30 27 30 42 43 36 38 40 41 46 42 42 38
75 51 58 54 42 26 26 25 19 27 24 14 6 6 6 4 4 5 3 2 4 4 4 6 10 13 13 11 8 6 10 20 41 43 36 31 28 27 39 37 37 43 41 30 37 40 35
79 51 51 75 41 31 33 33 25 31 30 24 16 7 7 7 8 7 7 4 5 5 8 6 6 12 14 12 10 8 7 16 36 45 38 34 29 29 32 36 34 35 37 30 30 39 37
94 64 64 83 62 39 48 45 29 27 34 34 22 19 10 8 8 9 8 10 8 8 10 10 19 24 24 20 16 12 11 15 36 51 50 51 51 44 32 28 28 30 36 33 26 30 28
93 80 62 55 88 78 48 50 38 34 32 38 31 23 21 12 9 10 12 16 17 18 17 17 18 23 26 20 17 13 18 16 29 64 67 54 53 48 38 33 35 32 40 39 36 29 32
100 61 57 50 72 95 68 66 43 47 34 36 42 32 20 23 17 10 12 19 25 20 19 19 22 20 19 17 16 13 15 25 28 47 71 61 59 50 43 38 36 31 32 31 31 32 29
100 86 62 47 74 90 100 75 54 40 57 34 40 47 34 21 23 19 11 15 23 21 24 23 24 20 19 15 12 13 10 18 26 39 60 53 50 54 56 48 40 33 30 29 30 28 34
81 100 88 60 64 100 98 91 81 54 55 44 41 45 49 35 20 22 23 12 15 21 22 20 20 19 18 19 18 12 11 12 21 34 42 51 57 59 55 40 39 40 38 38 38 39 42
91 99 96 70 70 82 100 100 99 63 65 55 46 44 50 48 36 22 24 25 21 17 18 19 17 17 16 15 14 14 12 14 17 23 35 44 50 52 48 48 50 45 43 44 47 49 53
91 89 100 80 87 85 74 100 85 75 76 81 65 43 47 43 34 33 26 23 25 26 21 11 13 19 19 16 15 14 14 14 22 27 32 38 44 49 51 50 50 52 53 51 52 51 48
90 94 100 80 59 100 95 91 86 85 91 75 72 72 51 51 41 29 44 30 22 25 23 28 28 18 11 16 18 18 15 15 15 21 29 35 40 42 45 45 45 44 46 43 43 46 46
83 91 82 90 43 63 100 94 95 100 98 85 72 81 76 72 53 42 43 41 30 23 25 26 24 24 30 28 16 12 16 21 19 18 18 22 26 30 33 33 33 39 39 34 34 32 32
62 82 82 96 44 44 66 100 100 100 97 96 93 85 89 86 88 61 60 46 32 36 36 39 32 27 26 25 28 31 27 20 15 18 22 24 25 26 27 28 28 30 28 28 29 30 28
60 71 78 78 97 57 37 40 86 100 100 93 81 100 100 88 83 82 88 58 53 44 37 37 50 43 35 32 30 28 27 28 31 34 35 33 29 24 22 21 22 21 20 20 21 24 22
49 63 90 77 70 61 56 43 34 52 88 92 99 80 100 100 92 84 94 90 73 55 53 50 44 42 52 50 43 45 39 34 34 34 33 33 34 36 38 42 44 45 47 50 50 50 51
79 58 75 87 57 61 64 85 63 64 40 59 94 100 78 100 100 100 90 96 94 82 82 64 51 48 51 55 50 48 46 50 49 45 43 41 42 45 44 40 37 38 42 45 48 49 52
80 78 77 93 95 80 74 99 88 100 87 70 54 55 90 98 98 96 95 82 100 99 88 84 84 65 50 43 48 45 49 52 50 51 47 50 56 57 53 54 55 57 59 61 66 67 66
78 100 71 100 96 98 85 95 100 100 100 86 68 48 33 50 51 87 80 86 75 98 91 97 95 83 72 65 56 47 42 40 45 49 48 51 46 43 62 63 63 64 69 67 63 59 65
100 100 96 100 100 82 90 97 100 100 100 95 98 80 66 50 37 38 43 66 95 72 92 97 97 99 88 81 80 85 73 68 58 40 44 46 53 51 52 43 49 61 62 67 73 80 80
93 91 100 100 100 96 98 98 99 78 79 83 76 71 72 80 90 68 44 47 66 88 79 84 92 75 97 99 81 89 88 79 75 83 70 57 54 47 45 47 49 49 61 70 67 70 81
100 100 100 99 98 98 86 84 89 94 79 71 65 67 82 71 71 65 72 67 65 58 53 52 81 100 66 89 100 90 98 93 80 92 86 93 87 67 74 62 45 42 46 49 58 56 49
80 80 73 75 64 64 76 90 100 91 94 88 81 87 72 80 69 66 61 79 72 69 56 65 51 75 100 98 100 100 100 96 97 93 99 88 90 87 76 85 66 59 60 55 51 60 56
75 81 69 67 67 86 86 99 98 97 94 92 100 100 94 93 95 91 88 82 78 80 66 60 69 64 52 70 100 95 100 95 96 100 100 98 100 98 97 91 82 62 74 68 67 68 66
88 80 78 83 87 100 100 100 100 100 100 93 98 100 100 100 100 91 90 88 77 73 70 57 68 93 76 60 52 58 89 98 99 92 100 100 100 100 100 100 97 74 87 88 79 80 92
58 73 84 99 100 100 100 100 100 100 100 100 100 100 100 100 100 100 100 98 96 89 83 73 60 81 100 90 76 79 67 64 61 84 80 87 88 98 100 100 100 87 100 96 90 98 97
82 57 64 96 100 100 100 100 100 100 100 100 100 100 100 100 100 100 100 98 100 100 100 95 81 81 90 100 100 100 100 100 100 83 84 100 92 80 73 80 59 96 84 92 100 100 86

GFSGBSN_250_rhum_129.txt.gz
RH
36 30 16 25 26 25 26 19 25 17 8 5 6 5 3 2 2 2 2 3 2 3 3 6 6 6 13 24 19 21 23 21 24 24 30 39 40 35 38 56 69 78 78 74 70 72 80
35 25 18 24 34 24 20 21 29 19 11 6 5 6 4 3 2 2 2 3 2 3 3 5 7 8 14 21 17 18 28 29 26 27 28 34 42 41 36 52 61 74 82 81 84 80 79
34 24 21 23 31 38 20 21 27 23 20 8 5 7 6 4 2 2 2 3 3 3 4 7 9 9 12 22 20 22 38 37 33 31 30 30 39 41 41 43 45 51 63 74 78 87 88
38 26 25 34 44 48 30 20 24 25 22 16 6 6 7 7 4 3 3 5 4 4 5 8 9 9 14 22 25 28 39 39 35 32 29 28 29 37 38 36 44 45 51 58 63 72 80
46 26 25 40 77 62 37 27 21 22 24 22 12 7 10 11 9 4 4 7 8 7 6 8 9 10 11 14 22 25 30 44 43 35 33 29 28 31 39 42 37 43 48 51 63 73 73
44 30 28 39 100 59 51 41 26 21 24 22 23 13 9 14 15 11 8 6 8 14 13 12 11 10 8 8 8 12 21 35 46 39 37 43 35 33 35 42 49 54 52 52 50 52 53
49 40 41 32 75 62 60 45 31 29 24 27 24 23 17 10 15 15 16 14 14 10 19 18 15 18 18 14 11 9 14 28 47 47 44 40 33 30 30 32 38 41 48 47 45 39 43
62 70 40 36 44 81 69 50 43 30 25 26 33 27 24 22 11 14 18 18 20 21 25 23 17 19 25 27 27 22 17 17 36 46 47 39 37 38 39 37 38 37 41 41 39 35 36
56 65 45 41 43 73 67 92 58 42 30 21 36 40 29 24 25 16 19 19 18 20 21 23 23 26 24 21 22 24 19 18 29 51 50 50 45 41 38 38 36 35 34 32 34 37 36
44 48 53 87 42 51 64 83 84 58 58 40 28 39 34 37 30 26 25 18 19 16 19 19 19 22 23 23 25 21 16 16 22 36 48 54 47 44 51 51 42 36 35 30 28 29 35
56 53 44 96 43 43 58 80 68 78 68 63 50 33 39 36 41 35 25 27 22 20 19 17 18 17 14 14 20 17 15 11 13 23 30 37 42 48 55 49 49 44 36 31 29 29 30
83 59 46 42 100 63 88 87 60 53 67 75 48 56 40 29 31 43 38 28 25 32 22 17 17 16 14 14 11 13 12 11 10 12 26 37 43 54 51 52 45 42 37 32 31 31 35
76 60 53 37 51 98 59 99 75 43 48 79 51 37 50 42 26 36 46 41 30 25 26 28 18 16 17 15 15 12 11 11 14 14 19 31 47 52 51 48 49 49 43 46 44 44 46
74 72 65 51 37 40 43 68 59 53 44 59 84 44 33 63 39 31 64 62 42 29 26 26 27 28 18 16 17 16 16 14 14 16 17 26 43 50 47 52 57 56 53 54 52 50 51
84 59 66 60 52 49 36 34 41 45 57 44 56 68 43 32 50 42 48 74 34 34 24 27 27 25 30 32 31 19 20 20 20 22 26 31 36 38 46 51 51 50 48 51 52 47 45
100 57 67 66 53 66 48 49 66 65 58 46 41 46 38 45 32 34 57 64 52 43 42 31 28 34 27 25 32 33 37 34 22 24 24 27 33 36 37 36 35 35 34 33 33 36 35
97 82 62 73 64 54 62 63 92 79 75 56 46 36 35 36 34 37 35 41 66 50 51 44 36 30 35 40 32 28 30 33 34 34 38 42 39 31 28 29 26 28 27 32 30 35 31
66 100 96 86 80 79 64 77 80 100 86 73 62 51 48 51 49 36 36 34 34 53 67 52 55 45 36 29 32 42 39 33 33 33 42 47 48 45 40 34 36 38 41 43 43 43 44
47 96 99 88 90 97 74 72 86 100 100 98 62 61 52 64 60 48 52 56 42 41 42 73 72 57 70 55 48 32 36 46 45 42 36 37 38 40 44 49 56 62 62 58 54 54 51
39 100 88 97 92 76 76 71 72 100 96 82 96 72 58 69 66 63 56 65 61 53 51 41 61 74 65 87 82 64 55 44 41 48 53 54 48 41 36 36 37 42 42 52 64 70 75
35 100 99 100 100 93 100 98 68 85 90 92 93 90 76 66 63 58 61 51 46 47 53 52 48 46 46 70 77 98 88 79 74 69 57 50 48 65 53 49 49 49 49 49 44 42 45
31 96 100 100 100 100 100 93 94 95 96 100 100 84 91 92 81 75 73 65 58 55 61 60 54 54 60 45 77 74 76 92 85 79 88 79 72 62 78 68 53 59 56 58 56 59 61
92 100 100 89 98 100 100 96 81 100 100 100 100 98 100 97 90 94 88 76 80 76 82 84 76 73 58 54 51 55 51 55 75 81 83 77 90 90 86 92 86 65 82 74 72 71 78
100 100 100 100 100 100 100 100 93 92 94 100 100 100 100 100 100 100 100 100 94 95 88 84 89 84 88 86 69 64 55 65 60 53 60 68 68 74 77 78 86 85 69 85 92 89 81
86 86 91 100 97 98 98 91 79 78 100 100 100 100 100 100 100 100 100 100 100 100 100 91 81 90 91 76 68 75 79 72 84 84 71 71 71 57 62 72 79 86 70 58 72 90 89
80 74 84 94 82 70 75 78 88 97 100 100 100 100 100 100 100 100 100 100 100 100 100 86 86 79 82 81 68 67 88 84 100 100 98 100 92 90 100 96 76 78 75 61 49 63 71
91 93 100 100 95 94 93 90 88 100 100 100 100 100 100 100 100 100 100 88 88 93 97 100 99 90 80 88 74 62 60 72 83 100 100 100 98 79 91 100 100 94 83 64 68 71 67
100 100 100 100 100 100 100 100 100 100 100 100 100 100 100 100 100 100 100 100 98 90 95 100 100 100 100 100 86 77 83 89 86 100 85 84 91 79 91 93 85 96 76 64 59 79 82
100 87 90 100 100 100 100 100 100 100 100 100 100 100 100 100 100 100 100 100 100 100 100 100 100 100 100 100 97 84 100 98 91 98 100 100 100 84 69 73 73 97 96 99 90 68 64

GFSGBSN_250_rhum_135.txt.gz
RH
32 26 18 19 20 22 22 22 19 18 13 9 8 6 4 6 4 3 2 3 2 2 2 2 2 3 4 6 7 10 16 18 18 21 21 25 29 32 31 32 30 34 36 42 33 40 60
38 26 23 19 21 25 22 23 21 19 19 10 10 10 9 8 7 4 4 3 3 3 3 3 3 5 6 7 8 10 14 17 20 19 27 34 34 34 31 33 31 32 45 41 40 40 44
36 26 25 19 22 26 25 25 22 21 19 18 10 11 13 11 10 7 7 7 6 6 5 5 5 6 7 8 7 9 16 19 20 21 21 24 34 42 36 30 28 33 44 47 59 47 44
55 32 27 22 22 29 29 28 26 22 18 19 20 13 12 15 13 9 9 11 11 11 11 10 7 9 11 9 9 10 18 22 26 26 26 26 27 31 34 27 28 32 36 49 58 64 56
64 37 29 24 24 29 37 34 30 23 21 18 20 24 17 15 15 16 10 12 10 16 13 12 11 12 11 9 10 14 20 21 24 28 30 30 30 28 25 22 23 27 31 54 71 80 65
78 54 36 30 24 36 39 42 33 28 22 20 20 23 25 22 18 17 15 15 16 15 25 22 12 12 12 13 11 21 26 27 27 31 31 32 31 28 25 22 24 29 28 30 62 67 70
80 69 42 34 28 33 40 47 40 33 25 19 21 23 25 23 26 22 17 16 18 17 22 19 22 13 11 14 15 28 30 30 29 30 33 35 32 29 27 26 26 27 31 32 38 67 76
77 63 44 37 36 29 43 53 49 35 32 27 26 24 22 25 25 27 24 19 16 17 19 20 27 38 22 16 21 22 28 31 29 30 33 35 32 28 28 26 26 26 30 34 37 48 69
76 62 48 43 45 37 39 53 57 45 34 30 26 21 24 24 25 28 29 31 21 16 15 17 16 22 33 23 18 27 32 29 31 32 32 33 33 34 32 31 29 29 32 37 36 39 56
81 68 57 51 54 46 48 56 62 53 44 35 29 26 26 24 25 31 32 30 32 24 15 13 17 17 14 14 28 18 27 38 34 36 35 34 37 37 38 35 34 34 35 36 35 38 41
69 70 72 59 60 56 40 56 70 58 54 48 33 29 25 26 23 26 29 31 32 32 28 15 13 15 19 20 15 11 18 26 29 36 37 42 36 37 36 35 37 39 40 40 39 38 36
45 56 92 72 70 65 53 61 68 81 59 60 43 36 29 27 27 26 28 32 30 32 32 34 21 14 13 14 17 23 17 12 14 18 25 31 37 38 40 40 41 40 42 46 46 46 48
39 38 44 98 80 77 63 55 66 75 82 56 54 49 35 30 29 30 30 32 34 29 29 30 34 32 21 15 13 14 16 18 17 16 18 27 34 36 40 43 51 57 56 52 51 49 46
38 37 33 91 96 87 75 54 64 71 72 75 61 64 51 39 34 32 31 32 34 28 27 28 32 32 36 33 22 18 16 16 17 24 30 34 42 40 48 51 56 56 49 48 49 47 48
45 42 37 40 100 98 84 65 72 64 92 92 66 62 56 53 41 40 36 37 38 36 30 32 28 27 33 32 38 32 28 31 36 35 27 28 50 50 53 58 56 49 51 54 54 56 52
48 48 44 38 100 100 92 92 84 74 84 100 90 70 70 61 57 46 45 46 38 41 38 39 36 33 31 36 36 42 46 44 38 37 41 41 41 49 50 49 47 58 62 59 56 52 47
46 46 46 44 54 100 100 86 93 87 83 100 97 97 71 66 62 59 54 52 50 42 34 32 38 39 33 35 43 43 39 46 49 50 50 48 46 43 42 44 43 42 40 42 42 43 45
52 43 36 42 41 40 100 97 86 91 97 91 99 93 95 85 84 62 54 64 68 62 56 44 41 35 34 38 36 35 49 59 56 45 47 49 56 56 56 56 56 55 53 51 51 55 59
44 43 38 38 37 42 75 94 82 91 100 99 90 94 100 98 91 85 82 67 80 78 75 64 49 46 40 38 39 39 37 32 50 66 75 67 63 58 58 57 53 54 52 51 54 57 60
37 36 37 39 46 40 46 100 96 95 100 100 92 98 100 100 100 91 72 93 77 90 93 84 74 64 48 46 45 52 52 49 36 36 48 51 57 54 67 64 70 79 88 86 85 77 67
26 30 33 42 42 38 28 64 100 99 100 100 100 98 100 100 100 100 89 88 96 80 78 77 84 86 74 50 50 57 54 62 50 40 35 43 52 60 58 56 62 64 62 66 84 95 98
25 29 28 29 28 31 32 28 90 100 100 100 100 100 100 100 100 100 100 100 100 89 83 75 76 78 92 81 67 63 71 53 71 69 47 36 45 62 49 51 50 59 71 79 88 69 55
25 24 25 28 25 28 30 34 87 100 100 100 98 100 100 100 100 100 100 100 91 92 93 84 87 82 86 100 88 79 63 52 54 73 71 57 52 59 83 88 62 57 61 67 66 99 89
27 25 25 28 26 33 38 56 89 100 100 100 100 100 100 100 100 100 100 100 97 83 100 98 99 100 78 89 97 86 94 88 71 60 54 53 61 62 61 65 92 88 79 70 68 89 94
51 32 23 25 28 35 72 82 97 96 90 100 100 100 100 100 100 100 100 100 100 100 100 99 84 100 98 100 93 98 79 81 100 100 96 75 52 57 64 60 56 65 91 96 93 76 74
100 100 93 57 65 77 82 100 100 94 92 100 100 100 100 99 100 100 100 100 100 100 100 100 100 100 100 100 99 100 83 90 96 100 100 100 100 69 52 53 53 54 65 72 83 99 81
92 100 100 100 100 100 100 100 99 100 98 100 100 100 96 74 72 71 97 100 100 94 100 100 100 100 99 100 100 91 64 100 100 100 100 100 100 88 85 74 50 52 58 73 96 100 100
77 89 100 100 100 100 100 100 100 100 99 100 100 96 98 99 100 100 100 100 89 100 100 100 100 100 100 100 100 98 99 97 100 100 100 90 92 99 98 84 64 49 51 63 66 74 81
100 100 100 100 100 100 100 100 100 100 100 99 100 98 96 97 98 100 94 100 100 100 100 100 100 100 100 100 100 100 84 91 84 92 82 71 73 80 75 67 51 55 83 77 71 70 92

GFSGBSN_250_rhum_138.txt.gz
RH
23 39 28 29 25 21 20 18 20 20 16 14 10 9 7 9 5 3 3 3 2 2 2 2 3 4 4 4 4 10 11 14 18 24 26 29 27 27 23 27 26 25 28 30 21 20 22
23 36 28 31 26 26 23 21 19 20 18 18 14 10 10 10 8 6 5 4 4 3 2 2 2 3 4 6 6 9 11 14 16 21 28 30 28 28 30 23 24 24 24 30 26 19 20
29 39 31 31 31 31 30 24 19 20 20 19 19 14 11 10 13 9 6 8 5 5 4 3 2 3 3 5 7 7 8 17 25 22 24 30 32 27 29 28 26 24 26 29 29 24 22
32 50 37 32 34 39 34 31 23 20 21 21 18 21 15 12 12 13 13 10 9 8 6 5 4 3 4 4 6 9 13 16 23 32 24 25 29 38 36 35 34 29 24 30 29 26 24
37 55 42 29 39 51 43 41 32 25 21 23 20 20 26 18 14 13 14 14 12 10 11 9 8 7 5 4 4 4 11 20 23 28 33 31 27 29 43 42 37 33 26 36 36 33 26
39 59 43 35 43 53 58 47 40 30 25 22 24 22 24 32 21 16 13 16 18 15 15 14 13 10 10 9 8 6 8 20 25 28 32 37 40 42 45 31 34 37 35 35 37 29 24
38 63 47 46 44 40 76 52 50 38 30 23 25 26 23 26 34 23 17 15 17 16 16 25 20 14 12 16 13 12 15 15 26 32 36 36 38 40 44 40 37 28 36 36 34 29 29
40 71 50 54 53 45 65 75 53 54 38 26 24 25 27 25 29 36 24 17 15 16 16 17 16 18 12 17 18 18 22 24 25 30 31 31 29 31 34 36 46 44 35 30 32 29 28
40 64 65 56 62 48 48 82 63 55 50 37 27 26 26 28 26 27 36 31 20 16 16 19 15 11 13 12 12 18 22 34 32 34 32 31 29 28 30 31 32 30 28 26 27 27 26
41 50 65 64 62 67 49 60 85 60 53 47 36 30 27 26 27 27 28 35 33 22 16 14 16 22 20 14 13 13 17 21 26 25 24 27 28 28 28 28 28 29 27 26 26 26 27
41 51 38 65 69 75 57 60 72 83 61 56 47 36 32 30 26 24 26 27 33 37 22 15 14 13 15 19 12 9 14 16 21 23 24 23 24 25 26 27 27 27 29 30 30 30 29
38 46 42 36 84 84 71 61 57 78 89 65 56 47 38 37 36 33 26 26 28 30 34 26 17 15 16 17 19 23 17 14 17 20 24 26 26 27 29 32 34 34 34 35 37 38 41
45 44 46 39 65 77 77 72 68 64 79 93 78 63 49 46 44 38 36 28 27 28 28 34 34 24 21 17 17 24 28 30 23 20 21 24 28 35 41 43 43 45 46 47 50 49 48
47 46 44 41 38 91 82 79 66 80 77 77 100 86 76 59 62 52 40 41 37 29 26 29 33 32 32 25 29 30 26 22 27 38 39 34 37 41 46 48 46 50 51 49 46 43 39
48 46 45 38 38 78 100 85 69 70 79 82 79 100 91 70 57 74 56 59 57 50 34 28 28 32 35 37 42 35 40 25 18 22 31 43 45 48 52 58 51 49 49 51 50 52 51
47 45 42 40 37 41 69 80 93 70 82 92 84 98 100 85 71 65 65 64 70 64 60 40 38 27 28 32 36 47 48 41 49 45 42 51 54 56 58 62 57 56 64 65 65 60 60
39 47 40 39 36 39 42 50 100 86 74 100 97 81 94 100 94 75 66 66 66 72 63 76 47 38 36 28 30 37 50 52 54 51 49 51 52 52 49 51 46 50 46 50 46 46 44
38 37 42 39 36 33 39 43 70 100 82 98 100 97 77 100 100 100 79 63 47 56 74 65 74 59 46 39 35 32 31 32 43 49 50 50 53 58 61 62 62 64 63 62 63 61 62
42 29 29 34 40 34 30 31 41 81 93 86 100 100 93 97 100 100 98 85 62 51 61 74 67 63 58 53 39 41 40 38 32 32 33 40 50 56 58 66 71 73 70 65 63 55 58
40 33 29 27 33 34 25 30 32 38 83 82 81 100 100 93 92 100 100 100 81 60 59 60 73 69 57 51 48 44 42 43 42 39 34 33 38 41 42 49 57 71 75 72 72 61 50
65 39 32 29 24 28 28 28 32 30 50 100 65 66 99 100 98 100 100 100 100 81 84 68 68 82 73 70 59 54 47 41 41 50 53 46 40 37 38 51 52 58 62 72 81 90 90
100 59 36 26 25 27 24 24 25 29 31 62 100 73 62 87 100 100 100 100 100 93 77 92 88 55 64 100 89 93 76 54 35 35 43 48 56 56 43 41 38 36 45 51 60 74 69
100 100 92 34 26 25 25 24 27 29 30 39 100 100 77 77 94 100 100 100 100 97 69 94 100 64 100 73 100 100 85 87 59 46 41 49 47 48 64 64 53 49 36 32 43 56 63
93 92 100 100 47 30 23 23 24 35 38 47 88 100 100 97 100 100 100 100 92 95 96 64 76 70 87 52 71 83 99 95 90 76 61 68 54 49 54 51 60 60 58 57 44 43 51
100 100 100 100 100 81 40 26 24 28 48 73 99 100 100 100 100 100 100 100 100 100 100 100 88 59 87 92 100 99 100 100 83 73 75 81 82 78 68 59 51 53 67 78 58 42 54
98 99 100 100 100 100 100 81 33 35 82 100 100 100 100 100 100 100 100 100 100 100 100 100 100 84 100 100 100 100 100 100 100 100 80 84 74 82 76 76 58 48 45 48 48 48 43
100 100 94 100 100 100 100 100 100 84 83 91 100 100 100 100 100 100 100 100 100 100 100 100 99 75 96 100 100 99 100 100 100 100 100 100 85 86 95 100 79 57 48 50 57 56 45
100 100 100 100 100 100 100 100 100 100 96 93 89 81 75 73 80 89 99 100 92 96 68 65 70 84 86 100 100 99 100 100 100 100 100 100 98 98 100 100 93 82 63 69 77 83 68
100 100 100 100 100 100 100 100 100 100 100 100 100 95 81 70 63 63 81 99 78 78 68 66 84 79 100 100 99 100 100 100 100 100 100 100 100 100 100 100 80 69 71 86 87 82 87

GFSGBSN_250_rhum_141.txt.gz
RH
25 25 38 28 33 25 32 24 22 23 20 17 15 9 7 7 8 6 4 3 2 2 2 2 2 2 3 6 6 7 9 15 13 16 23 23 24 36 40 44 39 30 30 30 30 26 25
30 30 41 32 36 32 38 27 22 25 24 19 18 17 9 8 10 9 7 5 3 3 2 3 3 3 4 6 10 8 8 10 13 16 21 24 24 32 39 44 41 37 35 34 30 28 24
34 33 48 36 36 36 44 30 27 24 26 24 21 22 17 10 11 12 10 8 6 4 3 4 4 5 5 6 7 9 7 11 12 18 18 21 29 31 39 40 44 46 40 42 40 35 27
34 33 53 41 44 40 47 35 34 27 26 25 25 24 24 17 10 13 12 11 9 8 5 4 6 8 7 7 9 8 6 8 11 19 23 23 30 31 34 37 40 43 39 39 42 36 30
36 32 62 46 47 47 52 46 34 33 32 29 26 26 27 24 15 11 13 12 14 12 12 7 4 7 8 11 10 6 6 5 12 19 24 28 34 39 34 32 34 36 40 38 37 33 30
38 32 59 58 50 50 48 63 39 40 34 35 28 26 26 31 25 14 11 14 15 17 15 14 11 7 7 7 9 10 8 7 14 20 24 28 40 43 35 38 36 34 34 34 42 39 34
46 32 45 63 57 53 57 64 57 40 46 34 32 28 27 28 32 24 14 9 13 13 15 17 12 10 13 10 7 6 7 9 17 24 22 27 40 39 34 45 46 45 31 30 37 31 26
46 35 40 55 64 67 52 60 75 63 43 50 36 37 33 28 28 33 25 13 11 13 15 17 18 13 9 11 11 11 9 13 20 23 26 26 48 68 54 44 50 49 38 38 41 36 30
44 45 42 36 53 78 59 58 68 72 66 50 50 49 43 33 29 29 33 28 18 13 16 24 17 16 14 11 10 8 12 12 20 25 31 28 44 55 57 56 55 51 46 52 40 37 34
42 50 50 40 38 66 78 61 70 76 75 60 52 52 57 44 41 29 29 32 32 22 15 17 18 20 17 14 19 12 12 14 16 24 32 38 38 47 65 68 76 65 71 62 55 50 49
44 44 55 47 33 47 79 75 68 71 89 86 62 54 52 60 50 51 31 31 33 33 30 13 15 16 21 25 20 14 14 13 18 20 26 36 45 56 60 66 65 69 60 58 48 43 38
50 42 55 51 37 38 72 80 80 79 86 95 85 70 54 52 49 54 46 33 30 32 32 33 14 15 18 24 28 26 15 15 20 21 23 27 31 40 46 53 57 54 50 47 46 43 34
56 46 44 59 45 35 58 84 98 80 97 93 100 100 76 50 51 64 52 43 39 29 30 28 31 27 16 18 25 34 42 33 23 22 21 21 24 28 29 29 28 29 29 32 35 36 33
59 46 41 49 50 37 45 59 84 88 92 98 96 97 100 72 48 67 61 47 44 30 30 33 32 32 37 34 18 17 24 35 43 36 32 32 33 34 36 38 40 42 43 43 44 46 48
50 48 35 38 48 40 35 36 62 93 76 100 100 93 100 100 59 42 71 58 44 38 34 31 32 38 36 36 34 20 21 24 24 32 37 39 42 44 44 45 47 49 50 50 48 46 45
32 44 38 34 37 45 37 35 45 92 86 81 100 94 94 100 100 57 42 59 58 48 42 40 33 31 32 38 40 47 48 35 34 44 41 42 46 50 54 52 52 51 51 52 51 52 53
77 33 44 30 31 37 40 30 37 46 100 86 84 100 97 99 100 100 59 52 55 54 51 42 42 44 33 31 35 34 39 45 48 52 54 55 54 53 52 51 51 54 57 58 61 61 57
100 72 34 42 28 28 36 35 31 34 49 91 95 83 100 93 100 100 100 58 43 47 46 50 44 49 47 41 35 32 34 38 32 34 45 49 56 55 55 55 59 60 65 72 68 68 64
100 100 67 37 36 28 23 30 30 29 37 47 88 92 78 100 84 100 100 100 53 43 46 36 44 50 50 60 51 34 40 35 34 35 37 42 44 46 50 55 57 56 54 53 49 51 50
82 100 100 69 35 30 28 24 26 26 27 32 42 81 71 80 100 99 100 100 99 64 49 82 48 51 77 55 51 58 48 37 32 31 32 36 36 38 40 39 34 35 42 57 62 64 56
60 70 87 97 96 41 33 27 26 23 27 30 31 40 82 62 85 96 100 100 100 97 74 52 63 58 58 71 58 54 51 55 52 44 37 34 35 35 35 34 40 44 44 49 58 71 73
69 74 82 88 90 90 59 34 24 25 23 27 29 29 47 79 64 81 100 96 100 100 99 71 73 59 48 52 53 63 73 65 83 57 57 58 57 44 36 34 36 41 37 41 39 36 42
83 97 87 77 88 96 93 66 35 25 24 24 27 30 32 74 87 79 92 100 94 99 98 100 81 69 65 95 61 65 62 97 89 85 87 57 60 71 57 44 38 34 40 49 44 41 35
100 100 85 87 92 92 100 99 71 52 32 25 24 26 29 47 94 94 90 82 100 100 100 95 100 99 95 85 64 100 100 84 100 100 100 100 95 82 76 79 74 76 62 69 70 64 52
96 100 100 93 91 92 100 100 100 86 71 41 26 36 36 98 100 100 93 100 100 100 100 100 100 100 100 100 91 77 100 100 100 100 100 100 100 100 100 82 90 92 88 83 89 91 84
100 100 100 100 100 96 100 100 100 100 98 80 72 36 87 100 100 100 100 100 100 100 100 100 100 100 94 100 62 64 68 79 78 92 78 100 100 100 100 100 100 100 92 88 92 100 100
81 100 100 100 100 100 100 100 100 100 100 100 89 65 64 86 100 100 100 100 100 100 100 100 100 100 92 73 65 57 63 79 99 100 100 100 100 100 95 100 100 100 99 95 94 100 100
56 54 75 100 100 100 100 100 100 99 100 100 100 100 97 76 66 68 70 73 81 82 69 78 95 100 99 92 84 71 75 78 88 100 100 100 100 100 89 86 100 100 91 98 80 98 100
99 79 61 75 100 100 100 100 100 100 100 100 96 100 100 100 100 100 98 81 66 55 47 53 70 66 65 65 66 72 87 86 100 100 100 100 96 77 88 100 100 95 89 75 86 100 100